[[{"header":{"parameterUnit":"m.s-1","parameterCategory":1,"la1":30.6,"la2":29.2853,"lo1":-89.7004,"lo2":-87.6739,"dy":0.0162,"dx":0.0183,"nx":112,"ny":82,"refTime":"2023-04-30T00:00:00:Z","depth":0,"parameterNumber":2,"parameterNumberName":"U-component_of_WINDS"},"data":[0.0,0.0,0.0,0.0,0.0,0.0,0.0,0.0,0.0,0.0,0.0,0.0,0.0,0.0,0.0,0.0,0.0,0.0,0.0,0.0,0.0,0.0,0.0,0.0,0.0,0.0,0.0,0.0,0.0,0.0,0.0,0.0,0.0,0.0,0.0,0.0,0.0,0.0,0.0,0.0,0.0,0.0,0.0,0.0,0.0,0.0,0.0,0.0,0.0,0.0,0.0,0.0,0.0,0.0,0.0,0.0,0.0,0.0,0.0,0.0,0.0,0.0,0.0,0.0,0.0,0.0,0.0,0.0,0.0,0.0,0.0,0.0,0.0,0.0,0.0,0.0,0.0,0.0,0.0,0.0,0.0,0.0,0.0,0.0,0.0,0.0,0.0,0.0,0.0,0.0,-1.8843,-2.5769,-3.0432,-3.3085,-3.3416,-3.3395,-3.1446,-2.6778,0.0,0.0,0.0,0.0,0.0,0.0,0.0,0.0,0.0,0.0,0.0,0.0,0.0,0.0,0.0,0.0,0.0,0.0,0.0,0.0,0.0,0.0,0.0,0.0,0.0,0.0,0.0,0.0,0.0,0.0,0.0,0.0,0.0,0.0,0.0,0.0,0.0,0.0,0.0,0.0,0.0,0.0,0.0,0.0,0.0,0.0,0.0,0.0,0.0,0.0,0.0,0.0,0.0,0.0,0.0,0.0,0.0,0.0,0.0,0.0,0.0,0.0,0.0,0.0,0.0,0.0,0.0,0.0,0.0,0.0,0.0,0.0,0.0,0.0,0.0,0.0,0.0,0.0,0.0,0.0,0.0,0.0,0.0,0.0,0.0,0.0,0.0,0.0,0.0,0.0,0.0,0.0,0.0,0.0,0.0,0.0,0.0,0.0,0.0,0.0,0.0,0.0,0.0,0.0,-2.2427,-2.9352,-3.0791,-3.188,-3.3317,-3.3357,-3.2411,-3.0239,0.0,0.0,0.0,0.0,0.0,0.0,0.0,0.0,0.0,0.0,0.0,0.0,0.0,0.0,0.0,0.0,0.0,0.0,0.0,0.0,0.0,0.0,0.0,0.0,0.0,0.0,0.0,0.0,0.0,0.0,0.0,0.0,0.0,0.0,0.0,0.0,0.0,0.0,0.0,0.0,0.0,0.0,0.0,0.0,0.0,0.0,0.0,0.0,0.0,0.0,0.0,0.0,0.0,0.0,0.0,0.0,0.0,0.0,0.0,0.0,0.0,0.0,0.0,0.0,0.0,0.0,0.0,0.0,0.0,0.0,0.0,0.0,0.0,0.0,0.0,0.0,0.0,0.0,0.0,0.0,0.0,0.0,0.0,0.0,0.0,0.0,0.0,0.0,0.0,0.0,0.0,0.0,0.0,0.0,0.0,0.0,0.0,0.0,0.0,0.0,0.0,0.0,0.0,-2.3741,-2.7345,-3.059,-3.0879,-3.1576,-3.3235,-3.3363,-3.271,-3.0982,-2.2683,0.0,0.0,0.0,0.0,0.0,0.0,0.0,0.0,0.0,0.0,0.0,0.0,0.0,0.0,0.0,0.0,0.0,0.0,0.0,0.0,0.0,0.0,0.0,0.0,0.0,0.0,0.0,0.0,0.0,0.0,0.0,0.0,0.0,0.0,0.0,0.0,0.0,0.0,0.0,0.0,0.0,0.0,0.0,0.0,0.0,0.0,0.0,0.0,0.0,0.0,0.0,0.0,0.0,0.0,0.0,0.0,0.0,0.0,0.0,0.0,0.0,0.0,0.0,0.0,0.0,0.0,0.0,0.0,0.0,0.0,0.0,0.0,0.0,0.0,0.0,0.0,0.0,0.0,0.0,0.0,0.0,0.0,0.0,0.0,0.0,0.0,0.0,0.0,0.0,0.0,0.0,0.0,0.0,0.0,0.0,0.0,0.0,0.0,0.0,0.0,0.0,0.0,-2.5441,-3.0482,-3.0903,-3.0937,-3.1375,-3.2664,-3.2804,-3.2263,-3.0941,-2.4142,0.0,0.0,0.0,0.0,0.0,0.0,0.0,0.0,0.0,0.0,0.0,0.0,0.0,0.0,0.0,0.0,0.0,0.0,0.0,0.0,0.0,0.0,0.0,0.0,0.0,0.0,0.0,0.0,0.0,0.0,0.0,0.0,0.0,0.0,0.0,0.0,0.0,0.0,0.0,0.0,0.0,0.0,0.0,0.0,0.0,0.0,0.0,0.0,0.0,0.0,0.0,0.0,0.0,0.0,0.0,0.0,0.0,0.0,0.0,0.0,0.0,0.0,0.0,0.0,0.0,0.0,0.0,0.0,0.0,0.0,0.0,0.0,0.0,0.0,0.0,0.0,0.0,0.0,0.0,0.0,0.0,0.0,0.0,0.0,0.0,0.0,0.0,0.0,0.0,0.0,0.0,0.0,0.0,0.0,0.0,0.0,0.0,0.0,0.0,0.0,0.0,0.0,-2.5095,-2.9094,-3.0737,-3.0957,-3.0901,-3.1049,-3.1045,-3.1046,-3.0937,-2.4919,0.0,0.0,0.0,0.0,0.0,0.0,0.0,0.0,0.0,0.0,0.0,0.0,0.0,0.0,0.0,0.0,0.0,0.0,0.0,0.0,0.0,0.0,0.0,0.0,0.0,0.0,0.0,0.0,0.0,0.0,0.0,0.0,0.0,0.0,0.0,0.0,0.0,0.0,0.0,0.0,0.0,0.0,0.0,0.0,0.0,0.0,0.0,0.0,0.0,0.0,0.0,0.0,0.0,0.0,0.0,0.0,0.0,0.0,0.0,0.0,0.0,0.0,0.0,0.0,0.0,0.0,0.0,0.0,0.0,0.0,0.0,0.0,0.0,0.0,0.0,0.0,0.0,0.0,0.0,0.0,0.0,0.0,0.0,0.0,0.0,0.0,0.0,0.0,0.0,0.0,0.0,0.0,0.0,0.0,0.0,0.0,0.0,0.0,0.0,0.0,0.0,0.0,-2.5785,-2.899,0.0,-3.0938,-3.0946,-3.0937,-3.093,-2.8612,-2.3203,0.0,0.0,0.0,0.0,0.0,0.0,0.0,0.0,0.0,0.0,0.0,0.0,0.0,0.0,0.0,0.0,0.0,0.0,0.0,0.0,0.0,0.0,0.0,0.0,0.0,0.0,0.0,0.0,0.0,0.0,0.0,0.0,0.0,0.0,0.0,0.0,0.0,0.0,0.0,0.0,0.0,0.0,0.0,0.0,0.0,0.0,0.0,0.0,0.0,0.0,0.0,0.0,0.0,0.0,0.0,0.0,0.0,0.0,0.0,0.0,0.0,0.0,0.0,0.0,0.0,0.0,0.0,0.0,0.0,0.0,0.0,0.0,0.0,0.0,0.0,0.0,0.0,0.0,0.0,0.0,0.0,0.0,0.0,0.0,0.0,0.0,0.0,0.0,0.0,0.0,0.0,0.0,0.0,0.0,0.0,0.0,0.0,0.0,0.0,0.0,0.0,0.0,-2.2666,-2.6103,-2.8757,0.0,-3.0605,-3.0863,-3.0859,-3.0944,-2.7883,-2.0893,0.0,0.0,0.0,0.0,0.0,0.0,0.0,0.0,0.0,0.0,0.0,0.0,0.0,0.0,0.0,0.0,0.0,0.0,0.0,0.0,0.0,0.0,0.0,0.0,0.0,0.0,0.0,0.0,0.0,0.0,0.0,0.0,0.0,0.0,0.0,0.0,0.0,0.0,0.0,0.0,0.0,0.0,0.0,0.0,0.0,0.0,0.0,0.0,0.0,0.0,0.0,0.0,0.0,0.0,0.0,0.0,0.0,0.0,0.0,0.0,0.0,0.0,0.0,0.0,0.0,0.0,0.0,0.0,0.0,0.0,0.0,0.0,0.0,0.0,0.0,0.0,0.0,0.0,0.0,0.0,0.0,0.0,0.0,0.0,0.0,0.0,0.0,0.0,0.0,0.0,0.0,0.0,0.0,0.0,0.0,0.0,0.0,0.0,0.0,0.0,0.0,0.0,-2.2685,-2.6154,-2.8278,-2.8317,-2.9839,-3.0853,-3.0859,-3.0883,-2.9363,0.0,0.0,0.0,0.0,0.0,0.0,0.0,0.0,0.0,0.0,0.0,0.0,0.0,0.0,0.0,0.0,0.0,0.0,0.0,0.0,0.0,0.0,0.0,0.0,0.0,0.0,0.0,0.0,0.0,0.0,0.0,0.0,0.0,0.0,0.0,0.0,0.0,0.0,0.0,0.0,0.0,0.0,0.0,0.0,0.0,0.0,0.0,0.0,0.0,0.0,0.0,0.0,0.0,0.0,0.0,0.0,0.0,0.0,0.0,0.0,0.0,0.0,0.0,0.0,0.0,0.0,0.0,0.0,0.0,0.0,0.0,0.0,0.0,0.0,0.0,0.0,0.0,0.0,0.0,0.0,0.0,0.0,0.0,0.0,0.0,0.0,0.0,0.0,0.0,0.0,0.0,0.0,0.0,0.0,0.0,0.0,0.0,0.0,0.0,0.0,0.0,0.0,0.0,-2.2646,-2.503,-2.6947,-2.8119,-2.9882,-3.0957,-3.084,-2.8658,-2.4725,-1.8841,0.0,0.0,0.0,0.0,0.0,0.0,0.0,0.0,0.0,0.0,0.0,0.0,0.0,0.0,0.0,0.0,0.0,0.0,0.0,0.0,0.0,0.0,0.0,0.0,0.0,0.0,0.0,0.0,0.0,0.0,0.0,0.0,0.0,0.0,0.0,0.0,0.0,0.0,0.0,0.0,0.0,0.0,0.0,0.0,0.0,0.0,0.0,0.0,0.0,0.0,0.0,0.0,0.0,0.0,0.0,0.0,0.0,0.0,0.0,0.0,0.0,0.0,0.0,0.0,0.0,0.0,0.0,0.0,0.0,0.0,0.0,0.0,0.0,0.0,0.0,0.0,0.0,0.0,0.0,0.0,0.0,0.0,0.0,0.0,0.0,0.0,0.0,0.0,0.0,0.0,0.0,0.0,0.0,0.0,0.0,0.0,0.0,0.0,0.0,0.0,0.0,0.0,-2.2532,-2.5192,-2.7127,-2.8191,-2.9902,-3.0873,-3.084,-2.8284,-2.4368,-1.883,0.0,0.0,0.0,0.0,0.0,0.0,0.0,0.0,0.0,0.0,0.0,0.0,0.0,0.0,0.0,0.0,0.0,0.0,0.0,0.0,0.0,0.0,0.0,0.0,0.0,0.0,0.0,0.0,0.0,0.0,0.0,0.0,0.0,0.0,0.0,0.0,0.0,0.0,0.0,0.0,0.0,0.0,0.0,0.0,0.0,0.0,0.0,0.0,0.0,0.0,0.0,0.0,0.0,0.0,0.0,0.0,0.0,0.0,0.0,0.0,0.0,0.0,0.0,0.0,0.0,0.0,0.0,0.0,0.0,0.0,0.0,0.0,0.0,0.0,0.0,0.0,0.0,0.0,0.0,0.0,0.0,0.0,0.0,0.0,0.0,0.0,0.0,0.0,0.0,0.0,0.0,0.0,0.0,0.0,0.0,0.0,0.0,0.0,0.0,0.0,0.0,0.0,-2.2434,-2.6133,-2.8309,-2.8513,-3.0,-3.0863,-3.0859,-2.9424,-2.7045,-2.3407,0.0,0.0,0.0,0.0,0.0,0.0,0.0,0.0,0.0,0.0,0.0,0.0,0.0,0.0,0.0,0.0,0.0,0.0,0.0,0.0,0.0,0.0,0.0,0.0,0.0,0.0,0.0,0.0,0.0,0.0,0.0,0.0,0.0,0.0,0.0,0.0,0.0,0.0,0.0,0.0,0.0,0.0,0.0,0.0,0.0,0.0,0.0,0.0,0.0,0.0,0.0,0.0,0.0,0.0,0.0,0.0,0.0,0.0,0.0,0.0,-2.1284,0.0,0.0,0.0,0.0,0.0,0.0,0.0,0.0,0.0,0.0,0.0,0.0,0.0,0.0,0.0,0.0,0.0,0.0,0.0,0.0,0.0,0.0,0.0,0.0,0.0,0.0,0.0,0.0,0.0,0.0,0.0,0.0,0.0,0.0,0.0,0.0,0.0,0.0,0.0,0.0,0.0,-2.2605,-2.6167,-2.8829,-3.0239,-3.0654,-3.0863,-3.0859,-3.0581,-2.8427,-2.4044,-2.29,0.0,0.0,0.0,0.0,0.0,0.0,0.0,0.0,0.0,0.0,0.0,0.0,0.0,0.0,0.0,0.0,0.0,0.0,0.0,0.0,0.0,0.0,0.0,0.0,0.0,0.0,0.0,0.0,0.0,0.0,0.0,0.0,0.0,0.0,0.0,0.0,0.0,0.0,0.0,0.0,0.0,0.0,0.0,0.0,0.0,0.0,0.0,0.0,0.0,0.0,0.0,0.0,0.0,0.0,0.0,0.0,0.0,0.0,0.0,0.0,-2.2672,0.0,0.0,0.0,0.0,0.0,0.0,0.0,0.0,0.0,0.0,0.0,0.0,0.0,0.0,0.0,0.0,0.0,0.0,0.0,0.0,0.0,0.0,0.0,0.0,0.0,0.0,0.0,0.0,0.0,0.0,0.0,0.0,0.0,0.0,0.0,0.0,0.0,0.0,0.0,0.0,-2.2756,-2.6162,-2.8935,-3.0722,-3.0903,-3.0925,-3.0869,-3.0878,-2.949,-2.6282,-2.4774,0.0,0.0,0.0,0.0,0.0,0.0,0.0,0.0,0.0,0.0,0.0,0.0,0.0,0.0,0.0,0.0,0.0,0.0,0.0,0.0,0.0,0.0,0.0,0.0,0.0,0.0,0.0,0.0,0.0,0.0,0.0,0.0,0.0,0.0,0.0,0.0,0.0,0.0,0.0,0.0,0.0,0.0,0.0,0.0,0.0,0.0,0.0,0.0,0.0,0.0,0.0,0.0,0.0,-2.5881,-2.6578,-2.7498,-2.749,-2.7363,-2.6943,-2.5925,-2.5159,-2.4736,-2.4475,0.0,0.0,0.0,0.0,0.0,0.0,0.0,0.0,0.0,0.0,0.0,0.0,0.0,0.0,0.0,0.0,0.0,0.0,0.0,0.0,0.0,0.0,0.0,0.0,-2.7325,-2.6247,0.0,0.0,0.0,0.0,0.0,0.0,0.0,0.0,0.0,0.0,0.0,0.0,-2.3146,-2.6334,-2.8973,-3.0731,-3.0873,-3.0889,-3.0889,-3.0856,-3.0241,-2.8603,-2.6631,-2.4756,0.0,0.0,0.0,0.0,0.0,0.0,0.0,0.0,0.0,0.0,0.0,0.0,0.0,0.0,0.0,0.0,0.0,0.0,0.0,0.0,0.0,0.0,0.0,0.0,0.0,0.0,0.0,0.0,0.0,0.0,0.0,0.0,-1.1706,-1.4128,0.0,0.0,0.0,0.0,0.0,0.0,0.0,0.0,0.0,0.0,0.0,0.0,0.0,-2.149,-2.2998,-2.4976,-2.64,-2.7386,-2.8114,-2.872,-2.9322,-2.9579,-2.9944,-3.0231,-3.0278,0.0,-2.5921,-2.529,0.0,0.0,0.0,0.0,0.0,0.0,0.0,0.0,0.0,0.0,0.0,0.0,0.0,0.0,0.0,0.0,0.0,0.0,0.0,0.0,0.0,0.0,-2.9331,-3.6259,-3.3906,-3.0153,0.0,-2.6051,-2.4014,-2.8537,-2.5764,0.0,0.0,0.0,0.0,0.0,0.0,0.0,-2.4545,-2.711,-2.8977,-3.0734,-3.0886,-3.0889,-3.0889,-3.085,-3.0535,-2.9463,-2.8096,-2.6543,-2.4805,-2.3848,0.0,0.0,0.0,0.0,0.0,0.0,0.0,0.0,0.0,0.0,0.0,0.0,0.0,0.0,0.0,0.0,0.0,0.0,0.0,0.0,0.0,0.0,0.0,0.0,0.0,0.0,0.0,0.0,0.0,-1.1952,-1.3082,-1.4433,-1.4782,-1.5468,0.0,0.0,0.0,0.0,0.0,0.0,0.0,0.0,0.0,-2.1125,-2.1848,-2.3362,-2.5766,-2.6958,-2.8067,-2.916,-3.0,-3.0615,-3.1035,-3.1221,-3.1416,-3.1592,-3.1759,-3.0937,-2.9431,-2.8061,-2.694,-2.6187,0.0,0.0,0.0,0.0,-2.4725,-2.4592,-2.456,-2.7024,0.0,-3.2167,0.0,0.0,0.0,0.0,0.0,0.0,0.0,0.0,0.0,0.0,-2.7837,-3.7457,-3.5178,-3.0904,-3.0894,-2.9125,-2.6878,0.0,-2.3859,-2.2499,-2.0593,0.0,0.0,0.0,0.0,-1.8278,-2.6121,-2.8656,-3.0058,-3.0863,-3.0915,-3.0889,-3.0889,-3.0889,-3.0723,-3.0342,-2.9326,-2.8184,-2.6934,-2.6055,-2.4355,0.0,0.0,0.0,0.0,0.0,0.0,0.0,0.0,0.0,0.0,0.0,0.0,0.0,0.0,0.0,0.0,0.0,0.0,0.0,0.0,0.0,0.0,0.0,0.0,0.0,0.0,0.0,0.0,-1.3774,-1.4435,-1.5041,-1.5659,-1.6283,0.0,0.0,0.0,0.0,0.0,0.0,-1.8921,-2.0024,-2.1431,-2.3308,-2.3941,-2.5532,-2.8034,-2.8851,-2.9799,-3.0869,-3.1641,-3.2236,-3.2656,-3.2656,-3.2656,-3.2656,-3.2656,-3.2598,-3.2387,-3.0398,-2.896,-2.8097,-2.7678,-2.6764,-2.577,-2.6114,-2.5753,-2.5517,-2.8277,-3.1691,-3.4512,-3.2876,-3.4932,-3.7066,-3.2179,0.0,0.0,0.0,0.0,-2.843,-2.9535,-2.8598,-2.9429,-3.7701,-3.5204,-3.0891,-3.0877,-3.0912,-2.9084,0.0,-2.3445,-2.4522,-2.2872,0.0,0.0,0.0,0.0,-2.1223,-2.8059,-3.0089,-3.094,-3.0928,-3.0848,-3.0889,-3.0889,-3.0771,-3.0703,-3.0713,-2.9893,-2.9121,-2.8476,-2.7529,-2.5908,-2.3545,0.0,0.0,0.0,0.0,0.0,0.0,0.0,0.0,0.0,0.0,0.0,0.0,0.0,0.0,0.0,0.0,0.0,0.0,0.0,0.0,0.0,0.0,0.0,0.0,0.0,0.0,0.0,0.0,0.0,-1.6902,-1.7282,0.0,0.0,0.0,0.0,-1.9059,-1.9595,-1.9732,-1.9512,-2.123,-2.2374,-2.2513,-2.6054,-2.8372,-2.925,-3.1035,-3.2266,-3.2666,-3.3115,-3.3555,-3.3975,-3.3975,-3.3975,-3.3975,-3.3975,-3.374,-3.3184,-3.1093,-2.9917,-2.9459,-2.8583,-2.8146,-2.8252,-2.9669,-3.0239,-3.1331,-3.7,-3.9137,-3.9377,-3.9277,-3.6621,-3.3345,-3.3051,-3.239,0.0,0.0,-3.0085,-2.9681,-2.9765,-3.4268,-3.8966,-3.9527,-3.521,-3.0895,-3.0922,-3.0912,-2.9979,0.0,-2.8544,-2.9943,-2.8254,0.0,-1.7032,-2.1947,-2.5573,-2.839,-3.0488,-3.0884,-3.0938,-3.0946,-3.0879,-3.0889,-3.0889,-3.0344,-3.0081,-3.0234,-2.9424,-2.8935,-2.8887,-2.7685,-2.6758,-2.6201,-2.3359,0.0,0.0,0.0,0.0,0.0,0.0,0.0,0.0,0.0,0.0,0.0,0.0,0.0,0.0,0.0,0.0,0.0,0.0,0.0,0.0,0.0,0.0,0.0,0.0,0.0,0.0,0.0,0.0,-1.8668,-1.9299,0.0,-1.8897,-1.9292,-1.9744,-1.9963,-2.0106,-2.0766,-2.2138,-2.3076,-2.4593,-2.7056,-2.8701,-3.0248,-3.156,-3.2777,-3.333,-3.3203,-3.3906,-3.4033,-3.3672,-3.4228,-3.4793,-3.523,-3.5548,-3.6029,-3.6474,-3.5628,-3.4371,-3.2693,-3.2093,-3.2318,-3.3055,-3.3238,-3.3101,-3.3578,-3.8142,-4.0593,-4.1552,-4.0192,-3.8677,-3.7355,-3.7325,-3.6534,-3.5514,-3.5171,-3.5095,-3.5053,-3.5124,-3.7405,-3.9722,-3.9677,-3.8143,-3.6563,-3.6592,-3.3539,-3.0567,-2.9587,-3.0224,-3.0723,-3.0119,-2.7452,-2.5576,-2.63,-2.8471,-3.025,-3.0867,-3.0897,-3.0868,-3.0879,-3.0889,-3.0889,-3.0889,-3.0315,-2.9935,-2.9805,-2.9238,-2.8672,-2.8135,-2.7676,-2.6836,-2.5566,-2.4209,-2.2207,0.0,0.0,0.0,0.0,0.0,0.0,0.0,0.0,0.0,0.0,0.0,0.0,0.0,0.0,0.0,0.0,0.0,0.0,0.0,0.0,0.0,0.0,0.0,0.0,0.0,0.0,-2.0012,-2.003,-2.0611,-2.0822,-2.0405,-2.0645,-2.0878,-2.0873,-2.1428,-2.2338,-2.3998,-2.5345,-2.7252,-2.9913,-3.0696,-3.1816,-3.2998,-3.4167,-3.4548,-3.4268,-3.5651,-3.5937,-3.5251,-3.627,-3.6803,-3.7188,-3.7439,-3.7989,-3.8498,-3.8432,-3.774,-3.6494,-3.5732,-3.5545,-3.6015,-3.642,-3.6169,-3.6128,-3.9648,-4.1311,-4.1604,-4.021,-3.9697,-3.9677,-3.9654,-3.9056,-3.8214,-3.8214,-3.8392,-3.8602,-3.8602,-3.9091,-3.9669,-3.9693,-3.9662,-3.9692,-3.9672,-3.6615,-3.3323,-3.1329,-3.0898,-3.0893,-3.0931,-3.0884,-3.0464,-2.9314,-3.013,-3.0948,-3.0874,-3.0903,-3.0853,-3.0849,-3.0925,-3.081,-3.0509,-2.9565,-2.8991,-2.9141,-2.8047,-2.7353,-2.7236,-2.667,-2.582,-2.4658,-2.3496,-2.1699,-1.9287,0.0,0.0,0.0,0.0,0.0,0.0,0.0,0.0,0.0,0.0,0.0,0.0,0.0,0.0,0.0,0.0,0.0,0.0,0.0,0.0,0.0,0.0,0.0,-2.0906,-2.0465,-2.0332,-2.114,-2.1513,-2.1483,-2.1203,-2.1571,-2.186,-2.2136,-2.3688,-2.4705,-2.4834,-2.7966,-3.0028,-3.0564,-3.2123,-3.3237,-3.369,-3.5108,-3.5949,-3.5981,-3.8495,-3.9444,-3.8996,-3.9971,-4.0258,-3.9929,-3.9784,-3.9602,-3.9427,-3.9067,-3.9607,-4.0476,-3.8912,-3.7724,-3.7166,-3.9141,-3.9348,-3.9165,-4.1969,-4.1491,-3.973,-3.9694,-3.9697,-3.9697,-3.9697,-3.9697,-3.9697,-3.9697,-3.9697,-3.9697,-3.9697,-3.9697,-3.9697,-3.9697,-3.9697,-3.9719,-3.968,-3.9753,-3.7966,-3.1941,-3.0947,-3.1107,-3.0904,-3.079,-3.0717,-3.0563,-3.0617,0.0,-3.0567,-3.0611,-3.0725,-3.0878,-3.071,-3.0354,-2.9632,-2.7961,-2.7363,-2.8203,-2.5859,-2.5029,-2.6299,-2.4727,-2.3828,-2.3809,-2.1269,-2.0156,-2.0586,0.0,0.0,0.0,0.0,0.0,0.0,0.0,0.0,0.0,0.0,0.0,0.0,0.0,0.0,0.0,0.0,0.0,0.0,0.0,0.0,0.0,0.0,-1.9381,-1.9551,-2.0671,-2.165,-2.1971,-2.2399,-2.2559,-2.2706,-2.4172,-2.5227,-2.5081,-2.6658,-2.8254,-2.9447,-3.1741,-3.385,-3.5838,-3.6982,-3.8101,-3.9405,-3.8487,-3.8198,-3.8673,-3.931,-3.931,-3.8974,-3.9478,-4.0178,-4.0974,-4.0833,-4.122,-4.1954,-4.1443,-4.169,-4.21,-4.0176,-3.9855,-4.0734,-4.0843,-4.0916,-4.101,-4.0681,-4.0178,-3.9709,-3.9678,-3.9697,-3.9697,-3.9697,-3.9697,-3.9697,-3.9697,-3.9697,-3.9697,-3.9697,-3.9697,-3.9697,-3.9697,-3.9697,-3.9735,-3.9653,-3.969,-3.734,-2.9307,-3.2852,-3.5971,-3.1643,-2.9176,-2.6727,-2.3817,-2.3394,0.0,-2.3391,-2.4478,-2.6672,-3.0486,-2.7471,-2.6471,-2.9688,-2.7534,-2.6433,-2.7344,-2.6113,-2.5391,-2.543,-2.4971,-2.456,-2.4248,-2.2021,-2.0937,0.0,0.0,0.0,0.0,0.0,0.0,0.0,0.0,0.0,0.0,0.0,0.0,0.0,0.0,0.0,0.0,0.0,0.0,0.0,0.0,0.0,0.0,-2.0004,-1.9897,-1.995,-2.1198,-2.2213,-2.2741,-2.3612,-2.4482,-2.5073,-2.6816,-2.7802,-2.7457,-2.9681,-3.1393,-3.2134,-3.4616,-3.6794,-3.886,-3.8804,-3.9535,-4.1057,-4.0139,-3.9756,-4.0054,-4.0875,-4.1057,-4.0716,-4.1551,-4.2172,-4.255,-4.2592,-4.2908,-4.3451,-4.2743,-4.2685,0.0,0.0,0.0,0.0,0.0,-4.0976,-4.091,-4.0698,-4.0202,-3.975,-3.9655,-3.9686,-3.9735,-3.9669,-3.9715,-3.965,-3.9709,-3.9679,-3.9672,-3.9741,-3.9671,-3.9725,-3.9662,-3.9697,-3.9697,-3.9697,-3.9689,-3.8234,-3.2978,-3.6178,0.0,-3.5176,-3.1121,-2.7564,-2.5272,-2.4861,-2.4881,-2.4893,-2.5731,-2.7508,-3.0631,-2.823,-2.7359,-2.9736,-2.768,0.0,0.0,0.0,-2.456,-2.3769,-2.3906,0.0,0.0,0.0,-2.1221,-2.1768,0.0,0.0,0.0,-2.0762,-1.9495,0.0,0.0,0.0,0.0,0.0,0.0,0.0,0.0,0.0,0.0,0.0,0.0,0.0,0.0,0.0,0.0,-2.1099,-2.1643,-2.1484,-2.2189,-2.288,-2.3491,-2.5375,-2.6838,-2.7636,-2.9433,-3.0358,-2.9841,-3.3058,-3.4635,-3.3938,0.0,0.0,0.0,0.0,-3.9558,-4.1142,-4.0937,-4.0894,-4.1014,-4.2806,-4.3489,-4.3124,-4.4556,-4.4801,-4.4055,-4.4356,-4.4227,-4.3912,-4.3225,-4.2811,-4.261,-4.1769,-4.1392,-4.1266,-4.0651,-4.0177,-4.0141,-4.1166,0.0,0.0,-4.0097,-3.991,-3.9796,-4.0011,-3.9878,-3.9531,-3.8505,-3.8215,-3.8225,-3.8191,-3.8908,-3.9737,-3.9715,-3.9697,-3.9697,-3.9697,-3.9681,-3.968,-3.9676,-3.9681,-3.9692,-3.9655,-3.5399,-3.1702,-3.0986,-3.0912,-3.0932,-3.0925,-3.0874,-3.0931,-3.0891,0.0,0.0,-3.0205,-2.8281,-2.7256,-2.7637,-2.541,-2.3574,-2.2441,-2.2754,-2.2227,-2.0674,-2.0977,-2.1719,-2.2871,-2.2871,-2.3682,-2.5146,-2.2363,-2.1136,0.0,0.0,0.0,0.0,0.0,0.0,0.0,0.0,0.0,0.0,0.0,0.0,0.0,0.0,0.0,-1.9945,-2.1585,-2.2767,-2.3775,-2.5321,-2.6246,-2.5525,-2.7328,-2.8777,-2.928,-3.2498,-3.4353,-3.3812,-3.6763,-3.8401,-3.7833,-3.98,-4.1632,-4.2811,-4.2975,-4.3971,-4.6124,-4.3777,-4.2948,-4.3805,0.0,0.0,-4.3639,-4.3514,-4.3576,-4.3789,-4.3463,-4.3211,-4.3216,-4.2557,-4.1794,-4.1053,-4.1731,-4.1731,-4.1216,-4.0224,-4.0595,-4.151,-3.9794,-4.0644,-4.2321,-4.2344,-4.1139,-4.0022,-4.1854,-4.1094,0.0,-3.1099,-2.8998,-2.9084,-2.9011,-3.4298,-3.969,-3.9737,-3.9697,-3.9697,-3.9697,-3.9701,-3.969,-3.975,-3.9701,-3.974,-3.9669,-3.8773,-3.6426,-3.1646,-3.0931,-3.0952,-3.0903,-3.0857,-3.0883,-3.0952,-3.086,-3.0893,-3.075,-2.8829,-2.7578,-2.7656,-2.6553,-2.5781,-2.5527,-2.5596,-2.5478,-2.5146,-2.4873,-2.4863,-2.5117,-2.5117,-2.5469,-2.6103,-2.4805,-2.3879,0.0,0.0,0.0,0.0,0.0,0.0,0.0,0.0,0.0,0.0,0.0,-1.3536,0.0,0.0,-2.113,-2.2397,-2.4494,-2.6118,-2.6902,-2.882,-2.967,-2.901,-3.0641,-3.239,-3.3545,-3.6334,-3.7681,-3.7001,-3.9154,-4.0511,-4.0749,-4.2388,-4.4304,-4.6326,-4.6164,-4.6805,-4.8328,-4.6491,-4.5615,-4.5783,-4.5325,-4.5193,-4.547,-4.4759,-4.4454,-4.4331,-4.37,-4.3237,-4.2949,-4.2685,-4.2082,-4.1392,-4.1944,-4.148,-4.0513,-4.0513,-4.0865,-4.1216,-4.0245,-4.0827,-4.1973,-4.2708,-4.1537,-3.9897,-4.1014,-4.0542,-3.8742,-3.4351,-3.3118,-3.3066,-3.3117,-3.6369,-3.9684,-3.9739,-3.9697,-3.9697,-3.9697,-3.9697,-3.9697,-3.9697,-3.9697,-3.9697,-3.9697,-3.969,-3.8685,-3.5756,-3.5313,-3.42,-3.1327,-3.0952,-3.0889,-3.0889,-3.0908,-3.0853,-3.0952,-2.9505,-2.8525,-2.831,-2.7695,-2.7246,-2.7041,-2.6816,-2.6699,-2.6699,-2.6279,-2.6162,-2.6377,-2.6377,-2.6602,-2.7012,-2.6572,-2.5743,0.0,0.0,0.0,0.0,0.0,0.0,0.0,0.0,-0.9176,-0.9675,-1.2619,-1.5422,-1.669,-2.1241,-2.4748,-2.4582,-2.7295,-2.9575,-2.9961,-3.1857,-3.3238,-3.3421,-3.4764,-3.6152,-3.7615,-3.9708,-4.0724,-3.9831,-4.1516,-4.2861,-4.347,-4.4741,-4.6542,-4.8923,-4.8252,-4.8336,-4.9123,-4.8322,-4.7647,-4.7274,-4.715,-4.7094,-4.7122,-4.6183,-4.551,-4.4967,-4.4074,-4.3388,-4.2974,-4.2861,-4.2497,-4.2007,-4.2108,-4.1153,-3.9823,-4.0927,-4.1065,-4.0727,-4.1065,-4.0939,-4.0926,-4.2041,-4.1127,-3.9734,-3.9665,-3.9752,-3.9751,-3.9672,-3.9694,-3.9681,-3.9702,-3.969,-3.9673,-3.9753,-3.9697,-3.9697,-3.9697,-3.9697,-3.9697,-3.9697,-3.9697,-3.9697,-3.9697,-3.9697,-3.9731,-3.9711,-3.9661,-3.7517,-3.1636,-3.0902,-3.0889,-3.0889,-3.0889,-3.0889,-3.0889,-3.0156,-2.9541,-2.9189,-2.8779,-2.8389,-2.8047,-2.7617,-2.7383,-2.7383,-2.6973,-2.6924,-2.7266,-2.7266,-2.7441,-2.7783,-2.7783,-2.7113,-0.3184,-0.4999,-0.6949,-0.7605,-0.7585,-0.8112,0.0,0.0,-0.9064,-1.2396,-1.275,-1.3436,-1.6744,-1.9401,-2.1539,-2.3044,-2.7299,-3.0733,-3.1667,-3.3905,-3.6563,-3.9324,-3.8968,-3.8553,-3.872,-4.1781,-4.3437,-4.2856,-4.5529,-4.6968,-4.6578,-4.6771,-4.7239,-4.7986,-4.7543,-4.7702,-4.883,-4.7716,-4.744,-4.7791,-4.7357,-4.7094,-4.7094,-4.5728,-4.5114,-4.4941,-4.3666,-4.3037,-4.2936,-4.2446,-4.1919,-4.148,-4.1969,-4.1153,-3.9823,-4.0927,-4.1304,-4.1178,-4.0752,-4.0733,-4.0682,-4.0278,-3.9852,-3.9649,-3.9706,-3.9712,-3.9726,-3.9689,-3.9677,-3.9702,-3.974,-3.9676,-3.9714,-3.9659,-3.9697,-3.9697,-3.9697,-3.9697,-3.9697,-3.9697,-3.9697,-3.9697,-3.9697,-3.9697,-3.971,-3.9669,-3.9692,-3.7589,-3.1619,-3.0933,-3.0889,-3.0889,-3.0889,-3.0889,-3.0889,-3.042,-3.0107,-3.0059,-2.9658,-2.9404,-2.9355,-2.8935,-2.8711,-2.8711,-2.8291,-2.8105,-2.8144,-2.8144,-2.8174,-2.8223,-2.8223,-2.8116,-0.5154,-0.6236,0.0,0.0,-0.7799,-0.8173,-0.9414,-0.9809,-1.0301,-1.2158,-1.3871,-1.5809,-1.8257,-2.2344,-2.5634,0.0,-3.1134,-3.4924,-3.663,-3.7978,-3.9768,-4.2435,-4.2358,-4.1894,-4.1422,-4.4004,-4.5354,-4.4428,-4.6302,-4.768,-4.8253,-4.8339,-4.8767,-4.9748,-4.9962,-5.0107,-5.0181,-5.0107,-4.9962,-4.9861,-4.9585,-4.947,-4.947,-4.8024,-4.6591,-4.4901,-4.2914,-4.2208,-4.2484,-4.2246,-4.1643,-4.0915,-4.1467,-4.0865,-3.9823,-4.0927,-4.0927,-4.035,-4.0124,-4.0045,-4.012,-3.9823,-3.9681,-3.9665,-3.9735,-3.9697,-3.9697,-3.9697,-3.9697,-3.9697,-3.9697,-3.9697,-3.9697,-3.9697,-3.9697,-3.9697,-3.9697,-3.9697,-3.9697,-3.9697,-3.9697,-3.9697,-3.9697,-3.9697,-3.9697,-3.9697,-3.968,-3.7592,-3.1615,-3.089,-3.0942,-3.0859,-3.0889,-3.0889,-3.0889,-3.0713,-3.0605,-3.0605,-3.0439,-3.0342,-3.0342,-2.9668,-2.9414,-2.9658,-2.8994,-2.8779,-2.9033,-2.9033,-2.8906,-2.8662,-2.8662,-2.8525,-0.6441,0.0,0.0,-0.7545,-0.8016,-0.8379,-0.8646,-0.9753,-1.1003,-1.2356,-1.5311,-1.8144,-1.9848,-2.5172,-2.9292,-2.9687,-3.4148,-3.808,-3.9982,-4.0912,-4.1997,-4.3533,-4.3905,-4.3683,-4.2806,-4.5205,-4.6546,-4.5734,-4.7066,-4.8382,-4.9403,-4.9674,-5.0191,-5.1214,-5.1678,-5.1693,-5.1214,-5.1693,-5.1693,-5.1214,-5.1214,-5.1214,-5.112,-4.9776,-4.7724,-4.5169,-4.3016,-4.2207,-4.2423,-4.1973,-4.1229,-4.0563,-4.0953,-4.0526,-3.981,-4.0764,-4.0513,-3.9697,-3.9697,-3.9697,-3.9697,-3.9697,-3.9697,-3.9697,-3.9697,-3.9697,-3.9697,-3.9697,-3.9697,-3.9697,-3.9697,-3.9697,-3.9697,-3.9697,-3.9697,-3.9697,-3.9697,-3.9697,-3.9697,-3.9697,-3.9697,-3.9697,-3.9697,-3.9697,-3.9697,-3.9697,-3.9686,-3.813,-3.3911,-3.1919,-3.0953,-3.084,-3.0889,-3.0889,-3.0889,-3.0889,-3.0889,-3.0889,-3.0889,-3.0889,-3.0889,-3.0146,-2.9883,-3.0185,-2.9473,-2.9258,-2.957,-2.957,-2.9414,-2.9092,-2.9092,-2.8935,0.0,0.0,-0.7667,-0.7617,-0.8269,-0.8981,-0.9187,-0.9367,-1.0529,-1.4159,-1.6838,-1.9105,-2.138,-2.6451,-3.0115,-2.9378,-3.4482,-3.8956,-4.0036,-4.1465,-4.2477,-4.2584,-4.264,-4.2455,0.0,-4.4721,-4.6651,-4.708,-4.8978,-5.0164,-5.0179,-5.0777,-5.112,-5.1214,-5.1244,-5.1244,-5.1214,-5.1244,-5.1244,-5.1214,-5.1214,-5.1214,-5.112,-4.9776,-4.7999,-4.6022,-4.4674,-4.3743,-4.3009,-4.1279,-4.0538,-4.0513,-4.0538,-4.0199,-3.976,-4.0337,-4.0174,-3.9697,-3.9697,-3.9697,-3.9697,-3.9697,-3.9697,-3.9697,-3.9697,-3.9697,-3.9697,-3.9697,-3.9697,-3.9697,-3.9697,-3.9697,-3.9697,-3.9697,-3.9697,-3.9697,-3.9697,-3.9697,-3.9697,-3.9697,-3.9697,-3.9697,-3.9697,-3.9697,-3.9697,-3.9697,-3.971,-3.9665,-3.9455,-3.4461,-3.0953,-3.084,-3.0889,-3.0889,-3.0889,-3.0889,-3.0889,-3.0889,-3.0889,-3.0889,-3.0889,-3.043,-3.0185,-3.0195,-2.9766,-2.956,-2.957,-2.957,-2.956,-2.9551,-2.9551,-2.9541,0.0,0.0,-0.9346,-1.0575,-1.1281,-1.1768,-1.1977,-1.2879,-1.3994,-1.5258,-1.7983,-2.0617,-2.2231,-2.6476,-3.0491,-3.2558,-3.6495,-4.0169,-4.2626,-4.3631,-4.4113,-4.4328,-4.4217,0.0,0.0,0.0,0.0,-4.6795,-4.8895,-5.0047,-4.9613,-5.0631,-5.102,-5.0586,-5.099,-5.1214,-5.1214,-5.1214,-5.1214,-5.1214,-5.1214,-5.1214,-5.109,-4.8997,-4.7817,-4.7333,-4.4828,-4.3358,-4.2637,-4.2058,-4.108,-4.0011,-4.0375,-4.0174,-3.9722,-3.9898,-3.9848,-3.9697,-3.9697,-3.9459,-3.9145,-3.9145,-3.9411,-3.9688,-3.9702,-3.9677,-3.9715,-3.9737,-3.9697,-3.9697,-3.9697,-3.9697,-3.9697,-3.9697,-3.9697,-3.9697,-3.9697,-3.9697,-3.9697,-3.9697,-3.9697,-3.9697,-3.9697,-3.9697,-3.9697,-3.9697,-3.9661,-3.9035,-3.6995,-3.4447,-3.2364,-3.0995,-3.0889,-3.0889,-3.0889,-3.0889,-3.0889,-3.0889,-3.0889,-3.0889,-3.0889,-3.0449,-3.0342,-3.0654,-3.0215,-3.0137,-3.0449,-3.0449,-3.0283,-2.999,-2.999,-2.9834,-0.9363,-1.0551,-1.1359,-1.2411,-1.3594,-1.4439,-1.4028,-1.5241,-1.6408,-1.6733,-1.9476,-2.2008,-2.296,-2.6809,-3.0792,-3.3323,-3.6879,-4.0459,-4.3772,-4.5092,-4.5894,-4.6423,-4.5756,-4.5389,0.0,0.0,0.0,-4.6283,-4.8133,-4.9231,-4.905,-5.0078,-5.0638,-5.0571,-5.1005,-5.1334,-5.1558,-5.1334,-5.1214,-5.1214,-5.099,-5.087,-5.0732,-4.8953,-4.7907,-4.7415,-4.5387,-4.3859,-4.2697,-4.2259,-4.1458,-4.0402,-4.0282,-4.0011,-3.9697,-3.9697,-3.9697,-3.9697,-3.9697,-3.9333,-3.8868,-3.8868,-3.9108,-3.9257,-3.9108,-3.9373,-3.9677,-3.9699,-3.9712,-3.9649,-3.9659,-3.9697,-3.9697,-3.9697,-3.9697,-3.9697,-3.9697,-3.9697,-3.9697,-3.9697,-3.9697,-3.9697,-3.9697,-3.9697,-3.9697,-3.9697,-3.9705,-3.861,-3.5685,-3.3863,-3.2282,-3.0976,-3.0889,-3.0889,-3.0889,-3.0889,-3.0889,-3.0889,-3.0889,-3.0889,-3.0889,-3.0605,-3.0586,-3.0889,-3.0596,-3.0596,-3.0889,-3.0889,-3.0732,-3.0449,-3.0449,-3.0293,-1.11,-1.2858,-1.3782,-1.3489,-1.5511,-1.7114,-1.5599,-1.6249,-1.7583,-1.8618,-2.1081,-2.3162,0.0,0.0,-3.0972,-3.1917,-3.5904,-4.0115,-4.3611,-4.5966,-4.7587,0.0,0.0,0.0,0.0,0.0,0.0,-4.5865,0.0,-4.7962,-4.8496,-4.9251,-5.0037,-5.1065,-5.1184,-5.1513,-5.2142,-5.1528,-5.1214,-5.1214,-5.0556,-5.0242,-5.0212,-4.9523,-4.8192,-4.6401,-4.6456,-4.5349,-4.3383,-4.2263,-4.1789,-4.1604,-4.0262,-3.9788,-3.9788,-3.9697,-3.9697,-3.9697,-3.9697,-3.9333,-3.8856,-3.8831,-3.8667,-3.8466,-3.8115,-3.8818,-3.9664,-3.9546,-3.9638,-3.9702,-3.9712,-3.9697,-3.9697,-3.9697,-3.9697,-3.9697,-3.9697,-3.9697,-3.9697,-3.9697,-3.9697,-3.9697,-3.9697,-3.9697,-3.9697,-3.9697,-3.9488,-3.8275,-3.5674,-3.2774,-3.0964,-3.0917,-3.0889,-3.0889,-3.0889,-3.0889,-3.0889,-3.0889,-3.0889,-3.0889,-3.0889,-3.0889,-3.0889,-3.0889,-3.0889,-3.0889,-3.0889,-3.0889,-3.0889,-3.0889,-3.0889,-3.0889,-1.2987,-1.4921,-1.6752,-1.8681,-1.9614,-1.9969,-1.9575,-1.9497,-1.9336,-1.8481,-2.0426,-2.2071,0.0,0.0,0.0,-3.4145,-3.8466,0.0,-4.5104,-4.7248,0.0,-4.7626,0.0,-4.8103,-4.8237,-4.8562,0.0,0.0,-4.8749,-4.8798,-4.7709,-4.9176,-5.0005,-4.9763,-5.072,-5.1304,-5.1468,-5.1304,-5.1214,-5.1214,-5.0556,-5.0242,-5.0197,-4.906,-4.8267,-4.7773,-4.7243,-4.6211,-4.4838,-4.4606,-4.3882,-4.293,-4.1604,-4.1119,-4.1032,-4.0083,-3.9697,-3.9697,-3.9697,-3.9333,-3.8806,-3.8366,-3.8041,-3.7854,-3.7917,-3.883,-3.9335,-3.7673,-3.8403,-3.9687,-3.9672,-3.9697,-3.9697,-3.9697,-3.9697,-3.9697,-3.9697,-3.9697,-3.9697,-3.9697,-3.9697,-3.9697,-3.9697,-3.9697,-3.9697,-3.9697,-3.5958,-3.3656,-3.5055,-3.3961,-3.2509,-3.1102,-3.0889,-3.0889,-3.0889,-3.0889,-3.0889,-3.0889,-3.0889,-3.0889,-3.0889,-3.0889,-3.0889,-3.0889,-3.0889,-3.0889,-3.0889,-3.0889,-3.0889,-3.0889,-3.0889,-3.0889,-1.6055,-1.8412,-2.0419,-2.1435,-2.2378,-2.2629,-2.0937,-2.0631,-2.0329,-1.8765,-1.9982,0.0,0.0,0.0,0.0,0.0,0.0,0.0,-4.487,-4.7182,-4.8627,0.0,-4.9085,0.0,-5.0533,-5.0529,-5.0359,0.0,-4.9876,-4.9472,-4.8873,-5.0168,-5.0708,-5.0436,-5.144,-5.1727,-5.1214,-5.1498,-5.1349,-5.078,-5.0122,-4.9658,-4.9344,-4.8327,-4.7534,-4.698,0.0,-4.659,-4.5347,-4.5353,-4.5024,-4.4163,-4.2363,-4.1604,-4.1406,-4.0173,-3.9697,-3.9697,-3.9697,-3.9484,-3.9094,-3.8266,-3.8029,-3.8104,-3.7814,-3.8703,-3.9437,-3.8197,-3.8776,-3.9714,-3.9659,-3.9697,-3.9697,-3.9697,-3.9697,-3.9697,-3.9697,-3.9697,-3.9697,-3.9697,-3.9697,-3.9697,-3.9697,-3.9697,-3.9669,-3.9673,-3.4679,-3.1475,-3.3204,-3.2857,-3.2074,-3.0986,-3.0889,-3.0889,-3.0889,-3.0889,-3.0889,-3.0889,-3.0889,-3.0889,-3.0889,-3.0889,-3.0889,-3.0889,-3.0889,-3.0889,-3.0889,-3.0889,-3.0889,-3.0889,-3.0889,-3.0889,-1.9411,-2.1988,-2.3745,-2.3066,-2.4263,-2.4685,-2.1183,-2.0781,-2.0642,-1.8998,0.0,-2.059,-2.1596,-2.4055,-2.7378,-3.186,0.0,-3.9278,-4.3597,-4.6277,-4.8477,-5.0405,-5.0093,-5.0707,-5.3129,-5.2394,-5.1867,-5.2065,-5.0925,-5.0323,-5.0648,-5.1385,-5.1733,-5.1636,-5.2255,-5.2045,-5.096,-5.1528,-5.1229,-5.0092,-4.9449,-4.8835,-4.8267,-4.7608,-4.6666,-4.5618,-4.68,0.0,-4.5565,-4.5595,-4.5689,-4.5403,-4.3026,-4.1985,-4.169,-4.0376,-3.9777,-3.9572,-3.9496,-3.9521,-3.9408,-3.8354,-3.8391,-3.8668,-3.7821,-3.845,-3.9525,-3.9689,-3.974,-3.9741,-3.9725,-3.9697,-3.9697,-3.9697,-3.9697,-3.9697,-3.9697,-3.9697,-3.9697,-3.9697,-3.9697,-3.9697,-3.9697,-3.9697,-3.9744,-3.9749,-3.4728,-3.0923,-3.086,-3.0897,-3.0908,-3.085,-3.0889,-3.0889,-3.0889,-3.0889,-3.0889,-3.0889,-3.0889,-3.0889,-3.0889,-3.0889,-3.0889,-3.0889,-3.0889,-3.0889,-3.0889,-3.0889,-3.0889,-3.0889,-3.0889,-3.0889,-2.1308,-2.3178,-2.45,-2.5418,-2.5469,-2.4844,-2.3263,-2.1435,0.0,0.0,0.0,-1.8955,-2.0335,-2.3285,0.0,-3.3175,0.0,0.0,0.0,0.0,-4.7124,0.0,0.0,0.0,0.0,0.0,0.0,0.0,0.0,-5.2171,-5.0526,-5.1125,-5.1295,-5.101,-5.1064,-5.0651,-4.9598,-4.9718,-4.9658,-4.9434,-4.8775,-4.8401,-4.8267,-4.7608,-4.7174,-4.698,-4.7204,0.0,-4.6965,-4.6929,-4.6931,-4.6829,-4.5298,-4.4069,-4.2972,-4.1258,-3.9947,-3.8944,-3.8467,-3.8617,-3.8894,-3.8228,-3.8391,-3.8668,-3.7821,-3.7828,-3.8504,-3.9399,-3.9702,-3.9725,-3.9685,-3.9697,-3.9697,-3.9697,-3.9697,-3.9697,-3.9697,-3.9697,-3.9697,-3.9697,-3.9697,-3.9697,-3.9697,-3.9697,-3.9722,-3.9706,-3.473,-3.0911,-3.0882,-3.0883,-3.0917,-3.0879,-3.0889,-3.0889,-3.0889,-3.0889,-3.0889,-3.0889,-3.0889,-3.0889,-3.0889,-3.0889,-3.0889,-3.0889,-3.0889,-3.0889,-3.0889,-3.0889,-3.0889,-3.0889,-3.0889,-3.0889,-2.259,-2.456,-2.6125,-2.6555,-2.6249,-2.5017,-2.1731,0.0,0.0,0.0,0.0,-1.6924,-1.892,0.0,0.0,0.0,0.0,0.0,0.0,0.0,0.0,0.0,0.0,0.0,0.0,0.0,0.0,0.0,0.0,-5.2202,-5.1993,-5.2153,-5.2304,-5.2429,-5.1414,-5.0543,-5.0068,-4.9598,-4.909,-4.876,-4.8431,-4.8102,-4.7758,-4.7459,-4.7309,-4.7309,-4.7309,0.0,-4.6307,-4.701,-4.6515,-4.5171,-4.4305,-4.3416,-4.2283,-4.0494,-3.9624,-3.922,-3.8655,-3.8642,-3.8781,-3.8203,-3.8391,-3.8605,-3.7333,-3.7405,-3.8115,-3.8667,-3.9221,-3.9697,-3.9697,-3.9697,-3.9697,-3.9697,-3.9697,-3.9697,-3.9697,-3.9697,-3.9697,-3.9697,-3.9697,-3.9697,-3.9697,-3.9697,-3.9681,-3.9723,-3.6029,-3.2685,-3.1147,-3.0938,-3.0889,-3.0889,-3.0889,-3.0889,-3.0889,-3.0889,-3.0889,-3.0889,-3.0889,-3.0889,-3.0889,-3.0889,-3.0889,-3.0889,-3.0889,-3.0889,-3.0889,-3.0889,-3.0889,-3.0889,-3.0889,-3.0889,-2.3206,-2.5274,-2.6946,-2.7029,-2.6678,-2.4937,-2.0279,-1.8491,0.0,0.0,-1.4098,-1.5305,-1.7945,0.0,0.0,0.0,0.0,0.0,0.0,0.0,0.0,0.0,0.0,0.0,0.0,0.0,0.0,0.0,0.0,0.0,-5.3433,-5.3178,-5.3098,-5.3252,-5.1612,-5.0505,-5.0027,-4.9249,-4.8596,-4.8072,-4.8072,-4.7803,-4.7309,-4.7309,-4.7309,-4.7309,-4.7309,0.0,0.0,-4.6636,-4.5592,-4.2984,-4.3082,-4.2507,-4.1426,-3.9684,-3.9247,-3.927,-3.8831,-3.8693,-3.8617,-3.8153,-3.8316,-3.8417,-3.6973,-3.7144,-3.789,-3.7991,-3.8818,-3.9697,-3.9697,-3.9697,-3.9697,-3.9697,-3.9697,-3.9697,-3.9697,-3.9697,-3.9697,-3.9697,-3.9697,-3.9697,-3.9697,-3.9697,-3.9719,-3.9687,-3.7188,-3.4207,-3.1248,-3.0892,-3.0889,-3.0889,-3.0889,-3.0889,-3.0889,-3.0889,-3.0889,-3.0889,-3.0889,-3.0889,-3.0889,-3.0889,-3.0889,-3.0889,-3.0889,-3.0889,-3.0889,-3.0889,-3.0889,-3.0889,-3.0889,-3.0889,-2.3081,-2.4226,-2.5097,-2.6947,-2.6299,-2.4504,-2.1699,0.0,0.0,-1.3861,-1.3675,-1.4862,-1.8002,0.0,0.0,0.0,0.0,-3.1782,0.0,0.0,0.0,0.0,0.0,0.0,0.0,0.0,0.0,0.0,0.0,0.0,-5.345,-5.3484,-5.262,-5.082,-5.0512,-4.9515,-4.7632,-4.756,-4.7459,-4.7399,-4.7399,-4.7369,-4.7309,-4.7309,-4.7309,-4.7309,-4.7309,0.0,0.0,-4.6262,-4.5061,-4.1764,-4.3659,-4.3245,-4.1459,-4.0241,-3.913,-3.8153,-3.8103,-3.809,-3.8078,-3.8027,-3.804,-3.7965,-3.7312,-3.7283,-3.7577,-3.7867,-3.8818,-3.9697,-3.9697,-3.9697,-3.9697,-3.9697,-3.9697,-3.9697,-3.9697,-3.9697,-3.9697,-3.9697,-3.9697,-3.9697,-3.9697,-3.9697,-3.971,-3.9644,-3.7192,-3.4197,-3.1275,-3.0933,-3.0889,-3.0889,-3.0889,-3.0889,-3.0889,-3.0889,-3.0889,-3.0889,-3.0889,-3.0889,-3.0889,-3.0889,-3.0889,-3.0889,-3.0889,-3.0889,-3.0889,-3.0889,-3.0889,-3.0889,-3.0889,-3.0889,-2.2348,-2.4607,-2.65,-2.787,-2.7267,-2.5233,-2.1547,0.0,0.0,-1.3177,-1.3037,-1.431,-1.697,0.0,0.0,0.0,0.0,0.0,0.0,0.0,0.0,0.0,0.0,0.0,0.0,0.0,0.0,0.0,0.0,0.0,-5.2706,-5.3247,-5.28,-5.132,-5.0719,-4.9694,-4.8225,-4.7609,-4.7309,-4.7309,-4.7309,-4.7309,-4.7309,-4.7309,-4.7309,-4.7309,-4.7309,0.0,0.0,-4.5454,-4.3507,-3.8838,-4.1334,-4.1123,-3.9325,-3.8531,-3.8176,-3.8002,-3.8002,-3.7789,-3.7563,-3.7902,-3.7789,-3.7475,-3.7249,-3.7007,-3.6973,-3.7748,-3.8829,-3.9702,-3.9702,-3.9649,-3.9697,-3.9697,-3.9697,-3.9697,-3.9697,-3.9697,-3.9697,-3.9697,-3.9697,-3.9697,-3.9697,-3.9697,-3.9694,-3.968,-3.7237,-3.4284,-3.1248,-3.0843,-3.0889,-3.0889,-3.0889,-3.0889,-3.0889,-3.0889,-3.0889,-3.0889,-3.0889,-3.0889,-3.0889,-3.0889,-3.0889,-3.0889,-3.0889,-3.0889,-3.0889,-3.0889,-3.0889,-3.0889,-3.0889,-3.0889,-2.1438,-2.4291,-2.6975,-2.8575,-2.7525,-2.516,0.0,0.0,0.0,-1.2347,-1.2505,-1.3943,-1.6055,-1.8174,-2.0798,-2.4471,0.0,-2.8575,0.0,0.0,0.0,0.0,0.0,0.0,0.0,0.0,0.0,0.0,0.0,0.0,-5.1799,-5.2605,-5.2557,-5.1467,-5.0458,-4.9376,-4.8377,-4.7694,-4.7309,-4.7309,-4.7309,-4.689,-4.6172,-4.6756,-4.6591,-4.5888,-4.6681,0.0,0.0,-4.496,-4.2658,-3.7277,-3.9784,-3.9681,-3.7939,-3.7387,-3.7425,-3.7789,-3.7952,-3.7651,-3.7274,-3.7826,-3.7638,-3.7186,-3.7186,-3.7089,-3.692,-3.7396,-3.8624,-3.9715,-3.9715,-3.9651,-3.9697,-3.9697,-3.9697,-3.9697,-3.9697,-3.9697,-3.9697,-3.9697,-3.9697,-3.9735,-3.9678,-3.9703,-3.9668,-3.975,-3.6449,-3.32,-3.1144,-3.0952,-3.0889,-3.0889,-3.0889,-3.0889,-3.0889,-3.0889,-3.0889,-3.0889,-3.0889,-3.0889,-3.0889,-3.0889,-3.0889,-3.0889,-3.0889,-3.0889,-3.0889,-3.0889,-3.0889,-3.0889,-3.0889,-3.0889,-2.0224,-2.2865,-2.5551,-2.8457,-2.6785,-2.3725,0.0,0.0,0.0,-1.1405,-1.2167,-1.3797,-1.5502,-1.7241,-1.9704,-2.3658,-2.5914,0.0,0.0,0.0,0.0,0.0,0.0,0.0,0.0,0.0,0.0,0.0,0.0,0.0,-5.0855,-5.1526,-5.1467,-5.049,-4.9376,-4.8293,-4.7309,-4.7309,-4.7309,-4.7309,-4.7309,-4.5948,-4.3494,-4.5439,-4.49,0.0,0.0,0.0,0.0,-4.496,-4.2934,-3.7893,-3.9963,-3.9681,-3.7939,-3.7387,-3.7186,-3.7274,-3.7814,-3.7651,-3.7274,-3.7826,-3.7638,-3.7186,-3.7186,-3.7563,-3.7741,-3.6686,-3.799,-3.9715,-3.9715,-3.9651,-3.9697,-3.9697,-3.9697,-3.9697,-3.9697,-3.9697,-3.9697,-3.9697,-3.9697,-3.9744,-3.9705,-3.9685,-3.9655,-3.9746,-3.4712,-3.0887,-3.0887,-3.0952,-3.0889,-3.0889,-3.0889,-3.0889,-3.0889,-3.0889,-3.0889,-3.0889,-3.0889,-3.0889,-3.0889,-3.0889,-3.0889,-3.0889,-3.0889,-3.0889,-3.0889,-3.0889,-3.0889,-3.0889,-3.0889,-3.0889,-1.7802,-2.0062,-2.2343,-2.3851,-2.2457,-2.0371,-1.881,0.0,0.0,-1.1617,-1.2138,-1.3263,-1.4259,-1.5476,-1.7953,-2.2943,-2.4511,0.0,0.0,0.0,0.0,0.0,0.0,0.0,0.0,0.0,0.0,0.0,0.0,0.0,-4.9766,-4.9767,-4.9599,-4.9296,-4.8988,-4.8293,-4.7309,-4.686,-4.6636,-4.6636,-4.6157,-4.4556,-4.2102,-4.4511,-4.4182,0.0,0.0,0.0,0.0,-4.3084,-4.1181,-3.729,-3.8472,-3.8148,-3.686,-3.6684,-3.6621,-3.6697,-3.7249,-3.7086,-3.6709,-3.7262,-3.7073,-3.6621,-3.6621,-3.6734,-3.6872,-3.6475,-3.692,-3.7789,-3.9354,-3.9714,-3.9664,-3.9664,-3.9739,-3.9697,-3.9697,-3.9697,-3.9697,-3.9697,-3.9697,-3.9747,-3.969,-3.6403,-3.3645,-3.3715,-3.2054,-3.0883,-3.0866,-3.0917,-3.0889,-3.0889,-3.0889,-3.0889,-3.0889,-3.0889,-3.0889,-3.0889,-3.0889,-3.0889,-3.0889,-3.0889,-3.0889,-3.0889,-3.0889,-3.0889,-3.0889,-3.0889,-3.0889,-3.0889,-3.0889,-3.0889,0.0,-1.8325,-2.0285,-2.1331,-2.0053,0.0,0.0,0.0,0.0,0.0,-1.2844,-1.4181,-1.4165,-1.5687,-1.7985,-2.1246,-2.362,0.0,0.0,0.0,0.0,0.0,0.0,0.0,0.0,0.0,0.0,0.0,0.0,0.0,-4.8861,-4.8373,-4.7905,-4.7528,-4.795,-4.7782,-4.6935,-4.6531,-4.6187,-4.5933,-4.5499,-4.3913,-4.1459,-4.3838,-4.3494,0.0,0.0,0.0,0.0,-4.2916,-4.1208,-3.8045,-3.856,-3.7769,-3.6358,-3.6358,-3.6358,-3.6408,-3.6759,-3.6646,-3.642,-3.6759,-3.6634,-3.6358,-3.6358,-3.6358,-3.6408,-3.6418,-3.6376,-3.6674,-3.8063,-3.8442,-3.8705,-3.9487,-3.9649,-3.9697,-3.9697,-3.9697,-3.9697,-3.9697,-3.9697,-3.9644,-3.9728,-3.6638,-3.3419,-3.1246,-3.0932,-3.0943,-3.0946,-3.0889,-3.0889,-3.0889,-3.0889,-3.0889,-3.0889,-3.0889,-3.0889,-3.0889,-3.0889,-3.0889,-3.0889,-3.0889,-3.0889,-3.0889,-3.0889,-3.0889,-3.0889,-3.0889,-3.0889,-3.0889,-3.0889,-3.0889,0.0,0.0,0.0,0.0,0.0,0.0,0.0,0.0,0.0,0.0,0.0,-1.6202,-1.5185,-1.7437,-1.9405,-1.9199,-2.3317,0.0,0.0,0.0,0.0,0.0,0.0,0.0,0.0,0.0,0.0,0.0,0.0,0.0,-4.8105,-4.7261,-4.6352,-4.5289,-4.6516,-4.6875,-4.6247,-4.6202,-4.5798,-4.502,-4.511,-4.3703,-4.11,-4.3269,-4.2806,0.0,0.0,0.0,0.0,-4.3826,-4.24,-3.9899,-3.9724,-3.8315,-3.6358,-3.6358,-3.6332,-3.6307,-3.6358,-3.6307,-3.6245,-3.6245,-3.627,-3.6307,-3.6307,-3.6332,-3.6358,-3.6358,-3.6393,-3.6403,-3.6419,-3.6502,-3.7176,-3.9243,-3.9737,-3.9659,-3.9685,-3.9697,-3.9697,-3.9697,-3.9697,-3.9744,-3.9668,-3.9709,-3.7856,-3.2342,-3.1194,-3.0859,-3.0946,-3.0889,-3.0889,-3.0889,-3.0889,-3.0889,-3.0889,-3.0889,-3.0889,-3.0889,-3.0889,-3.0889,-3.0889,-3.0889,-3.0889,-3.0889,-3.0889,-3.0889,-3.0889,-3.0889,-3.0889,-3.0889,-3.0889,-3.0889,-1.3171,0.0,-1.3919,-1.3864,-1.325,0.0,0.0,0.0,0.0,0.0,0.0,-1.6564,-1.6806,-1.8238,-1.9855,-2.1341,-2.3497,-2.5938,0.0,0.0,0.0,0.0,0.0,0.0,0.0,0.0,0.0,0.0,0.0,-4.7125,-4.6081,-4.5834,-4.5604,-4.5289,-4.5603,-4.5693,-4.5544,-4.5035,-4.3943,-4.2312,-4.3314,-4.1639,-3.7778,-4.1758,-4.2132,0.0,0.0,0.0,-4.317,-4.1607,-4.0544,-3.9724,-3.7952,-3.6896,-3.6358,-3.6358,-3.6094,-3.5805,-3.6219,-3.5805,-3.5115,-3.5115,-3.5391,-3.573,-3.573,-3.6031,-3.6358,-3.6358,-3.642,-3.6401,-3.638,-3.7653,-3.9069,-3.962,-3.9739,-3.969,-3.9737,-3.9697,-3.9697,-3.9697,-3.9697,-3.9735,-3.9744,-3.9677,-3.9224,-3.7839,-3.3827,-3.0888,-3.0879,-3.0889,-3.0889,-3.0889,-3.0889,-3.0889,-3.0889,-3.0889,-3.0889,-3.0889,-3.0889,-3.0889,-3.0889,-3.0889,-3.0889,-3.0889,-3.0889,-3.0889,-3.0889,-3.0889,-3.0889,-3.0889,-3.0889,-3.0889,-1.3064,-1.2891,-1.2935,-1.4117,-1.3263,-1.2535,0.0,0.0,0.0,0.0,0.0,0.0,-1.7838,-1.8511,0.0,0.0,-2.3307,0.0,0.0,0.0,0.0,0.0,0.0,0.0,0.0,0.0,0.0,0.0,0.0,-4.6287,-4.5133,-4.4619,-4.4392,-4.4392,-4.4392,-4.4541,-4.484,-4.4496,-4.318,-4.095,-4.2566,-4.1564,-3.8392,-4.1788,-4.2402,0.0,0.0,0.0,-4.1873,-3.9733,-3.8962,-3.8917,-3.7678,-3.6896,-3.6358,-3.6358,-3.6169,-3.5968,-3.6257,-3.5968,-3.5479,-3.5479,-3.568,-3.5918,-3.5918,-3.6119,-3.6358,-3.6358,-3.6358,-3.6395,-3.6356,-3.7278,-3.8201,-3.8203,-3.8969,-3.9702,-3.9725,-3.9697,-3.9697,-3.9697,-3.9697,-3.9697,-3.9697,-3.973,-3.8838,-3.6029,-3.2896,-3.0878,-3.0956,-3.0889,-3.0889,-3.0889,-3.0889,-3.0889,-3.0889,-3.0889,-3.0889,-3.0889,-3.0889,-3.0889,-3.0889,-3.0889,-3.0889,-3.0889,-3.0889,-3.0889,-3.0889,-3.0889,-3.0889,-3.0889,-3.0889,-3.0889,-1.4264,-1.4245,-1.4629,-1.7096,-1.5558,-1.4139,0.0,0.0,0.0,0.0,0.0,0.0,0.0,0.0,0.0,0.0,0.0,0.0,0.0,0.0,0.0,0.0,0.0,0.0,0.0,0.0,0.0,0.0,0.0,-4.5561,-4.4586,-4.3771,-4.3329,-4.3329,-4.3329,-4.3599,-4.4152,-4.4167,-4.2895,-4.0427,-4.2387,-4.2297,-4.0457,-4.2342,-4.288,-4.2267,0.0,0.0,-4.0297,-3.8375,-3.7648,-3.7844,-3.7676,-3.7037,-3.6219,-3.6144,-3.6107,-3.6081,-3.5918,-3.5968,-3.6094,-3.6006,-3.6107,-3.6232,-3.6232,-3.6295,-3.6358,-3.6358,-3.6358,-3.642,-3.6422,-3.64,-3.6356,-3.6366,-3.8128,-3.9728,-3.9649,-3.9659,-3.9697,-3.9697,-3.9697,-3.9697,-3.9697,-3.9656,-3.7992,-3.3007,-3.1436,-3.0852,-3.0897,-3.0889,-3.0889,-3.0889,-3.0889,-3.0889,-3.0889,-3.0889,-3.0889,-3.0889,-3.0889,-3.0889,-3.0889,-3.0889,-3.0889,-3.0889,-3.0889,-3.0889,-3.0889,-3.0889,-3.0889,-3.0889,-3.0889,-3.0889,-1.6237,-1.7536,-1.8677,-1.79,-1.5905,-1.4845,0.0,0.0,0.0,0.0,0.0,0.0,0.0,0.0,0.0,0.0,0.0,0.0,0.0,0.0,0.0,0.0,0.0,0.0,0.0,0.0,0.0,0.0,0.0,-4.4586,-4.3551,-4.3409,-4.3329,-4.3329,-4.3329,-4.3389,-4.3479,-4.3479,-4.2447,-4.0427,-4.2387,-4.2297,-4.0442,-4.1863,-4.2462,-4.2312,0.0,-3.9836,-3.975,-3.7564,-3.6756,-3.6656,-3.5647,-3.5423,-3.5617,-3.5152,-3.4977,-3.4839,-3.3897,-3.4186,-3.4901,-3.4424,-3.4914,-3.5667,-3.5667,-3.5994,-3.6358,-3.6358,-3.6358,-3.637,-3.642,-3.6433,-3.6438,-3.6428,-3.8111,-3.9684,-3.9715,-3.9701,-3.9697,-3.9697,-3.9697,-3.9697,-3.9697,-3.9735,-3.9352,-3.8523,-3.4137,-3.0863,-3.0937,-3.0889,-3.0889,-3.0889,-3.0889,-3.0889,-3.0889,-3.0889,-3.0889,-3.0889,-3.0889,-3.0889,-3.0889,-3.0889,-3.0889,-3.0889,-3.0889,-3.0889,-3.0889,-3.0889,-3.0889,-3.0889,-3.0889,-3.0889,-1.7685,-1.8882,-2.0211,-2.1584,-1.9556,0.0,0.0,0.0,0.0,0.0,0.0,0.0,0.0,0.0,0.0,0.0,0.0,0.0,0.0,0.0,0.0,0.0,0.0,0.0,0.0,0.0,0.0,0.0,0.0,0.0,-4.2884,-4.2806,-4.2806,-4.2806,-4.2806,-4.2641,-4.2282,-4.2282,-4.1459,-3.9888,-4.1504,-4.1235,-3.9364,-4.048,-4.0793,-4.0319,0.0,-3.7051,-3.7318,-3.5219,-3.4849,-3.5467,-3.4881,-3.4876,-3.5064,-3.4813,-3.4914,-3.5052,-3.4248,-3.45,-3.5127,-3.4864,-3.5328,-3.5994,-3.5994,-3.6157,-3.6358,-3.6358,-3.6358,-3.6358,-3.6358,-3.6358,-3.6445,-3.6388,-3.7202,-3.8273,-3.9385,-3.9728,-3.9689,-3.9659,-3.9697,-3.9697,-3.9697,-3.968,-3.9655,-3.9746,-3.4723,-3.0943,-3.0946,-3.0889,-3.0889,-3.0889,-3.0889,-3.0889,-3.0889,-3.0889,-3.0889,-3.0889,-3.0889,-3.0889,-3.0889,-3.0889,-3.0889,-3.0889,-3.0889,-3.0889,-3.0889,-3.0889,-3.0889,-3.0889,-3.0889,-3.0889,-1.9008,-1.9947,-2.1344,-2.4698,0.0,0.0,0.0,0.0,0.0,0.0,0.0,0.0,0.0,0.0,0.0,0.0,0.0,0.0,0.0,0.0,0.0,0.0,0.0,0.0,0.0,0.0,0.0,0.0,0.0,0.0,-4.2209,-4.2132,-4.2132,-4.2132,-4.2132,-4.1893,-4.1384,-4.1235,-4.0726,-3.9888,-4.0905,-4.0576,-3.9125,-3.9448,-3.9318,-3.8601,-3.569,-3.4727,-3.5134,-3.3411,-3.3347,-3.4336,-3.4336,-3.4336,-3.4349,-3.4487,-3.4713,-3.4901,-3.4487,-3.47,-3.519,-3.5303,-3.5717,-3.6194,-3.632,-3.6358,-3.6358,-3.6358,-3.6358,-3.6358,-3.6358,-3.6358,-3.642,-3.6385,-3.6413,-3.681,-3.8592,-3.9297,-3.9702,-3.9737,-3.9697,-3.9697,-3.9697,-3.968,-3.9258,-3.786,-3.377,-3.0943,-3.0946,-3.0889,-3.0889,-3.0889,-3.0889,-3.0889,-3.0889,-3.0889,-3.0889,-3.0889,-3.0889,-3.0889,-3.0889,-3.0889,-3.0889,-3.0889,-3.0889,-3.0889,-3.0889,-3.0889,-3.0889,-3.0889,-3.0889,-3.0889,-2.0388,-2.1586,-2.2972,-2.4987,0.0,0.0,0.0,0.0,0.0,0.0,0.0,0.0,0.0,0.0,0.0,0.0,0.0,0.0,0.0,0.0,0.0,0.0,0.0,0.0,0.0,0.0,0.0,0.0,0.0,0.0,-4.1489,-4.1444,-4.1444,-4.1444,-4.1444,-4.1429,-4.1384,-4.0771,-4.0726,-4.125,-4.1324,-4.1309,-4.1145,-3.9609,-3.8822,-3.8658,-3.5858,-3.4693,-3.4634,-3.3564,-3.3129,-3.3194,-3.3194,-3.3194,-3.3257,-3.3771,-3.3658,-3.3257,-3.3206,-3.3558,-3.411,-3.4613,-3.5152,-3.5705,-3.6207,-3.6358,-3.6358,-3.6358,-3.6358,-3.6358,-3.6358,-3.6358,-3.637,-3.6395,-3.6443,-3.649,-3.6616,-3.8291,-3.9702,-3.9737,-3.9697,-3.9697,-3.9697,-3.968,-3.7869,-3.2332,-3.1126,-3.0943,-3.0946,-3.0889,-3.0889,-3.0889,-3.0889,-3.0889,-3.0889,-3.0889,-3.0889,-3.0889,-3.0889,-3.0889,-3.0889,-3.0889,-3.0889,-3.0889,-3.0889,-3.0889,-3.0889,-3.0889,-3.0889,-3.0889,-3.0889,-3.0889,-2.1148,-2.2319,-2.3741,-2.5697,0.0,0.0,0.0,0.0,0.0,0.0,0.0,0.0,0.0,0.0,0.0,0.0,0.0,0.0,0.0,0.0,0.0,0.0,0.0,0.0,0.0,0.0,0.0,0.0,0.0,0.0,-4.0801,-4.0771,-4.0771,-4.0771,-4.0771,-4.0576,-4.0172,-3.9484,-3.9275,-3.9529,-3.9313,-3.8984,-3.8589,-3.6584,-3.5497,-3.509,-3.3744,-3.3162,-3.3117,-3.3089,-3.3081,-3.3081,-3.3081,-3.3282,-3.3571,-3.3432,-3.347,-3.3533,-3.3194,-3.3432,-3.3985,-3.455,-3.509,-3.5642,-3.6194,-3.6358,-3.6358,-3.6358,-3.6358,-3.6358,-3.6358,-3.6358,-3.6358,-3.6358,-3.6363,-3.6443,-3.6393,-3.8114,-3.9699,-3.9728,-3.9649,-3.9694,-3.968,-3.9738,-3.7754,-3.1818,-3.0913,-3.0925,-3.0869,-3.0889,-3.0889,-3.0889,-3.0889,-3.0889,-3.0889,-3.0889,-3.0889,-3.0889,-3.0889,-3.0889,-3.0889,-3.0889,-3.0889,-3.0889,-3.0889,-3.0889,-3.0889,-3.0889,-3.0889,-3.0889,-3.0889,-3.0889,-2.0936,-2.1781,-2.2937,0.0,0.0,0.0,0.0,0.0,0.0,0.0,0.0,0.0,0.0,0.0,0.0,0.0,0.0,0.0,0.0,0.0,0.0,0.0,0.0,0.0,0.0,0.0,0.0,0.0,0.0,0.0,0.0,-4.0083,-4.0083,-4.0083,-4.0083,-3.9768,-3.9095,-3.8631,-3.8132,-3.7627,-3.7008,-3.6682,-3.6576,-3.4498,-3.337,-3.2975,-3.2447,-3.2114,-3.2014,-3.2767,-3.3081,-3.3081,-3.3081,-3.3307,-3.3596,-3.3219,-3.3319,-3.3583,-3.3206,-3.3319,-3.3759,-3.4487,-3.4977,-3.5416,-3.6144,-3.6358,-3.6358,-3.6358,-3.6358,-3.6358,-3.6358,-3.6358,-3.6358,-3.6358,-3.6445,-3.6418,-3.6356,-3.7567,-3.8818,-3.9538,-3.9659,-3.9723,-3.9742,-3.8153,-3.5603,-3.1451,-3.0942,-3.0889,-3.0889,-3.0889,-3.0889,-3.0889,-3.0889,-3.0889,-3.0889,-3.0889,-3.0889,-3.0889,-3.0889,-3.0889,-3.0889,-3.0889,-3.0889,-3.0889,-3.0889,-3.0889,-3.0889,-3.0889,-3.0889,-3.0889,-3.0889,-3.0889,-1.9777,-1.9929,0.0,0.0,0.0,0.0,0.0,0.0,0.0,0.0,0.0,0.0,0.0,0.0,0.0,0.0,0.0,0.0,0.0,0.0,0.0,0.0,0.0,0.0,0.0,0.0,0.0,0.0,0.0,0.0,0.0,-3.9409,-3.9394,-3.9394,-3.9394,-3.9065,-3.8392,-3.8377,-3.7582,-3.5971,-3.491,-3.491,-3.5899,-3.39,-3.3013,-3.2961,-3.2434,-3.1888,-3.1461,-3.2604,-3.3056,-3.3056,-3.3056,-3.3056,-3.3056,-3.3068,-3.3068,-3.3068,-3.3081,-3.3081,-3.3257,-3.4361,-3.4713,-3.4914,-3.6019,-3.6345,-3.6345,-3.6358,-3.6358,-3.6358,-3.6358,-3.6358,-3.6358,-3.6358,-3.6418,-3.6368,-3.6407,-3.6439,-3.7124,-3.924,-3.9668,-3.9685,-3.9672,-3.4737,-3.0877,-3.0887,-3.0942,-3.0889,-3.0889,-3.0889,-3.0889,-3.0889,-3.0889,-3.0889,-3.0889,-3.0889,-3.0889,-3.0889,-3.0889,-3.0889,-3.0889,-3.0889,-3.0889,-3.0889,-3.0889,-3.0889,-3.0889,-3.0889,-3.0889,-3.0889,-3.0889,-3.0889,-2.2207,-2.2104,0.0,0.0,0.0,0.0,0.0,0.0,0.0,0.0,0.0,0.0,0.0,0.0,0.0,0.0,0.0,0.0,0.0,0.0,0.0,0.0,0.0,0.0,0.0,0.0,0.0,0.0,0.0,0.0,0.0,-3.8257,-3.8003,-3.8003,-3.8003,-3.7913,-3.7704,-3.727,-3.6487,-3.5307,-3.3844,-3.3221,-3.3288,-3.1889,-3.1083,-3.0751,-3.1006,-3.0997,-3.0896,-3.1599,-3.1888,-3.1888,-3.1888,-3.1888,-3.1938,-3.2328,-3.2466,-3.2528,-3.293,-3.3081,-3.3194,-3.3909,-3.4148,-3.4274,-3.4989,-3.5203,-3.529,-3.568,-3.5793,-3.5868,-3.6257,-3.6358,-3.6358,-3.6358,-3.6433,-3.6867,-3.8434,-3.871,-3.893,-3.9538,-3.9659,-3.836,-3.4281,-3.2112,-3.0862,-3.0942,-3.0917,-3.0889,-3.0889,-3.0889,-3.0889,-3.0889,-3.0889,-3.0889,-3.0889,-3.0889,-3.0889,-3.0889,-3.0889,-3.0889,-3.0889,-3.0889,-3.0889,-3.0889,-3.0889,-3.0889,-3.0889,-3.0889,-3.0889,-3.0889,-3.0889,-3.0889,-2.1821,0.0,0.0,0.0,0.0,0.0,0.0,0.0,0.0,0.0,0.0,0.0,0.0,0.0,0.0,0.0,0.0,0.0,0.0,0.0,0.0,0.0,0.0,0.0,0.0,0.0,0.0,0.0,0.0,0.0,0.0,-3.7629,-3.7404,-3.7404,-3.7404,-3.7285,-3.7045,-3.6671,-3.5678,-3.4002,-3.3057,-3.209,-3.1228,-3.0582,-3.0105,-2.9817,-3.0143,-3.0532,-3.0934,-3.1035,-3.1198,-3.1386,-3.1386,-3.1386,-3.1436,-3.1763,-3.1888,-3.1964,-3.2541,-3.2729,-3.2867,-3.3646,-3.3897,-3.401,-3.4562,-3.4726,-3.4839,-3.5391,-3.5542,-3.5667,-3.6219,-3.6358,-3.6358,-3.6358,-3.6363,-3.6759,-3.8095,-3.912,-3.9725,-3.9728,-3.9728,-3.8526,-3.5013,-3.2413,-3.0957,-3.0927,-3.0889,-3.0889,-3.0889,-3.0889,-3.0889,-3.0889,-3.0889,-3.0889,-3.0889,-3.0889,-3.0889,-3.0889,-3.0889,-3.0889,-3.0889,-3.0889,-3.0889,-3.0889,-3.0889,-3.0889,-3.0889,-3.0889,-3.0889,-3.0889,-3.0889,-3.0889,0.0,0.0,0.0,0.0,0.0,0.0,0.0,0.0,0.0,0.0,0.0,0.0,0.0,0.0,0.0,0.0,0.0,0.0,0.0,0.0,0.0,0.0,0.0,0.0,0.0,0.0,0.0,0.0,0.0,0.0,0.0,-3.7187,-3.7157,-3.724,-3.7157,-3.6888,-3.6402,-3.632,-3.5059,-3.2593,-3.2536,-3.1549,-2.9792,-2.9792,-2.9792,-2.9792,-2.9792,-3.0344,-3.121,-3.0733,-3.0821,-3.1248,-3.1248,-3.1248,-3.1248,-3.1298,-3.1323,-3.1399,-3.1951,-3.2139,-3.2315,-3.3395,-3.3746,-3.3847,-3.4399,-3.4575,-3.4688,-3.524,-3.5429,-3.5592,-3.6144,-3.632,-3.6358,-3.6358,-3.6405,-3.6438,-3.6366,-3.7977,-3.9462,-3.9656,-3.9316,-3.8919,-3.8883,-3.4493,-3.084,-3.0889,-3.0889,-3.0889,-3.0889,-3.0889,-3.0889,-3.0889,-3.0889,-3.0889,-3.0889,-3.0889,-3.0889,-3.0889,-3.0889,-3.0889,-3.0889,-3.0889,-3.0889,-3.0889,-3.0889,-3.0889,-3.0889,-3.0889,-3.0889,-3.0889,-3.0889,-3.0889,0.0,0.0,0.0,0.0,0.0,0.0,0.0,0.0,0.0,0.0,0.0,0.0,0.0,0.0,0.0,0.0,0.0,0.0,0.0,0.0,0.0,0.0,0.0,0.0,0.0,0.0,0.0,0.0,0.0,0.0,-3.6686,-3.5433,-3.5087,-3.5908,-3.5154,-3.5028,-3.5714,-3.4963,-3.3882,0.0,-3.1815,-3.0908,-2.9792,-2.9792,-2.9792,-2.9792,-2.9792,-2.993,-3.0131,-3.0018,-3.003,-3.0131,-3.0131,-3.0131,-3.0193,-3.062,-3.0783,-3.0859,-3.1386,-3.1574,-3.1675,-3.2353,-3.2579,-3.2692,-3.3257,-3.3432,-3.3545,-3.4098,-3.4562,-3.5027,-3.5579,-3.6044,-3.6358,-3.6358,-3.642,-3.6438,-3.6413,-3.6736,-3.7653,-3.9411,-3.5989,-3.2801,-3.2774,-3.1748,-3.0928,-3.0946,-3.0889,-3.0889,-3.0889,-3.0889,-3.0889,-3.0889,-3.0889,-3.0889,-3.0889,-3.0889,-3.0889,-3.0889,-3.0889,-3.0889,-3.0889,-3.0889,-3.0889,-3.0889,-3.0889,-3.0889,-3.0889,-3.0889,-3.0889,-3.0889,-3.0889,-3.0889,0.0,0.0,0.0,0.0,0.0,0.0,0.0,0.0,0.0,0.0,0.0,0.0,0.0,0.0,0.0,0.0,0.0,0.0,0.0,0.0,0.0,0.0,0.0,0.0,0.0,0.0,0.0,0.0,0.0,-3.6013,-3.6013,-3.5178,-3.4758,-3.4758,-3.4245,-3.4027,-3.4124,-3.3602,-3.289,-3.1888,-3.1462,-3.0696,-2.9792,-2.9792,-2.9792,-2.9792,-2.9792,-2.9792,-2.9792,-2.9792,-2.9792,-2.9792,-2.9792,-2.9792,-2.9829,-3.0118,-3.0218,-3.0294,-3.0834,-3.1022,-3.1148,-3.1951,-3.2215,-3.2328,-3.2905,-3.3081,-3.3194,-3.3746,-3.4299,-3.4851,-3.5403,-3.5956,-3.6358,-3.6358,-3.6358,-3.6408,-3.6393,-3.6363,-3.675,-3.7938,-3.6481,-3.424,-3.14,-3.0957,-3.0846,-3.0859,-3.0889,-3.0889,-3.0889,-3.0889,-3.0889,-3.0889,-3.0889,-3.0889,-3.0889,-3.0889,-3.0889,-3.0889,-3.0889,-3.0889,-3.0889,-3.0889,-3.0889,-3.0889,-3.0889,-3.0889,-3.0889,-3.0889,-3.0889,-3.0889,-3.0889,-3.0889,0.0,0.0,0.0,0.0,0.0,0.0,0.0,0.0,0.0,0.0,0.0,0.0,0.0,0.0,0.0,0.0,0.0,0.0,0.0,0.0,0.0,0.0,0.0,0.0,0.0,0.0,0.0,0.0,0.0,-3.5213,-3.5213,-3.492,-3.4476,-3.3808,-3.3602,-3.3185,-3.2441,-3.2313,-3.1812,-3.1035,-3.0992,-3.0558,-2.9792,-2.9792,-2.9792,-2.9792,-2.9792,-2.9792,-2.9792,-2.9792,-2.9792,-2.9792,-2.9792,-2.9792,-2.9792,-2.9792,-2.9792,-2.9854,-3.0319,-3.047,-3.0633,-3.1625,-3.2001,-3.2177,-3.2754,-3.3006,-3.3169,-3.3633,-3.4161,-3.4713,-3.5253,-3.5805,-3.6245,-3.6345,-3.625,-3.6048,-3.5928,-3.579,-3.5734,-3.5679,-3.7026,-3.668,-3.1706,-3.0952,-3.0937,-3.0879,-3.0889,-3.0889,-3.0889,-3.0889,-3.0889,-3.0889,-3.0889,-3.0889,-3.0889,-3.0889,-3.0889,-3.0889,-3.0889,-3.0889,-3.0889,-3.0889,-3.0889,-3.0889,-3.0889,-3.0889,-3.0889,-3.0889,-3.0889,-3.0889,-3.0889,-3.0889,0.0,0.0,0.0,0.0,0.0,0.0,0.0,0.0,0.0,0.0,0.0,0.0,0.0,0.0,0.0,0.0,0.0,0.0,0.0,0.0,0.0,0.0,0.0,0.0,0.0,0.0,0.0,0.0,-3.4177,-3.4177,-3.4177,-3.2678,-3.2105,-3.2749,-3.2033,-3.1717,-3.1889,-3.1087,-3.0612,-3.0481,-3.0125,-2.9934,-2.9792,-2.9792,-2.9792,-2.9792,-2.9792,-2.9792,-2.9792,-2.9792,-2.9792,-2.9792,-2.9792,-2.9792,-2.9792,-2.9792,-2.9792,-2.9804,-2.988,-2.9905,-3.0005,-3.0633,-3.1135,-3.1599,-3.2152,-3.2679,-3.3093,-3.3169,-3.3583,-3.4135,-3.4688,-3.524,-3.5768,-3.6257,-3.5475,-3.4545,-3.4195,-3.3375,-3.2856,-3.2835,-3.2434,-3.1835,-3.1081,-3.0869,-3.0892,-3.085,-3.0889,-3.0889,-3.0889,-3.0889,-3.0889,-3.0889,-3.0889,-3.0889,-3.0889,-3.0889,-3.0889,-3.0889,-3.0889,-3.0889,-3.0889,-3.0889,-3.0889,-3.0889,-3.0889,-3.0889,-3.0889,-3.0889,-3.0889,-3.0889,-3.0889,-3.0889,0.0,0.0,0.0,0.0,0.0,0.0,0.0,0.0,0.0,0.0,0.0,0.0,0.0,0.0,0.0,0.0,0.0,0.0,0.0,0.0,0.0,0.0,0.0,0.0,0.0,0.0,0.0,0.0,-3.3241,-3.3241,-3.3241,-3.2134,-3.1473,-3.1357,-3.0677,-3.0098,-2.9705,-2.93,-2.9096,-2.9108,-2.8935,-2.885,-2.885,-2.885,-2.9202,-2.9792,-2.9792,-2.9792,-2.9792,-2.9792,-2.9792,-2.9792,-2.9792,-2.9792,-2.9792,-2.9792,-2.9792,-2.9792,-2.9792,-2.9792,-2.988,-3.0432,-3.0972,-3.1499,-3.2051,-3.2616,-3.3081,-3.3081,-3.347,-3.3845,-3.3619,-3.3959,-3.4292,-3.4122,-3.365,-3.2932,-3.1961,-3.1717,-3.1238,-3.0255,-2.9758,-2.947,-2.9424,-3.0019,-3.0417,-3.0449,-3.0713,-3.0889,-3.0889,-3.0889,-3.0889,-3.0889,-3.0889,-3.0889,-3.0889,-3.0889,-3.0889,-3.0889,-3.0889,-3.0889,-3.0889,-3.0889,-3.0889,-3.0889,-3.0889,-3.0889,-3.0889,-3.0889,-3.0889,-3.0889,-2.9903,-2.953,0.0,0.0,0.0,0.0,0.0,0.0,0.0,0.0,0.0,0.0,0.0,0.0,0.0,0.0,0.0,0.0,0.0,0.0,0.0,0.0,0.0,0.0,0.0,0.0,0.0,0.0,0.0,0.0,-3.2249,-3.2249,-3.2249,-3.1463,-3.0739,-3.0072,-2.9425,-2.8705,-2.7896,-2.7896,-2.7896,-2.7896,-2.8034,-2.8109,-2.8109,-2.8109,-2.8561,-2.9365,-2.9365,-2.9453,-2.9566,-2.9415,-2.9528,-2.9779,-2.9628,-2.9666,-2.9792,-2.9792,-2.9792,-2.9792,-2.9792,-2.9792,-2.988,-3.0432,-3.0972,-3.1499,-3.2051,-3.2434,-3.2698,-3.2982,-3.3283,-3.3362,-3.2847,-3.309,-3.3311,-3.2519,-3.2028,-3.1531,-3.0525,-3.0263,-2.9952,-2.8579,-2.833,-2.8324,-2.8458,-2.9225,-2.9809,-3.0013,-3.0478,-3.0762,-3.0869,-3.0889,-3.0889,-3.0889,-3.0889,-3.0889,-3.0889,-3.0889,-3.0889,-3.0889,-3.0889,-3.0889,-3.0889,-3.0889,-3.0889,-3.0889,-3.0889,-3.0889,-3.0889,-3.0889,-3.0889,-3.0889,-2.9157,-2.8417,0.0,0.0,0.0,0.0,0.0,0.0,0.0,0.0,0.0,0.0,0.0,0.0,0.0,0.0,0.0,0.0,0.0,0.0,0.0,0.0,0.0,0.0,0.0,0.0,0.0,0.0,0.0,0.0,-3.1241,-3.1241,-3.1241,-2.9866,-2.8988,-2.9001,-2.8459,-2.7931,-2.7331,-2.7318,-2.7318,-2.7331,-2.7858,-2.8109,-2.8109,-2.8109,-2.8134,-2.8197,-2.8197,-2.8486,-2.8938,-2.8411,-2.8825,-2.9741,-2.9189,-2.9315,-2.9792,-2.9792,-2.9792,-2.9792,-2.9792,-2.9792,-2.988,-3.0432,-3.0972,-3.1499,-3.2051,-3.1798,-3.1589,-3.2797,-3.2644,-3.2241,-3.2568,-3.309,-3.3311,-3.2519,-3.1327,-3.0421,-3.0317,-2.9292,-2.8378,-2.8281,-2.8301,-2.8467,-2.9035,-2.9252,-2.9427,-3.0078,-3.0215,-3.0391,-3.083,-3.0889,-3.0889,-3.0889,-3.0889,-3.0889,-3.0889,-3.0889,-3.0889,-3.0889,-3.0889,-3.0889,-3.0889,-3.0889,-3.0889,-3.0889,-3.0889,-3.0889,-3.0889,-3.0889,-3.0889,-3.0889,-2.9157,-2.8417,0.0,0.0,0.0,0.0,0.0,0.0,0.0,0.0,0.0,0.0,0.0,0.0,0.0,0.0,0.0,0.0,0.0,0.0,0.0,0.0,0.0,0.0,0.0,0.0,0.0,0.0,0.0,0.0,0.0,-2.9023,-2.9678,-2.7873,-2.713,-2.7846,-2.7344,-2.6766,-2.6201,-2.6201,-2.6201,-2.6201,-2.6779,-2.7055,-2.7055,-2.7055,-2.7055,-2.7055,-2.7055,-2.7557,-2.8411,-2.8561,-2.8863,-2.9252,-2.9415,-2.918,-2.8767,-2.9534,-2.8882,-2.7799,-2.845,-2.8688,-2.8724,-2.8906,-3.0059,-3.1424,-3.1625,-3.1431,-3.15,-3.2711,-3.1985,-3.081,-3.1312,-3.1136,-3.073,-2.9902,-2.9408,-2.9006,-2.9006,-2.8591,-2.8291,-2.8291,-2.8291,-2.835,-2.8623,-2.8878,-2.9141,-2.9707,-3.0019,-3.0361,-3.083,-3.0889,-3.0889,-3.0889,-3.0889,-3.0889,-3.0889,-3.0889,-3.0889,-3.0889,-3.0889,-3.0889,-3.0889,-3.0889,-3.0889,-3.0889,-2.9893,-2.9285,-2.9285,-2.9285,-2.8792,-2.7692,-2.6114,-2.5269,0.0,0.0,0.0,0.0,0.0,0.0,0.0,0.0,0.0,0.0,0.0,0.0,0.0,0.0,0.0,0.0,0.0,0.0,0.0,0.0,0.0,0.0,0.0,0.0,0.0,0.0,0.0,0.0,0.0,0.0,-2.8888,-2.7168,-2.6327,-2.6703,-2.6189,-2.5724,-2.5335,-2.5335,-2.5335,-2.5335,-2.5724,-2.6,-2.6163,-2.6163,-2.6276,-2.6533,-2.6533,-2.6979,-2.7846,-2.8021,-2.8423,-2.8875,-2.8758,-2.8463,-2.8176,-2.8937,-2.8291,-2.7128,-2.7844,-2.8347,-2.8633,-2.8458,-2.9699,-3.1342,-3.1091,-3.0879,-3.0765,-3.1601,-3.0801,-2.9685,-3.0013,-2.9595,-2.8938,-2.8426,-2.8291,-2.8291,-2.8291,-2.8291,-2.833,-2.8476,-2.8389,-2.834,-2.8476,-2.8613,-2.8906,-2.9482,-2.9814,-3.0205,-3.081,-3.0889,-3.0889,-3.0889,-3.0889,-3.0889,-3.0889,-3.0889,-3.0889,-3.0889,-3.0889,-3.0889,-3.0889,-3.0889,-3.0645,-3.002,-2.8911,-2.7811,-2.6841,-2.7323,-2.7073,-2.5976,-2.4294,-2.3325,0.0,0.0,0.0,0.0,0.0,0.0,0.0,0.0,0.0,0.0,0.0,0.0,0.0,0.0,0.0,0.0,0.0,0.0,0.0,0.0,0.0,0.0,0.0,0.0,0.0,0.0,0.0,0.0,-2.9227,-2.8888,-2.89,-2.7858,-2.6741,-2.5636,-2.5096,-2.4808,-2.4795,-2.4795,-2.4795,-2.4795,-2.4808,-2.5084,-2.5573,-2.5586,-2.59,-2.6496,-2.6521,-2.6766,-2.7218,-2.6703,-2.7444,-2.87,-2.7103,-2.7127,-2.8016,-2.8004,-2.8004,-2.7924,-2.8004,-2.8767,-2.9633,-2.9039,-2.9992,-3.1228,-3.0627,-2.9912,-2.9315,-2.9407,-2.9167,-2.8932,-2.8755,-2.8541,-2.8291,-2.8291,-2.8291,-2.8291,-2.8291,-2.8291,-2.8418,-2.8818,-2.8574,-2.8418,-2.8828,-2.8564,-2.8574,-2.9424,-2.956,-2.9883,-3.0762,-3.0889,-3.0889,-3.0889,-3.0889,-3.0889,-3.0889,-3.0889,-3.0889,-3.0889,-3.0889,-3.0889,-3.0889,-3.0889,-3.002,-2.8417,-2.8298,-2.672,-2.3574,-2.5138,-2.5855,-2.5863,-2.4294,-2.2591,-1.4916,0.0,0.0,0.0,0.0,0.0,0.0,0.0,0.0,0.0,0.0,0.0,0.0,0.0,0.0,0.0,0.0,0.0,0.0,0.0,0.0,0.0,0.0,0.0,0.0,0.0,0.0,0.0,-2.8511,-2.7908,-2.831,-2.7293,-2.6352,-2.5624,-2.5096,-2.4632,-2.423,-2.423,-2.423,-2.423,-2.4632,-2.4895,-2.5046,-2.5423,-2.5686,-2.585,-2.6276,-2.6553,-2.6703,-2.6954,-2.7112,-2.7128,-2.7102,-2.6542,-2.5775,-2.6625,-2.588,-2.4628,-2.5452,-2.6461,-2.7476,-2.763,-2.8808,-3.011,-3.0369,-2.9285,-2.8319,-2.9131,-2.8285,-2.7282,-2.7809,-2.8186,-2.8291,-2.8291,-2.8291,-2.8291,-2.8291,-2.8291,-2.833,-2.8437,-2.8369,-2.833,-2.8447,-2.8369,-2.8476,-2.9014,-2.9365,-2.9766,-3.0322,-3.0684,-3.0889,-3.0889,-3.0889,-3.0889,-3.0889,-3.0889,-3.0889,-3.0889,-3.0889,-3.0889,-3.0889,-2.9776,-2.8911,-2.8417,-2.6122,-2.454,-2.3574,-2.4054,-2.3683,-2.2452,-2.1964,-2.1481,0.0,0.0,0.0,0.0,0.0,0.0,-1.5155,-1.7852,0.0,0.0,0.0,0.0,0.0,0.0,0.0,0.0,0.0,0.0,0.0,0.0,0.0,0.0,0.0,0.0,0.0,-2.9792,-2.9792,-2.9792,-2.8662,-2.7908,-2.777,-2.6703,-2.585,-2.5285,-2.4757,-2.4205,-2.364,-2.364,-2.364,-2.364,-2.3966,-2.4243,-2.4494,-2.5034,-2.5385,-2.5624,-2.5778,-2.5873,-2.591,-2.5997,-2.616,-2.6446,-2.5844,-2.5256,-2.4872,-2.5546,-2.4967,-2.3963,-2.5126,-2.6346,-2.7566,-2.7865,-2.8876,-2.9874,-2.9735,-2.8652,-2.7683,-2.7861,-2.7298,-2.6846,-2.7705,-2.8105,-2.8291,-2.8291,-2.8291,-2.8291,-2.8291,-2.8291,-2.834,-2.8525,-2.8408,-2.835,-2.8525,-2.8408,-2.8437,-2.8857,-2.9287,-2.9726,-3.0146,-3.0605,-3.0889,-3.0889,-3.0889,-3.0889,-3.0889,-3.0265,-2.9903,-2.9903,-2.9285,-2.892,-2.892,-2.7931,-2.7082,-2.6357,-2.454,-2.3201,-2.2591,-2.2591,-2.2097,-2.1109,-2.1109,-2.1109,0.0,0.0,0.0,0.0,0.0,0.0,-1.5229,-1.7413,-1.9459,0.0,0.0,0.0,0.0,0.0,0.0,0.0,0.0,0.0,0.0,0.0,0.0,0.0,0.0,0.0,-2.9792,-2.9792,-2.9792,-2.9792,-2.9202,-2.8411,-2.7419,-2.6302,-2.5448,-2.4921,-2.4381,-2.3816,-2.3238,-2.3103,-2.3078,-2.3078,-2.3078,-2.3401,-2.3916,-2.4544,-2.5006,-2.5324,-2.5105,-2.4933,-2.4826,-2.4288,-2.4861,-2.5954,-2.4104,-2.3856,-2.4617,-2.4617,-2.4617,-2.4798,-2.5874,-2.7247,-2.8551,-2.8668,-2.9242,-2.9829,-2.8824,-2.8017,-2.7218,-2.6142,-2.6465,-2.7266,-2.8027,-2.8262,-2.8291,-2.8291,-2.8291,-2.8291,-2.8291,-2.8291,-2.8398,-2.8779,-2.8545,-2.8408,-2.8779,-2.8535,-2.8418,-2.8789,-2.9258,-2.9707,-3.0078,-3.0576,-3.0889,-3.0889,-3.0889,-3.0889,-3.0889,-2.953,-2.8545,-2.8417,-2.7073,-2.6219,-2.5976,-2.5863,-2.5016,-2.3574,-2.345,-2.2584,-2.1109,-2.1109,-2.1109,-2.1109,-2.1109,-2.1109,0.0,0.0,0.0,0.0,0.0,0.0,-1.3873,-1.4814,-1.6245,0.0,0.0,0.0,0.0,0.0,0.0,0.0,0.0,0.0,0.0,0.0,0.0,0.0,0.0,0.0,-2.9792,-2.9792,-2.9792,-2.9792,-2.885,-2.8172,-2.7959,-2.6892,-2.6025,-2.546,-2.4933,-2.4393,-2.3841,-2.3364,-2.3078,-2.3078,-2.3078,-2.3128,-2.3339,-2.4356,-2.439,-2.3826,-2.4658,-2.4564,-2.3779,-2.3221,-2.3385,-2.3913,-2.3843,-2.3676,-2.3474,-2.3474,-2.3474,-2.3523,-2.4135,-2.5078,-2.6216,-2.7069,-2.7355,-2.749,-2.77,-2.7225,-2.6616,-2.6771,-2.7139,-2.7578,-2.7744,-2.8047,-2.8291,-2.8291,-2.8291,-2.8291,-2.8291,-2.8291,-2.831,-2.8398,-2.835,-2.832,-2.8398,-2.835,-2.832,-2.8398,-2.9072,-2.96,-2.9687,-3.04,-3.0889,-3.0889,-3.0889,-3.0889,-3.0889,-3.0635,-2.9903,-2.8536,-2.8059,-2.7323,-2.6098,-2.4778,-2.3938,-2.3574,-2.2215,-2.1481,-2.1109,-2.1109,-2.1109,-2.1109,-2.1109,-2.1109,0.0,0.0,0.0,-1.4979,0.0,0.0,0.0,-1.4299,-1.5517,0.0,0.0,0.0,0.0,0.0,0.0,0.0,0.0,0.0,0.0,0.0,0.0,0.0,0.0,0.0,-2.8976,-2.895,-2.9063,-2.934,-2.8586,-2.8109,-2.8109,-2.6618,-2.5477,-2.4927,-2.391,-2.3382,-2.325,-2.2775,-2.2702,-2.3078,-2.3078,-2.3078,-2.3115,-2.3759,-2.3767,-2.3349,-2.3709,-2.3597,-2.3037,-2.2752,-2.2695,-2.2907,-2.315,-2.3182,-2.3135,-2.3135,-2.3271,-2.3585,-2.4315,-2.5283,-2.6357,-2.7355,-2.7494,-2.7181,-2.7516,-2.7079,-2.6523,-2.7158,-2.75,-2.7715,-2.792,-2.8135,-2.8291,-2.8291,-2.8291,-2.8291,-2.8291,-2.8291,-2.8291,-2.8291,-2.8291,-2.8291,-2.8291,-2.8291,-2.8291,-2.8291,-2.8838,-2.9248,-2.9248,-3.001,-3.0547,-3.0547,-3.0752,-3.0889,-3.0889,-2.9412,-2.8059,-2.7202,-2.5619,-2.4401,-2.3544,-2.2827,-2.2341,-2.2341,-2.1475,-2.1109,-2.1109,-2.1109,-2.1109,-2.1109,-2.1109,-2.1109,0.0,0.0,0.0,0.0,0.0,-1.4902,0.0,0.0,0.0,0.0,0.0,0.0,0.0,0.0,0.0,0.0,0.0,0.0,0.0,0.0,0.0,0.0,0.0,0.0,0.0,-2.7507,-2.7946,-2.8712,-2.826,-2.7946,-2.7946,-2.6045,-2.4814,-2.4398,-2.2937,-2.2264,-2.2542,-2.2104,-2.2238,-2.2874,-2.2874,-2.2936,-2.3158,-2.3138,-2.315,-2.3164,-2.2832,-2.2585,-2.2422,-2.2472,-2.251,-2.2519,-2.2607,-2.2842,-2.3135,-2.3135,-2.3418,-2.3889,-2.491,-2.5834,-2.6722,-2.7705,-2.77,-2.7386,-2.7562,-2.7208,-2.6797,-2.7568,-2.7783,-2.7861,-2.8203,-2.8291,-2.8291,-2.8291,-2.8291,-2.8291,-2.8291,-2.8291,-2.8291,-2.8291,-2.8291,-2.8291,-2.8291,-2.8291,-2.8291,-2.8291,-2.8652,-2.8916,-2.8916,-2.9668,-3.0195,-3.0195,-3.0364,-3.0392,-3.0392,-2.7692,-2.5863,-2.5619,-2.3069,-2.1481,-2.1109,-2.1109,-2.1109,-2.1109,-2.1109,-2.1109,-2.1109,-2.1109,-2.1109,-2.1109,-2.1109,-2.1109,0.0,0.0,0.0,0.0,-1.6019,0.0,0.0,0.0,-1.4865,-1.4374,0.0,0.0,0.0,0.0,0.0,0.0,0.0,0.0,0.0,0.0,0.0,0.0,0.0,0.0,0.0,-2.5322,-2.6527,-2.8084,-2.7682,-2.7369,-2.7369,-2.5839,-2.4981,-2.4921,-2.3393,-2.2603,-2.2689,-2.2136,-2.1958,-2.2026,-2.2026,-2.2488,-2.3257,-2.2937,-2.2767,-2.2764,-2.2756,-2.2203,-2.145,-2.2158,-2.251,-2.2549,-2.292,-2.3096,-2.3135,-2.3135,-2.3418,-2.3838,-2.4392,-2.4834,-2.5411,-2.5902,-2.6241,-2.6645,-2.7412,-2.7584,-2.7617,-2.8086,-2.8223,-2.8232,-2.8281,-2.8291,-2.8291,-2.8291,-2.8291,-2.8291,-2.8291,-2.8291,-2.8291,-2.8291,-2.8291,-2.8291,-2.8291,-2.8291,-2.8291,-2.8291,-2.8652,-2.8916,-2.8916,-2.9668,-3.0195,-3.0195,-2.9259,-2.8664,-2.8664,-2.7073,-2.5375,-2.3938,-2.3574,-2.2591,-2.1109,-2.1109,-2.1109,-2.1109,-2.1109,-2.1109,-2.1109,-2.1109,-2.1109,-2.1109,-2.1109,-2.1109,0.0,0.0,0.0,0.0,0.0,0.0,-1.7451,0.0,-1.4928,0.0,0.0,0.0,0.0,0.0,0.0,0.0,-1.6622,0.0,0.0,0.0,0.0,0.0,0.0,0.0,0.0,0.0,0.0,0.0,-2.5511,-2.5523,-2.5837,-2.5014,-2.4402,-2.4108,-2.2683,-2.1927,-2.1854,-2.1392,-2.1435,-2.1909,-2.1909,-2.2115,-2.248,-2.2056,-2.1854,-2.1846,-2.2101,-2.1998,-2.168,-2.2529,-2.2881,-2.2891,-2.3066,-2.3135,-2.3164,-2.3428,-2.3789,-2.4209,-2.4639,-2.5088,-2.5527,-2.5967,-2.624,-2.6553,-2.7402,-2.7666,-2.7754,-2.8174,-2.8291,-2.8291,-2.8291,-2.8291,-2.8291,-2.8291,-2.8291,-2.8291,-2.8291,-2.8291,-2.8291,-2.8291,-2.8291,-2.8291,-2.8291,-2.8291,-2.8291,-2.8291,-2.8437,-2.8555,-2.8555,-2.9082,-2.9551,-2.9805,-2.8788,-2.8174,-2.8399,-2.6114,-2.4294,-2.3698,-2.2709,-2.1853,-2.1109,-2.1109,-2.1109,-2.1109,-2.1109,-2.1109,-2.1109,-2.1109,-2.1109,-2.1109,-2.1109,-2.1109,-2.0275,0.0,0.0,0.0,0.0,0.0,0.0,0.0,0.0,0.0,0.0,0.0,0.0,0.0,0.0,0.0,0.0,-1.7024,0.0,0.0,0.0,0.0,0.0,0.0,0.0,0.0,0.0,-2.3037,-2.3502,-2.3742,-2.379,-2.4056,-2.3898,-2.3385,-2.2166,-2.1534,-2.1386,-2.0978,-2.1105,-2.1747,-2.1747,-2.1873,-2.2291,-2.1565,-2.1432,-2.1748,-2.1979,-2.206,-2.2119,-2.2842,-2.3135,-2.3154,-2.3271,-2.332,-2.3359,-2.3672,-2.4131,-2.4639,-2.4951,-2.5361,-2.583,-2.6387,-2.6562,-2.6719,-2.7578,-2.7832,-2.79,-2.8203,-2.8291,-2.8291,-2.8291,-2.8291,-2.8291,-2.8291,-2.8291,-2.8291,-2.8291,-2.8291,-2.8291,-2.8291,-2.8291,-2.8291,-2.8291,-2.8291,-2.8291,-2.8291,-2.8291,-2.8291,-2.8291,-2.8662,-2.9043,-2.9355,-2.7994,-2.7226,-2.7498,-2.4723,-2.2959,-2.2959,-2.1727,-2.1109,-2.1109,-2.1109,-2.1109,-2.1109,-2.1109,-2.1109,-2.1109,-2.1109,-2.1109,-2.1109,-2.1109,-2.1109,0.0,0.0,0.0,-2.1041,0.0,0.0,0.0,0.0,-1.7149,0.0,0.0,0.0,0.0,0.0,0.0,-1.6609,0.0,0.0,0.0,0.0,0.0,0.0,0.0,0.0,0.0,0.0,0.0,-2.0857,-2.2259,-2.2552,-2.1164,-2.3102,-2.3816,-2.2973,-2.2305,-2.2006,-2.1931,-2.1489,-2.1172,-2.1242,-2.1242,-2.191,-2.3217,-2.182,-2.194,-2.32,-2.2685,-2.249,-2.2519,-2.2959,-2.3135,-2.3184,-2.3603,-2.3769,-2.3769,-2.3779,-2.4326,-2.5049,-2.5059,-2.5361,-2.5879,-2.6719,-2.6992,-2.7158,-2.8018,-2.8271,-2.8271,-2.8291,-2.8291,-2.8291,-2.8291,-2.8291,-2.8291,-2.8291,-2.8291,-2.8291,-2.8291,-2.8291,-2.8291,-2.8291,-2.8291,-2.8291,-2.8291,-2.8291,-2.8291,-2.8291,-2.8291,-2.8291,-2.8291,-2.8662,-2.8926,-2.8935,-2.6761,-2.544,-2.5448,-2.2762,-2.1229,-2.1229,-2.1109,-2.1109,-2.1109,-2.1109,-2.1109,-2.1109,-2.1109,-2.1109,-2.1109,-2.1109,-2.1109,-2.1109,-2.1109,-2.1109,0.0,0.0,-2.5649,-2.4732,0.0,0.0,0.0,0.0,0.0,0.0,0.0,0.0,0.0,0.0,0.0,-1.7124,-1.7413,0.0,0.0,0.0,0.0,0.0,0.0,0.0,0.0,0.0,0.0,-1.8455,-1.8656,-1.8846,-1.9125,-2.1547,-2.2853,-2.2608,-2.387,-2.3835,-2.2499,-2.2656,-2.2352,-2.167,-2.167,-2.1892,-2.2339,-2.1883,-2.1892,-2.2359,-2.2483,-2.251,-2.2549,-2.2969,-2.3135,-2.3184,-2.3623,-2.3965,-2.4238,-2.4531,-2.4814,-2.5117,-2.541,-2.5801,-2.626,-2.6836,-2.7207,-2.7549,-2.8125,-2.8291,-2.8291,-2.8291,-2.8291,-2.8291,-2.8291,-2.8291,-2.8291,-2.8291,-2.8291,-2.8291,-2.8291,-2.8291,-2.8291,-2.8291,-2.8291,-2.8291,-2.8291,-2.8291,-2.8291,-2.8291,-2.8291,-2.8291,-2.8291,-2.8418,-2.8279,-2.753,-2.5958,-2.4593,-2.3882,-2.2157,-2.1109,-2.1109,-2.1109,-2.1109,-2.1109,-2.1109,-2.1109,-2.1109,-2.1109,-2.1109,-2.1109,-2.1109,-2.1109,-2.1109,-2.1109,-2.1109,-2.5876,-2.6795,0.0,-2.5937,-2.535,0.0,-2.3879,0.0,-2.0501,0.0,0.0,0.0,0.0,0.0,0.0,0.0,-1.725,0.0,0.0,-1.676,0.0,0.0,0.0,0.0,0.0,0.0,-1.6484,-1.625,-1.6584,-1.6903,0.0,0.0,-2.2177,-2.2277,-2.3837,-2.4382,-2.3787,-2.3349,-2.2961,-2.2744,-2.235,-2.2187,-2.2324,-2.2178,-2.2187,-2.2344,-2.2617,-2.2734,-2.2754,-2.3027,-2.3232,-2.3408,-2.3848,-2.4268,-2.4687,-2.4961,-2.5166,-2.5371,-2.581,-2.6152,-2.6455,-2.6875,-2.7314,-2.7715,-2.7988,-2.8174,-2.8262,-2.8115,-2.8174,-2.8262,-2.8105,-2.8174,-2.8291,-2.8291,-2.8291,-2.8291,-2.8291,-2.8291,-2.8291,-2.8291,-2.8291,-2.8291,-2.8291,-2.8291,-2.8291,-2.8291,-2.8291,-2.8291,-2.8291,-2.8291,-2.7841,-2.6645,-2.5417,-2.4047,-2.2487,-2.1617,-2.1109,-2.1109,-2.1109,-2.1109,-2.1109,-2.1109,-2.1109,-2.1109,-2.1109,-2.1109,-2.1109,-2.1109,-2.1109,-2.1109,-2.1109,-2.1109]},{"header":{"parameterUnit":"m.s-1","parameterCategory":1,"la1":30.6,"la2":29.2853,"lo1":-89.7004,"lo2":-87.6739,"dy":0.0162,"dx":0.0183,"nx":112,"ny":82,"refTime":"2023-04-30T00:00:00:Z","depth":0,"parameterNumber":3,"parameterNumberName":"V-component_of_WINDS"},"data":[0.0,0.0,0.0,0.0,0.0,0.0,0.0,0.0,0.0,0.0,0.0,0.0,0.0,0.0,0.0,0.0,0.0,0.0,0.0,0.0,0.0,0.0,0.0,0.0,0.0,0.0,0.0,0.0,0.0,0.0,0.0,0.0,0.0,0.0,0.0,0.0,0.0,0.0,0.0,0.0,0.0,0.0,0.0,0.0,0.0,0.0,0.0,0.0,0.0,0.0,0.0,0.0,0.0,0.0,0.0,0.0,0.0,0.0,0.0,0.0,0.0,0.0,0.0,0.0,0.0,0.0,0.0,0.0,0.0,0.0,0.0,0.0,0.0,0.0,0.0,0.0,0.0,0.0,0.0,0.0,0.0,0.0,0.0,0.0,0.0,0.0,0.0,0.0,0.0,0.0,-3.6585,-4.353,-5.1664,-5.6448,-5.5889,-5.7263,-5.2857,-4.0456,0.0,0.0,0.0,0.0,0.0,0.0,0.0,0.0,0.0,0.0,0.0,0.0,0.0,0.0,0.0,0.0,0.0,0.0,0.0,0.0,0.0,0.0,0.0,0.0,0.0,0.0,0.0,0.0,0.0,0.0,0.0,0.0,0.0,0.0,0.0,0.0,0.0,0.0,0.0,0.0,0.0,0.0,0.0,0.0,0.0,0.0,0.0,0.0,0.0,0.0,0.0,0.0,0.0,0.0,0.0,0.0,0.0,0.0,0.0,0.0,0.0,0.0,0.0,0.0,0.0,0.0,0.0,0.0,0.0,0.0,0.0,0.0,0.0,0.0,0.0,0.0,0.0,0.0,0.0,0.0,0.0,0.0,0.0,0.0,0.0,0.0,0.0,0.0,0.0,0.0,0.0,0.0,0.0,0.0,0.0,0.0,0.0,0.0,0.0,0.0,0.0,0.0,0.0,0.0,-4.0046,-4.983,-5.3872,-5.6062,-5.6561,-5.5241,-5.0632,-4.1813,0.0,0.0,0.0,0.0,0.0,0.0,0.0,0.0,0.0,0.0,0.0,0.0,0.0,0.0,0.0,0.0,0.0,0.0,0.0,0.0,0.0,0.0,0.0,0.0,0.0,0.0,0.0,0.0,0.0,0.0,0.0,0.0,0.0,0.0,0.0,0.0,0.0,0.0,0.0,0.0,0.0,0.0,0.0,0.0,0.0,0.0,0.0,0.0,0.0,0.0,0.0,0.0,0.0,0.0,0.0,0.0,0.0,0.0,0.0,0.0,0.0,0.0,0.0,0.0,0.0,0.0,0.0,0.0,0.0,0.0,0.0,0.0,0.0,0.0,0.0,0.0,0.0,0.0,0.0,0.0,0.0,0.0,0.0,0.0,0.0,0.0,0.0,0.0,0.0,0.0,0.0,0.0,0.0,0.0,0.0,0.0,0.0,0.0,0.0,0.0,0.0,0.0,0.0,-3.8365,-4.3761,-5.0911,-5.3754,-5.5246,-5.5587,-5.4712,-5.0369,-4.168,-4.1133,0.0,0.0,0.0,0.0,0.0,0.0,0.0,0.0,0.0,0.0,0.0,0.0,0.0,0.0,0.0,0.0,0.0,0.0,0.0,0.0,0.0,0.0,0.0,0.0,0.0,0.0,0.0,0.0,0.0,0.0,0.0,0.0,0.0,0.0,0.0,0.0,0.0,0.0,0.0,0.0,0.0,0.0,0.0,0.0,0.0,0.0,0.0,0.0,0.0,0.0,0.0,0.0,0.0,0.0,0.0,0.0,0.0,0.0,0.0,0.0,0.0,0.0,0.0,0.0,0.0,0.0,0.0,0.0,0.0,0.0,0.0,0.0,0.0,0.0,0.0,0.0,0.0,0.0,0.0,0.0,0.0,0.0,0.0,0.0,0.0,0.0,0.0,0.0,0.0,0.0,0.0,0.0,0.0,0.0,0.0,0.0,0.0,0.0,0.0,0.0,0.0,0.0,-4.3406,-4.6272,-5.0927,-5.3315,-5.4618,-5.4632,-5.3795,-4.9681,-4.1247,-3.9013,0.0,0.0,0.0,0.0,0.0,0.0,0.0,0.0,0.0,0.0,0.0,0.0,0.0,0.0,0.0,0.0,0.0,0.0,0.0,0.0,0.0,0.0,0.0,0.0,0.0,0.0,0.0,0.0,0.0,0.0,0.0,0.0,0.0,0.0,0.0,0.0,0.0,0.0,0.0,0.0,0.0,0.0,0.0,0.0,0.0,0.0,0.0,0.0,0.0,0.0,0.0,0.0,0.0,0.0,0.0,0.0,0.0,0.0,0.0,0.0,0.0,0.0,0.0,0.0,0.0,0.0,0.0,0.0,0.0,0.0,0.0,0.0,0.0,0.0,0.0,0.0,0.0,0.0,0.0,0.0,0.0,0.0,0.0,0.0,0.0,0.0,0.0,0.0,0.0,0.0,0.0,0.0,0.0,0.0,0.0,0.0,0.0,0.0,0.0,0.0,0.0,0.0,-4.2816,-4.656,-5.1665,-5.3619,-5.4618,-5.4601,-5.1413,-4.6906,-4.1055,-3.6599,0.0,0.0,0.0,0.0,0.0,0.0,0.0,0.0,0.0,0.0,0.0,0.0,0.0,0.0,0.0,0.0,0.0,0.0,0.0,0.0,0.0,0.0,0.0,0.0,0.0,0.0,0.0,0.0,0.0,0.0,0.0,0.0,0.0,0.0,0.0,0.0,0.0,0.0,0.0,0.0,0.0,0.0,0.0,0.0,0.0,0.0,0.0,0.0,0.0,0.0,0.0,0.0,0.0,0.0,0.0,0.0,0.0,0.0,0.0,0.0,0.0,0.0,0.0,0.0,0.0,0.0,0.0,0.0,0.0,0.0,0.0,0.0,0.0,0.0,0.0,0.0,0.0,0.0,0.0,0.0,0.0,0.0,0.0,0.0,0.0,0.0,0.0,0.0,0.0,0.0,0.0,0.0,0.0,0.0,0.0,0.0,0.0,0.0,0.0,0.0,0.0,0.0,-4.2702,-4.6394,0.0,-5.2522,-5.3332,-5.3856,-5.1732,-4.7383,-4.0392,0.0,0.0,0.0,0.0,0.0,0.0,0.0,0.0,0.0,0.0,0.0,0.0,0.0,0.0,0.0,0.0,0.0,0.0,0.0,0.0,0.0,0.0,0.0,0.0,0.0,0.0,0.0,0.0,0.0,0.0,0.0,0.0,0.0,0.0,0.0,0.0,0.0,0.0,0.0,0.0,0.0,0.0,0.0,0.0,0.0,0.0,0.0,0.0,0.0,0.0,0.0,0.0,0.0,0.0,0.0,0.0,0.0,0.0,0.0,0.0,0.0,0.0,0.0,0.0,0.0,0.0,0.0,0.0,0.0,0.0,0.0,0.0,0.0,0.0,0.0,0.0,0.0,0.0,0.0,0.0,0.0,0.0,0.0,0.0,0.0,0.0,0.0,0.0,0.0,0.0,0.0,0.0,0.0,0.0,0.0,0.0,0.0,0.0,0.0,0.0,0.0,0.0,-3.9259,-4.2806,-4.647,0.0,-5.1698,-5.2657,-5.345,-5.0994,-4.6636,-3.9922,0.0,0.0,0.0,0.0,0.0,0.0,0.0,0.0,0.0,0.0,0.0,0.0,0.0,0.0,0.0,0.0,0.0,0.0,0.0,0.0,0.0,0.0,0.0,0.0,0.0,0.0,0.0,0.0,0.0,0.0,0.0,0.0,0.0,0.0,0.0,0.0,0.0,0.0,0.0,0.0,0.0,0.0,0.0,0.0,0.0,0.0,0.0,0.0,0.0,0.0,0.0,0.0,0.0,0.0,0.0,0.0,0.0,0.0,0.0,0.0,0.0,0.0,0.0,0.0,0.0,0.0,0.0,0.0,0.0,0.0,0.0,0.0,0.0,0.0,0.0,0.0,0.0,0.0,0.0,0.0,0.0,0.0,0.0,0.0,0.0,0.0,0.0,0.0,0.0,0.0,0.0,0.0,0.0,0.0,0.0,0.0,0.0,0.0,0.0,0.0,0.0,0.0,-3.8705,-4.2889,-4.6831,-4.9797,-5.1423,-5.264,-5.345,-4.8711,-4.3944,0.0,0.0,0.0,0.0,0.0,0.0,0.0,0.0,0.0,0.0,0.0,0.0,0.0,0.0,0.0,0.0,0.0,0.0,0.0,0.0,0.0,0.0,0.0,0.0,0.0,0.0,0.0,0.0,0.0,0.0,0.0,0.0,0.0,0.0,0.0,0.0,0.0,0.0,0.0,0.0,0.0,0.0,0.0,0.0,0.0,0.0,0.0,0.0,0.0,0.0,0.0,0.0,0.0,0.0,0.0,0.0,0.0,0.0,0.0,0.0,0.0,0.0,0.0,0.0,0.0,0.0,0.0,0.0,0.0,0.0,0.0,0.0,0.0,0.0,0.0,0.0,0.0,0.0,0.0,0.0,0.0,0.0,0.0,0.0,0.0,0.0,0.0,0.0,0.0,0.0,0.0,0.0,0.0,0.0,0.0,0.0,0.0,0.0,0.0,0.0,0.0,0.0,0.0,-3.8638,-4.2492,-4.6439,-5.0468,-5.1239,-5.2034,-5.3416,-5.0142,-4.5537,-3.9723,0.0,0.0,0.0,0.0,0.0,0.0,0.0,0.0,0.0,0.0,0.0,0.0,0.0,0.0,0.0,0.0,0.0,0.0,0.0,0.0,0.0,0.0,0.0,0.0,0.0,0.0,0.0,0.0,0.0,0.0,0.0,0.0,0.0,0.0,0.0,0.0,0.0,0.0,0.0,0.0,0.0,0.0,0.0,0.0,0.0,0.0,0.0,0.0,0.0,0.0,0.0,0.0,0.0,0.0,0.0,0.0,0.0,0.0,0.0,0.0,0.0,0.0,0.0,0.0,0.0,0.0,0.0,0.0,0.0,0.0,0.0,0.0,0.0,0.0,0.0,0.0,0.0,0.0,0.0,0.0,0.0,0.0,0.0,0.0,0.0,0.0,0.0,0.0,0.0,0.0,0.0,0.0,0.0,0.0,0.0,0.0,0.0,0.0,0.0,0.0,0.0,0.0,-3.8636,-4.2555,-4.6515,-5.0339,-5.1273,-5.2152,-5.3416,-5.1025,-4.6811,-4.0613,0.0,0.0,0.0,0.0,0.0,0.0,0.0,0.0,0.0,0.0,0.0,0.0,0.0,0.0,0.0,0.0,0.0,0.0,0.0,0.0,0.0,0.0,0.0,0.0,0.0,0.0,0.0,0.0,0.0,0.0,0.0,0.0,0.0,0.0,0.0,0.0,0.0,0.0,0.0,0.0,0.0,0.0,0.0,0.0,0.0,0.0,0.0,0.0,0.0,0.0,0.0,0.0,0.0,0.0,0.0,0.0,0.0,0.0,0.0,0.0,0.0,0.0,0.0,0.0,0.0,0.0,0.0,0.0,0.0,0.0,0.0,0.0,0.0,0.0,0.0,0.0,0.0,0.0,0.0,0.0,0.0,0.0,0.0,0.0,0.0,0.0,0.0,0.0,0.0,0.0,0.0,0.0,0.0,0.0,0.0,0.0,0.0,0.0,0.0,0.0,0.0,0.0,-3.8468,-4.2856,-4.6882,-4.9887,-5.1442,-5.2657,-5.345,-5.1481,-4.7801,-4.2228,0.0,0.0,0.0,0.0,0.0,0.0,0.0,0.0,0.0,0.0,0.0,0.0,0.0,0.0,0.0,0.0,0.0,0.0,0.0,0.0,0.0,0.0,0.0,0.0,0.0,0.0,0.0,0.0,0.0,0.0,0.0,0.0,0.0,0.0,0.0,0.0,0.0,0.0,0.0,0.0,0.0,0.0,0.0,0.0,0.0,0.0,0.0,0.0,0.0,0.0,0.0,0.0,0.0,0.0,0.0,0.0,0.0,0.0,0.0,0.0,-3.0969,0.0,0.0,0.0,0.0,0.0,0.0,0.0,0.0,0.0,0.0,0.0,0.0,0.0,0.0,0.0,0.0,0.0,0.0,0.0,0.0,0.0,0.0,0.0,0.0,0.0,0.0,0.0,0.0,0.0,0.0,0.0,0.0,0.0,0.0,0.0,0.0,0.0,0.0,0.0,0.0,0.0,-3.7252,-4.2285,-4.7045,-5.0575,-5.1782,-5.2657,-5.345,-5.1916,-4.899,-4.4284,-4.1102,0.0,0.0,0.0,0.0,0.0,0.0,0.0,0.0,0.0,0.0,0.0,0.0,0.0,0.0,0.0,0.0,0.0,0.0,0.0,0.0,0.0,0.0,0.0,0.0,0.0,0.0,0.0,0.0,0.0,0.0,0.0,0.0,0.0,0.0,0.0,0.0,0.0,0.0,0.0,0.0,0.0,0.0,0.0,0.0,0.0,0.0,0.0,0.0,0.0,0.0,0.0,0.0,0.0,0.0,0.0,0.0,0.0,0.0,0.0,0.0,-3.3143,0.0,0.0,0.0,0.0,0.0,0.0,0.0,0.0,0.0,0.0,0.0,0.0,0.0,0.0,0.0,0.0,0.0,0.0,0.0,0.0,0.0,0.0,0.0,0.0,0.0,0.0,0.0,0.0,0.0,0.0,0.0,0.0,0.0,0.0,0.0,0.0,0.0,0.0,0.0,0.0,-3.7686,-4.3113,-4.7918,-5.0878,-5.2203,-5.3028,-5.3467,-5.2421,-5.0315,-4.6931,-4.3566,0.0,0.0,0.0,0.0,0.0,0.0,0.0,0.0,0.0,0.0,0.0,0.0,0.0,0.0,0.0,0.0,0.0,0.0,0.0,0.0,0.0,0.0,0.0,0.0,0.0,0.0,0.0,0.0,0.0,0.0,0.0,0.0,0.0,0.0,0.0,0.0,0.0,0.0,0.0,0.0,0.0,0.0,0.0,0.0,0.0,0.0,0.0,0.0,0.0,0.0,0.0,0.0,0.0,-3.9853,-4.1123,-4.2343,-4.2534,-4.2337,-4.1888,-4.0499,-3.9875,-3.9587,-3.6804,0.0,0.0,0.0,0.0,0.0,0.0,0.0,0.0,0.0,0.0,0.0,0.0,0.0,0.0,0.0,0.0,0.0,0.0,0.0,0.0,0.0,0.0,0.0,0.0,-3.9758,-3.9097,0.0,0.0,0.0,0.0,0.0,0.0,0.0,0.0,0.0,0.0,0.0,0.0,-3.8522,-4.4263,-4.8942,-5.1145,-5.2674,-5.3501,-5.3501,-5.291,-5.1595,-4.9543,-4.6126,-4.2878,0.0,0.0,0.0,0.0,0.0,0.0,0.0,0.0,0.0,0.0,0.0,0.0,0.0,0.0,0.0,0.0,0.0,0.0,0.0,0.0,0.0,0.0,0.0,0.0,0.0,0.0,0.0,0.0,0.0,0.0,0.0,0.0,-2.4819,-2.929,0.0,0.0,0.0,0.0,0.0,0.0,0.0,0.0,0.0,0.0,0.0,0.0,0.0,-3.6122,-3.8087,-4.1159,-4.3082,-4.3827,-4.7021,-4.9001,-4.9779,-5.0466,-5.109,-5.1579,-4.941,0.0,-4.2093,-4.0277,0.0,0.0,0.0,0.0,0.0,0.0,0.0,0.0,0.0,0.0,0.0,0.0,0.0,0.0,0.0,0.0,0.0,0.0,0.0,0.0,0.0,0.0,-4.4738,-4.6201,-4.4588,-4.3263,0.0,-3.8805,-3.2453,-3.3265,-3.0033,0.0,0.0,0.0,0.0,0.0,0.0,0.0,-3.8159,-4.4456,-4.9687,-5.1917,-5.296,-5.3501,-5.3501,-5.3433,-5.2622,-5.1031,-4.8663,-4.5974,-4.2963,-4.1305,0.0,0.0,0.0,0.0,0.0,0.0,0.0,0.0,0.0,0.0,0.0,0.0,0.0,0.0,0.0,0.0,0.0,0.0,0.0,0.0,0.0,0.0,0.0,0.0,0.0,0.0,0.0,0.0,0.0,-2.5631,-2.8874,-2.9924,-3.0991,-3.0194,0.0,0.0,0.0,0.0,0.0,0.0,0.0,0.0,0.0,-3.8111,-4.0875,-4.2364,-4.2462,-4.6929,-4.9107,-4.9013,-5.1442,-5.3027,-5.3754,-5.4076,-5.4414,-5.4718,-5.3648,-5.2001,-4.9715,-4.5568,-4.3322,-4.2112,0.0,0.0,0.0,0.0,-3.5975,-3.5782,-3.6583,-3.7196,0.0,-3.7998,0.0,0.0,0.0,0.0,0.0,0.0,0.0,0.0,0.0,0.0,-4.4765,-4.7942,-4.7977,-4.7816,-4.9925,-4.4849,-3.9849,0.0,-3.6391,-3.3356,-3.2015,0.0,0.0,0.0,0.0,-3.9878,-4.16,-4.6762,-5.0774,-5.2135,-5.3011,-5.3501,-5.3501,-5.3501,-5.3213,-5.2553,-5.0794,-4.8815,-4.665,-4.5128,-4.2185,0.0,0.0,0.0,0.0,0.0,0.0,0.0,0.0,0.0,0.0,0.0,0.0,0.0,0.0,0.0,0.0,0.0,0.0,0.0,0.0,0.0,0.0,0.0,0.0,0.0,0.0,0.0,0.0,-2.9372,-3.2612,-3.1711,-3.4761,-3.512,0.0,0.0,0.0,0.0,0.0,0.0,-3.9447,-4.0604,-4.2062,-4.3837,-4.6987,-4.8273,-4.7591,-5.1782,-5.3758,-5.3467,-5.4803,-5.5835,-5.6562,-5.6562,-5.6562,-5.6562,-5.6562,-5.6461,-5.5815,-5.0342,-4.7491,-4.6302,-4.4726,-4.2418,-4.0064,-4.0795,-4.0423,-3.967,-4.0761,-4.1488,-4.1867,-4.1331,-4.0362,-3.906,-3.6855,0.0,0.0,0.0,0.0,-3.8247,-4.0465,-4.2199,-4.4463,-4.8692,-4.9812,-5.0409,-5.19,-4.8993,-4.5873,0.0,-4.2296,-3.9053,-3.6075,0.0,0.0,0.0,0.0,-4.28,-4.4903,-4.8861,-5.1749,-5.2505,-5.3163,-5.3501,-5.3501,-5.3298,-5.3179,-5.3196,-5.1775,-5.0439,-4.9323,-4.7682,-4.4874,-4.0781,0.0,0.0,0.0,0.0,0.0,0.0,0.0,0.0,0.0,0.0,0.0,0.0,0.0,0.0,0.0,0.0,0.0,0.0,0.0,0.0,0.0,0.0,0.0,0.0,0.0,0.0,0.0,0.0,0.0,-3.7521,-4.3594,0.0,0.0,0.0,0.0,-3.8227,-3.8876,-4.1137,-4.5143,-4.5528,-4.7709,-5.24,-5.2831,-5.3642,-5.5012,-5.5417,-5.5886,-5.6579,-5.7357,-5.8118,-5.8846,-5.8846,-5.8846,-5.8846,-5.8846,-5.844,-5.7476,-5.3585,-5.1558,-5.0514,-4.7104,-4.5263,-4.4134,-4.1213,-4.1813,-4.3722,-4.2005,-4.2338,-4.3732,-4.5383,-4.4228,-4.1733,-3.9041,-3.7757,0.0,0.0,-3.8681,-4.142,-4.2509,-4.4458,-4.6851,-4.9692,-4.9592,-4.9442,-5.1463,-4.8993,-4.6832,0.0,-4.4805,-4.1785,-4.2688,0.0,-4.0616,-3.9799,-4.2351,-4.4995,-4.6502,-4.9908,-5.2522,-5.3332,-5.3484,-5.3501,-5.3501,-5.2823,-5.2365,-5.2367,-5.0963,-5.0118,-5.0033,-4.7953,-4.6346,-4.5382,-4.046,0.0,0.0,0.0,0.0,0.0,0.0,0.0,0.0,0.0,0.0,0.0,0.0,0.0,0.0,0.0,0.0,0.0,0.0,0.0,0.0,0.0,0.0,0.0,0.0,0.0,0.0,0.0,0.0,-4.2678,-4.6591,0.0,-4.479,-4.545,-4.5681,-4.4839,-4.7947,-5.076,-5.2792,-5.339,-5.4278,-5.5472,-5.6026,-5.6294,-5.6354,-5.7348,-5.7729,-5.7509,-5.8727,-5.8947,-5.8321,-5.9285,-5.8774,-5.721,-5.7725,-5.7103,-5.5632,-5.4342,-5.3435,-5.2831,-5.1111,-4.9529,-4.8095,-4.7469,-4.7493,-4.7732,-4.7524,-4.7111,-4.6556,-4.583,-4.4689,-4.3353,-4.2003,-4.1659,-4.1766,-4.1545,-4.2954,-4.4665,-4.4957,-4.5986,-4.7339,-4.8997,-4.9041,-4.9188,-5.0596,-5.0432,-5.0126,-5.0733,-4.7671,-4.5123,-4.5505,-4.5915,-4.567,-4.3987,-4.6234,-4.8647,-5.0125,-5.1934,-5.3197,-5.3484,-5.3501,-5.3501,-5.3501,-5.2772,-5.2111,-5.1623,-5.0642,-4.9661,-4.8731,-4.7936,-4.6481,-4.4282,-4.1931,-3.8464,0.0,0.0,0.0,0.0,0.0,0.0,0.0,0.0,0.0,0.0,0.0,0.0,0.0,0.0,0.0,0.0,0.0,0.0,0.0,0.0,0.0,0.0,0.0,0.0,0.0,0.0,-4.3659,-4.6621,-5.038,-5.2191,-5.0822,-5.142,-5.2,-5.2318,-5.5101,-5.7073,-5.7582,-5.76,-5.7458,-5.7157,-5.7428,-5.7397,-5.7154,-5.7715,-5.7783,-5.7314,-5.8464,-5.8357,-5.7243,-5.8611,-5.7769,-5.5134,-5.6564,-5.5795,-5.3724,-5.4633,-5.4402,-5.3599,-5.3477,-5.245,-5.096,-5.1296,-5.0707,-4.9726,-4.9621,-4.9015,-4.8071,-4.6461,-4.5666,-4.5242,-4.482,-4.4929,-4.5341,-4.5341,-4.5957,-4.662,-4.662,-4.7001,-4.7486,-4.8151,-4.8328,-4.8581,-4.9652,-4.9709,-4.9872,-5.1125,-5.0175,-4.8727,-4.7403,-4.8015,-4.782,-4.5355,-4.6619,-4.8345,-4.9892,-5.1178,-5.2118,-5.2371,-5.3028,-5.3365,-5.3111,-5.1468,-5.0469,-5.0473,-4.8578,-4.7378,-4.7175,-4.6194,-4.4722,-4.2709,-4.0696,-3.7584,-3.3406,0.0,0.0,0.0,0.0,0.0,0.0,0.0,0.0,0.0,0.0,0.0,0.0,0.0,0.0,0.0,0.0,0.0,0.0,0.0,0.0,0.0,0.0,0.0,-3.362,-4.2193,-4.8784,-4.9503,-5.532,-5.9024,-5.8253,-5.8867,-5.9656,-6.0408,-5.9753,-5.9276,-5.9222,-5.7658,-5.7075,-5.7786,-5.7068,-5.6993,-5.7769,-5.6734,-5.6159,-5.6208,-5.6537,-5.6333,-5.5693,-5.7085,-5.5922,-5.2987,-5.5518,-5.4758,-5.1849,-5.4518,-5.4514,-5.2989,-5.4052,-5.3627,-5.2347,-5.1942,-5.1048,-4.968,-4.7856,-4.7729,-4.8196,-4.7516,-4.7309,-4.7309,-4.7309,-4.7309,-4.7309,-4.7309,-4.7309,-4.7309,-4.7309,-4.7309,-4.7309,-4.7309,-4.7309,-4.7546,-4.8566,-4.6751,-4.6056,-4.9657,-5.2017,-5.2286,-4.8744,-4.8098,-4.7075,-4.4262,-4.3725,0.0,-4.5747,-4.7819,-4.941,-5.0142,-5.2135,-5.3109,-5.2374,-4.8921,-4.7394,-4.8849,-4.479,-4.3352,-4.5551,-4.2828,-4.1271,-4.1238,-3.684,-3.4912,-3.5656,0.0,0.0,0.0,0.0,0.0,0.0,0.0,0.0,0.0,0.0,0.0,0.0,0.0,0.0,0.0,0.0,0.0,0.0,0.0,0.0,0.0,0.0,-4.18,-4.2409,-4.7259,-5.2593,-5.7613,-6.0311,-6.1979,-6.2383,-6.2563,-6.244,-6.2078,-6.131,-6.0591,-6.0043,-5.6969,-5.5238,-5.5185,-5.381,-5.3911,-5.55,-5.5738,-5.6101,-5.6534,-5.6665,-5.6402,-5.5661,-5.6643,-5.5811,-5.3641,-5.4434,-5.3477,-5.1349,-5.1637,-5.1713,-5.1758,-5.2358,-5.194,-5.0753,-5.0213,-5.0078,-4.9749,-4.7422,-4.767,-4.8819,-4.7707,-4.7309,-4.7309,-4.7309,-4.7309,-4.7309,-4.7309,-4.7309,-4.7309,-4.7309,-4.7309,-4.7309,-4.7309,-4.7309,-4.7354,-4.7677,-4.7722,-4.8009,-4.9016,-5.0347,-5.1135,-5.0886,-5.079,-5.08,-5.0786,-5.0746,0.0,-5.1327,-5.19,-5.2347,-5.2538,-5.1666,-5.1396,-5.2208,-4.8916,-4.6958,-4.7361,-4.5229,-4.3978,-4.4045,-4.325,-4.254,-4.1999,-3.8142,-3.6265,0.0,0.0,0.0,0.0,0.0,0.0,0.0,0.0,0.0,0.0,0.0,0.0,0.0,0.0,0.0,0.0,0.0,0.0,0.0,0.0,0.0,0.0,-4.1938,-4.8034,-5.0646,-5.3471,-5.7122,-6.2058,-6.2735,-6.3364,-6.4895,-6.4342,-6.356,-6.2773,-6.1536,-6.0306,-5.9183,-5.6212,-5.4293,-5.3487,-5.3165,-5.3185,-5.3749,-5.4245,-5.4719,-5.513,-5.4988,-5.4485,-5.3788,-5.514,-5.4222,-5.1617,-5.3069,-5.2284,-4.9985,-5.049,-5.087,0.0,0.0,0.0,0.0,0.0,-4.9269,-4.9628,-4.8075,-4.8338,-4.9088,-4.8106,-4.7929,-4.7989,-4.7486,-4.6706,-4.6016,-4.568,-4.4849,-4.4254,-4.5316,-4.5636,-4.59,-4.7058,-4.7309,-4.7309,-4.7309,-4.6882,-4.6796,-4.7983,-4.7792,0.0,-5.0237,-5.029,-4.9727,-4.8806,-4.9323,-4.9903,-5.0202,-5.105,-5.1735,-5.2001,-5.1723,-5.1726,-5.2292,-4.8923,0.0,0.0,0.0,-4.254,-4.117,-4.1407,0.0,0.0,0.0,-3.6755,-3.7702,0.0,0.0,0.0,-3.596,-3.5352,0.0,0.0,0.0,0.0,0.0,0.0,0.0,0.0,0.0,0.0,0.0,0.0,0.0,0.0,0.0,0.0,-4.6298,-5.2575,-5.7463,-5.9347,-6.1195,-6.3676,-6.3202,-6.3613,-6.5905,-6.4586,-6.3291,-6.2564,-6.057,-5.8799,-5.7329,0.0,0.0,0.0,0.0,-5.3459,-5.2424,-5.2634,-5.2815,-5.297,-5.2392,-5.1828,-5.1394,-5.3099,-5.1994,-4.8928,-5.1706,-5.1328,-4.8769,-5.0387,-5.102,-5.078,-4.9778,-4.9329,-4.9179,-4.8446,-4.8739,-4.9349,-4.906,0.0,0.0,-4.8425,-4.863,-4.8925,-4.7683,-4.6077,-4.4485,-4.3906,-4.2071,-4.0812,-4.3167,-4.3785,-4.4327,-4.6706,-4.7309,-4.7309,-4.7309,-4.5447,-4.4457,-4.6867,-4.5447,-4.4864,-4.8106,-4.8057,-4.656,-4.3441,-4.4353,-4.5643,-4.6283,-4.823,-4.9741,-5.0409,0.0,0.0,-5.2317,-4.8984,-4.7208,-4.7868,-4.4012,-4.0832,-3.887,-3.9411,-3.8497,-3.5808,-3.6332,-3.7618,-3.9614,-3.9614,-4.1018,-4.3555,-3.8734,-3.8328,0.0,0.0,0.0,0.0,0.0,0.0,0.0,0.0,0.0,0.0,0.0,0.0,0.0,0.0,0.0,-4.5871,-5.0545,-5.4963,-5.8477,-5.9292,-6.0361,-6.2783,-6.2851,-6.3146,-6.4248,-6.3099,-6.1975,-6.1314,-5.8833,-5.6931,-5.6089,-5.2816,-5.1183,-5.1934,-5.0317,-5.0361,-5.2134,-5.1712,-5.21,-5.3139,0.0,0.0,-5.2007,-5.1858,-5.1703,-5.1497,-5.1568,-5.127,-5.06,-5.0493,-4.9808,-4.8925,-4.9733,-4.9733,-4.9119,-4.7938,-4.8595,-4.9689,-4.7635,-4.8223,-4.9771,-4.8072,-4.7955,-4.8335,-4.7515,-4.7065,0.0,-4.6543,-4.6182,-4.5873,-4.6427,-4.6564,-4.6676,-4.7148,-4.7309,-4.7309,-4.7309,-4.6897,-4.6676,-4.7163,-4.6897,-4.6736,-4.7486,-4.8095,-4.8559,-4.8731,-4.9741,-5.0509,-5.0676,-5.1866,-5.2691,-5.2809,-5.1615,-5.1162,-5.2202,-4.9434,-4.7767,-4.7902,-4.5991,-4.4654,-4.4215,-4.4333,-4.413,-4.3555,-4.3081,-4.3064,-4.3504,-4.3504,-4.4113,-4.5213,-4.2963,-4.2859,0.0,0.0,0.0,0.0,0.0,0.0,0.0,0.0,0.0,0.0,0.0,-3.5034,0.0,0.0,-4.4301,-4.8582,-5.1352,-5.4147,-5.7364,-5.7804,-5.8863,-6.151,-6.1457,-6.1239,-6.1461,-6.047,-5.9433,-5.836,-5.644,-5.4747,-5.3346,-5.0966,-4.9204,-4.8393,-4.8223,-4.8257,-4.8539,-4.9206,-4.9781,-5.0183,-4.9464,-4.932,-4.9622,-5.0369,-5.069,-5.0772,-5.1393,-5.1528,-5.1184,-5.087,-5.0152,-4.9329,-4.9987,-4.9434,-4.8282,-4.8282,-4.8701,-4.9119,-4.8175,-4.8656,-4.958,-4.8272,-4.8206,-4.8615,-4.7599,-4.6639,-4.5764,-4.5379,-4.4351,-4.3681,-4.4959,-4.5315,-4.5651,-4.6942,-4.7309,-4.7309,-4.7309,-4.7309,-4.7309,-4.7309,-4.7309,-4.7309,-4.7309,-4.7722,-4.8416,-4.9441,-5.0903,-5.1916,-5.1881,-5.2809,-5.3501,-5.3501,-5.2472,-5.2118,-5.2809,-5.0848,-4.9407,-4.9035,-4.797,-4.7192,-4.6836,-4.6447,-4.6244,-4.6244,-4.5517,-4.5314,-4.5686,-4.5686,-4.6075,-4.6786,-4.6024,-4.6203,0.0,0.0,0.0,0.0,0.0,0.0,0.0,0.0,-3.3371,-3.4306,-3.7442,-4.044,-4.1833,-4.3792,-4.6544,-5.0681,-5.1605,-5.281,-5.5761,-5.5738,-5.6426,-5.9072,-5.9018,-5.8707,-5.8478,-5.7506,-5.6309,-5.5075,-5.3619,-5.1994,-5.0227,-4.9256,-4.7777,-4.5622,-4.7005,-4.7087,-4.5808,-4.7073,-4.7647,-4.7274,-4.715,-4.7094,-4.7122,-4.9094,-4.9665,-4.9288,-5.115,-5.1708,-5.1214,-5.1079,-5.0646,-5.0062,-5.0182,-4.9045,-4.7459,-4.8775,-4.894,-4.8536,-4.894,-4.9224,-4.9209,-4.8363,-4.8581,-4.8849,-4.7692,-4.6134,-4.4734,-4.4254,-4.2567,-4.1451,-4.3517,-4.4081,-4.4646,-4.6751,-4.7309,-4.7309,-4.7309,-4.7309,-4.7309,-4.7309,-4.7309,-4.7309,-4.7309,-4.7309,-4.756,-4.8389,-5.0309,-5.1638,-5.1625,-5.2724,-5.3501,-5.3501,-5.3501,-5.3501,-5.3501,-5.2232,-5.1166,-5.0557,-4.9847,-4.9171,-4.8578,-4.7834,-4.7428,-4.7428,-4.6718,-4.6633,-4.7225,-4.7225,-4.753,-4.8122,-4.8122,-4.8413,-2.3398,-1.9506,-1.8837,-2.3405,-2.6453,-2.9754,0.0,0.0,-4.4058,-4.47,-4.8003,-5.1034,-5.1917,-5.2944,-5.3987,-5.4954,-5.3868,-5.35,-5.5126,-5.3478,-5.2461,-5.3632,-5.5139,-5.6095,-5.6075,-5.445,-5.3164,-5.2453,-5.0124,-4.8425,-4.7605,-4.7388,-4.7446,-4.7777,-4.7336,-4.7702,-4.8618,-4.7716,-4.744,-4.8,-4.7357,-4.7094,-4.7094,-4.861,-4.9233,-4.9259,-5.0677,-5.1289,-5.1169,-5.0586,-4.9957,-4.9434,-5.0017,-4.9045,-4.7459,-4.8775,-4.9224,-4.9075,-4.8566,-4.876,-4.9132,-4.779,-4.7917,-4.8313,-4.7531,-4.7118,-4.6927,-4.6882,-4.6661,-4.6486,-4.6736,-4.6867,-4.6912,-4.7264,-4.7309,-4.7309,-4.7309,-4.7309,-4.7309,-4.7309,-4.7309,-4.7309,-4.7309,-4.7309,-4.7324,-4.7486,-4.9235,-5.0567,-5.0601,-5.2253,-5.3501,-5.3501,-5.3501,-5.3501,-5.3501,-5.2689,-5.2147,-5.2063,-5.1369,-5.093,-5.0845,-5.0118,-4.9729,-4.9729,-4.9001,-4.868,-4.8748,-4.8748,-4.8798,-4.8883,-4.8883,-4.8944,-2.6515,-2.6483,0.0,0.0,-3.4821,-3.9296,-4.2905,-4.5657,-4.7949,-4.9686,-5.1767,-5.3372,-5.3783,-5.296,-5.2558,0.0,-5.1815,-5.0579,-5.0882,-5.0398,-4.955,-4.8175,-4.7877,-4.862,-5.0698,-5.0176,-4.9278,-4.8273,-4.7738,-4.7059,-4.5991,-4.5872,-4.5675,-4.5188,-4.5184,-4.5315,-4.5582,-4.5315,-4.5184,-4.5092,-4.4843,-4.4738,-4.4738,-4.6174,-4.7619,-4.9216,-4.9804,-5.0301,-5.0631,-5.0346,-4.9628,-4.876,-4.9419,-4.8701,-4.7459,-4.8775,-4.8775,-4.8087,-4.7818,-4.7935,-4.8025,-4.7459,-4.7501,-4.7692,-4.7354,-4.7309,-4.7309,-4.7309,-4.7309,-4.7309,-4.7309,-4.7309,-4.7309,-4.7309,-4.7309,-4.7309,-4.7309,-4.7309,-4.7309,-4.7309,-4.7309,-4.7309,-4.7309,-4.7309,-4.7309,-4.7309,-4.8566,-4.9661,-5.035,-5.1665,-5.2792,-5.345,-5.3501,-5.3501,-5.3501,-5.3196,-5.301,-5.301,-5.2723,-5.2553,-5.2553,-5.1386,-5.0947,-5.1369,-5.0219,-4.9847,-5.0287,-5.0287,-5.0067,-4.9644,-4.9644,-4.9407,-2.8179,0.0,0.0,-3.6274,-4.0762,-4.5207,-4.8414,-4.9597,-5.0675,-5.2992,-5.3395,-5.345,-5.3799,-5.161,-5.0227,-5.142,-4.9454,-4.7873,-4.786,-4.7481,-4.6235,-4.3723,-4.1664,-4.1273,-4.337,-4.4617,-4.5146,-4.4943,-4.5451,-4.5315,-4.4287,-4.4336,-4.4016,-4.2974,-4.3363,-4.3376,-4.2974,-4.3376,-4.3376,-4.2974,-4.2974,-4.2974,-4.3085,-4.4427,-4.6288,-4.8438,-4.8834,-4.9201,-4.9453,-4.958,-4.9134,-4.8341,-4.8805,-4.8297,-4.7444,-4.8581,-4.8282,-4.7309,-4.7309,-4.7309,-4.7309,-4.7309,-4.7309,-4.7309,-4.7309,-4.7309,-4.7309,-4.7309,-4.7309,-4.7309,-4.7309,-4.7309,-4.7309,-4.7309,-4.7309,-4.7309,-4.7309,-4.7309,-4.7309,-4.7309,-4.7309,-4.7309,-4.7309,-4.7309,-4.7309,-4.7309,-4.7929,-4.8804,-4.9805,-5.1082,-5.2287,-5.3416,-5.3501,-5.3501,-5.3501,-5.3501,-5.3501,-5.3501,-5.3501,-5.3501,-5.3501,-5.2215,-5.1758,-5.2283,-5.1048,-5.0676,-5.1217,-5.1217,-5.0947,-5.0388,-5.0388,-5.0118,0.0,0.0,-2.6958,-3.6619,-4.0193,-4.3177,-5.0181,-5.2451,-5.3545,-5.5246,-5.3814,-5.2491,-5.3251,-5.0812,-4.9143,-5.0629,-4.812,-4.6426,-4.7713,-4.5053,-4.2292,-4.0588,-3.8225,-3.5941,0.0,-3.7525,-4.1092,-4.333,-4.2764,-4.228,-4.2292,-4.2796,-4.3085,-4.2974,-4.2999,-4.2999,-4.2974,-4.2999,-4.2999,-4.2974,-4.2974,-4.2974,-4.3085,-4.4427,-4.555,-4.6425,-4.7698,-4.7946,-4.7557,-4.8118,-4.8312,-4.8282,-4.8312,-4.7908,-4.7384,-4.8072,-4.7878,-4.7309,-4.7309,-4.7309,-4.7309,-4.7309,-4.7309,-4.7309,-4.7309,-4.7309,-4.7309,-4.7309,-4.7309,-4.7309,-4.7309,-4.7309,-4.7309,-4.7309,-4.7309,-4.7309,-4.7309,-4.7309,-4.7309,-4.7309,-4.7309,-4.7309,-4.7309,-4.7309,-4.7309,-4.7309,-4.7324,-4.7692,-4.8723,-5.0612,-5.2287,-5.3416,-5.3501,-5.3501,-5.3501,-5.3501,-5.3501,-5.3501,-5.3501,-5.3501,-5.3501,-5.2706,-5.2283,-5.23,-5.1555,-5.12,-5.1217,-5.1217,-5.12,-5.1183,-5.1183,-5.1166,0.0,0.0,-3.4579,-3.8131,-4.2473,-4.6765,-5.0373,-5.1178,-5.133,-5.1926,-4.9407,-4.6856,-4.609,-4.363,-4.1968,-4.2816,-4.1798,-4.1415,-4.2999,-4.0156,-3.8178,-3.8704,-3.5647,0.0,0.0,0.0,0.0,-3.8575,-4.0846,-4.1995,-4.163,-4.2484,-4.2811,-4.2446,-4.2785,-4.2974,-4.2974,-4.2974,-4.2974,-4.2974,-4.2974,-4.2974,-4.306,-4.354,-4.4201,-4.4918,-4.5024,-4.569,-4.6734,-4.6916,-4.7258,-4.7683,-4.8117,-4.7878,-4.7339,-4.7549,-4.7489,-4.7309,-4.7309,-4.7025,-4.6651,-4.6651,-4.6349,-4.606,-4.6486,-4.6661,-4.6706,-4.7148,-4.7309,-4.7309,-4.7309,-4.7309,-4.7309,-4.7309,-4.7309,-4.7309,-4.7309,-4.7309,-4.7309,-4.7309,-4.7309,-4.7309,-4.7309,-4.7309,-4.7309,-4.7309,-4.7899,-4.8636,-4.9768,-5.107,-5.23,-5.3416,-5.3501,-5.3501,-5.3501,-5.3501,-5.3501,-5.3501,-5.3501,-5.3501,-5.3501,-5.2739,-5.2553,-5.3095,-5.2334,-5.2198,-5.2739,-5.2739,-5.2452,-5.1944,-5.1944,-5.1674,-2.7781,-3.2962,-3.8658,-4.1565,-4.5167,-4.8359,-4.9739,-4.9851,-4.9397,-4.8255,-4.5605,-4.2732,-4.0171,-3.7759,-3.6373,-3.7172,-3.6399,-3.659,-3.9068,-3.6678,-3.4899,-3.5461,-3.355,-3.2525,0.0,0.0,0.0,-3.5836,-3.8631,-4.0224,-4.0075,-4.0916,-4.1743,-4.2434,-4.2798,-4.3074,-4.3263,-4.3074,-4.2974,-4.2974,-4.2785,-4.2685,-4.2758,-4.2554,-4.2384,-4.232,-4.2883,-4.3478,-4.4214,-4.5516,-4.6247,-4.6683,-4.7583,-4.7683,-4.7309,-4.7309,-4.7309,-4.7309,-4.7309,-4.6875,-4.6322,-4.6322,-4.5992,-4.5761,-4.6196,-4.6304,-4.6456,-4.7103,-4.7118,-4.7043,-4.7264,-4.7309,-4.7309,-4.7309,-4.7309,-4.7309,-4.7309,-4.7309,-4.7309,-4.7309,-4.7309,-4.7309,-4.7309,-4.7309,-4.7309,-4.7309,-4.8166,-4.9197,-5.026,-5.092,-5.1914,-5.3382,-5.3501,-5.3501,-5.3501,-5.3501,-5.3501,-5.3501,-5.3501,-5.3501,-5.3501,-5.301,-5.2976,-5.3501,-5.2993,-5.2993,-5.3501,-5.3501,-5.323,-5.2739,-5.2739,-5.2469,-3.5205,-3.7609,-3.919,-4.6277,-4.7738,-4.7665,-4.8367,-4.8564,-4.7661,-4.4399,-4.2282,-3.9716,0.0,0.0,-3.2213,-3.3633,-3.2045,-3.2052,-3.6111,-3.4481,-3.2553,0.0,0.0,0.0,0.0,0.0,0.0,-3.5035,0.0,-3.7304,-3.789,-3.8479,-4.0159,-4.2848,-4.2949,-4.3225,-4.3752,-4.3237,-4.2974,-4.2974,-4.2421,-4.2158,-4.2133,-4.1555,-4.0438,-3.9108,-4.1282,-4.1373,-4.0279,-4.3764,-4.5207,-4.5403,-4.6726,-4.7207,-4.7207,-4.7309,-4.7309,-4.7309,-4.7309,-4.6875,-4.6307,-4.6277,-4.6286,-4.6251,-4.6237,-4.6262,-4.6441,-4.713,-4.6822,-4.6486,-4.7118,-4.7309,-4.7309,-4.7309,-4.7309,-4.7309,-4.7309,-4.7309,-4.7309,-4.7309,-4.7309,-4.7309,-4.7309,-4.7309,-4.7309,-4.7309,-4.8117,-4.9211,-5.0245,-5.0468,-5.1279,-5.3281,-5.3501,-5.3501,-5.3501,-5.3501,-5.3501,-5.3501,-5.3501,-5.3501,-5.3501,-5.3501,-5.3501,-5.3501,-5.3501,-5.3501,-5.3501,-5.3501,-5.3501,-5.3501,-5.3501,-5.3501,-3.4053,-3.9126,-4.451,-4.5662,-4.5929,-4.5925,-4.6115,-4.4575,-4.2186,-3.8964,-3.5026,-3.0943,0.0,0.0,0.0,-2.7039,-2.6685,0.0,-3.292,-3.1273,0.0,-3.2427,0.0,-3.1537,-3.2079,-3.3376,0.0,0.0,-3.5744,-3.8297,-3.9154,-4.0537,-4.1404,-4.1756,-4.2559,-4.3049,-4.3187,-4.3049,-4.2974,-4.2974,-4.2421,-4.2158,-4.212,-4.1166,-4.0501,-4.0086,-4.0349,-4.0705,-4.1267,-4.2145,-4.3122,-4.4069,-4.5403,-4.5869,-4.5973,-4.6931,-4.7309,-4.7309,-4.7309,-4.6875,-4.6247,-4.5723,-4.5537,-4.5515,-4.559,-4.5868,-4.6465,-4.7149,-4.7213,-4.7088,-4.7279,-4.7309,-4.7309,-4.7309,-4.7309,-4.7309,-4.7309,-4.7309,-4.7309,-4.7309,-4.7309,-4.7309,-4.7309,-4.7309,-4.7309,-4.7309,-4.8153,-4.9199,-5.0298,-5.1067,-5.2026,-5.3332,-5.3501,-5.3501,-5.3501,-5.3501,-5.3501,-5.3501,-5.3501,-5.3501,-5.3501,-5.3501,-5.3501,-5.3501,-5.3501,-5.3501,-5.3501,-5.3501,-5.3501,-5.3501,-5.3501,-5.3501,-3.876,-4.2597,-4.6132,-4.623,-4.5628,-4.4411,-4.2223,-4.0058,-3.7055,-3.2015,-2.921,0.0,0.0,0.0,0.0,0.0,0.0,0.0,-2.984,-2.9055,-2.893,0.0,-3.1422,0.0,-3.2348,-3.3286,-3.3332,0.0,-3.4119,-3.5779,-3.6495,-3.7633,-3.9086,-4.0661,-4.147,-4.2263,-4.2974,-4.3212,-4.3087,-4.261,-4.2057,-4.1668,-4.1404,-4.0551,-3.9885,-3.9421,0.0,-3.9791,-4.0119,-4.1196,-4.1985,-4.2834,-4.4642,-4.5403,-4.5584,-4.6829,-4.7309,-4.7309,-4.7309,-4.7055,-4.6591,-4.5603,-4.5522,-4.5612,-4.5065,-4.5516,-4.6379,-4.6751,-4.6831,-4.6912,-4.7264,-4.7309,-4.7309,-4.7309,-4.7309,-4.7309,-4.7309,-4.7309,-4.7309,-4.7309,-4.7309,-4.7309,-4.7309,-4.7309,-4.7486,-4.7914,-4.8843,-4.9885,-5.0887,-5.1575,-5.2341,-5.3399,-5.3501,-5.3501,-5.3501,-5.3501,-5.3501,-5.3501,-5.3501,-5.3501,-5.3501,-5.3501,-5.3501,-5.3501,-5.3501,-5.3501,-5.3501,-5.3501,-5.3501,-5.3501,-5.3501,-5.3501,-4.491,-4.6099,-4.5858,-4.7031,-4.5873,-4.3189,-3.8413,-3.5814,-3.2401,-2.5326,0.0,-2.3273,-1.7803,-1.8541,-2.0167,-2.069,0.0,-2.3137,-2.6979,-2.7532,-2.7988,-2.9101,-3.0547,-3.1226,-3.0829,-3.195,-3.2726,-3.2851,-3.2131,-3.206,-3.2891,-3.337,-3.5555,-3.9801,-4.0278,-4.1213,-4.276,-4.3237,-4.2986,-4.2032,-4.1492,-4.0978,-4.0501,-3.9948,-3.9157,-3.8278,-3.927,0.0,-3.8403,-4.0517,-4.1319,-4.1604,-4.3975,-4.5024,-4.5298,-4.6447,-4.6986,-4.716,-4.707,-4.71,-4.6965,-4.5708,-4.5753,-4.6082,-4.4676,-4.5218,-4.6278,-4.6266,-4.6325,-4.653,-4.7133,-4.7309,-4.7309,-4.7309,-4.7309,-4.7309,-4.7309,-4.7309,-4.7309,-4.7309,-4.7309,-4.7309,-4.7309,-4.7309,-4.7575,-4.8434,-4.9597,-5.071,-5.1615,-5.1934,-5.2472,-5.3433,-5.3501,-5.3501,-5.3501,-5.3501,-5.3501,-5.3501,-5.3501,-5.3501,-5.3501,-5.3501,-5.3501,-5.3501,-5.3501,-5.3501,-5.3501,-5.3501,-5.3501,-5.3501,-5.3501,-5.3501,-4.2737,-4.4524,-4.6322,-4.6093,-4.4788,-4.2601,-3.8908,-3.4303,0.0,0.0,0.0,-1.8385,-1.4842,-1.6154,0.0,-1.9835,0.0,0.0,0.0,0.0,-2.7207,0.0,0.0,0.0,0.0,0.0,0.0,0.0,0.0,-3.2127,-3.4725,-3.5302,-3.6757,-3.9141,-3.936,-4.011,-4.1618,-4.1718,-4.1668,-4.148,-4.0927,-4.0614,-4.0501,-3.9948,-3.9584,-3.9421,-3.9609,0.0,-3.9408,-3.9905,-4.0083,-4.0173,-4.169,-4.293,-4.392,-4.4633,-4.5551,-4.6411,-4.5843,-4.6022,-4.6352,-4.5559,-4.5753,-4.6082,-4.4676,-4.5282,-4.6296,-4.6334,-4.6691,-4.7133,-4.7294,-4.7309,-4.7309,-4.7309,-4.7309,-4.7309,-4.7309,-4.7309,-4.7309,-4.7309,-4.7309,-4.7309,-4.7309,-4.7309,-4.7339,-4.7531,-4.9142,-5.0442,-5.0643,-5.2169,-5.3281,-5.3484,-5.3501,-5.3501,-5.3501,-5.3501,-5.3501,-5.3501,-5.3501,-5.3501,-5.3501,-5.3501,-5.3501,-5.3501,-5.3501,-5.3501,-5.3501,-5.3501,-5.3501,-5.3501,-5.3501,-5.3501,-4.386,-4.5471,-4.713,-4.6462,-4.4562,-4.1226,-3.4947,0.0,0.0,0.0,0.0,-1.5644,-1.4064,0.0,0.0,0.0,0.0,0.0,0.0,0.0,0.0,0.0,0.0,0.0,0.0,0.0,0.0,0.0,0.0,-3.1057,-3.2964,-3.4193,-3.5446,-3.6711,-3.8218,-3.9489,-4.0184,-4.0885,-4.1191,-4.0915,-4.0639,-4.0362,-4.0074,-3.9823,-3.9697,-3.9697,-3.9697,0.0,-3.8856,-3.9446,-3.9728,-3.9964,-4.1496,-4.3038,-4.4557,-4.5171,-4.5986,-4.6741,-4.6067,-4.6052,-4.6217,-4.5529,-4.5753,-4.6007,-4.4295,-4.4974,-4.6237,-4.5878,-4.6535,-4.7309,-4.7309,-4.7309,-4.7309,-4.7309,-4.7309,-4.7309,-4.7309,-4.7309,-4.7309,-4.7309,-4.7309,-4.7309,-4.7309,-4.7309,-4.7501,-4.7974,-4.9363,-5.0572,-5.1076,-5.2522,-5.3501,-5.3501,-5.3501,-5.3501,-5.3501,-5.3501,-5.3501,-5.3501,-5.3501,-5.3501,-5.3501,-5.3501,-5.3501,-5.3501,-5.3501,-5.3501,-5.3501,-5.3501,-5.3501,-5.3501,-5.3501,-5.3501,-4.53,-4.655,-4.7386,-4.6347,-4.3964,-3.9714,-3.1078,-2.6655,0.0,0.0,-1.3854,-1.4086,-1.3958,0.0,0.0,0.0,0.0,0.0,0.0,0.0,0.0,0.0,0.0,0.0,0.0,0.0,0.0,0.0,0.0,0.0,-3.085,-3.2428,-3.3665,-3.4582,-3.6985,-3.8579,-3.9261,-4.0418,-4.0777,-4.0337,-4.0337,-4.0111,-3.9697,-3.9697,-3.9697,-3.9697,-3.9697,0.0,0.0,-3.9132,-3.9633,-3.9734,-4.1423,-4.3445,-4.5407,-4.5651,-4.6156,-4.68,-4.6277,-4.6112,-4.6022,-4.5469,-4.5663,-4.5783,-4.4062,-4.486,-4.6169,-4.5477,-4.6262,-4.7309,-4.7309,-4.7309,-4.7309,-4.7309,-4.7309,-4.7309,-4.7309,-4.7309,-4.7309,-4.7309,-4.7309,-4.7309,-4.7309,-4.7309,-4.7546,-4.8358,-4.9575,-5.0714,-5.1495,-5.2708,-5.3501,-5.3501,-5.3501,-5.3501,-5.3501,-5.3501,-5.3501,-5.3501,-5.3501,-5.3501,-5.3501,-5.3501,-5.3501,-5.3501,-5.3501,-5.3501,-5.3501,-5.3501,-5.3501,-5.3501,-5.3501,-5.3501,-4.4815,-4.6047,-4.6224,-4.419,-4.2088,-3.8463,-3.0704,0.0,0.0,-1.5061,-1.3615,-1.35,-1.3627,0.0,0.0,0.0,0.0,-1.835,0.0,0.0,0.0,0.0,0.0,0.0,0.0,0.0,0.0,0.0,0.0,0.0,-3.0859,-3.1035,-3.2404,-3.5091,-3.5533,-3.6975,-3.9615,-3.9731,-3.9823,-3.9772,-3.9772,-3.9747,-3.9697,-3.9697,-3.9697,-3.9697,-3.9697,0.0,0.0,-3.8818,-3.9171,-3.8607,-4.0182,-4.2683,-4.5245,-4.4108,-4.4423,-4.5469,-4.5409,-4.5394,-4.5379,-4.5319,-4.5334,-4.5244,-4.4466,-4.5227,-4.6198,-4.553,-4.6262,-4.7309,-4.7309,-4.7309,-4.7309,-4.7309,-4.7309,-4.7309,-4.7309,-4.7309,-4.7309,-4.7309,-4.7309,-4.7309,-4.7309,-4.7309,-4.7324,-4.7456,-4.9132,-5.0461,-5.0539,-5.2253,-5.3501,-5.3501,-5.3501,-5.3501,-5.3501,-5.3501,-5.3501,-5.3501,-5.3501,-5.3501,-5.3501,-5.3501,-5.3501,-5.3501,-5.3501,-5.3501,-5.3501,-5.3501,-5.3501,-5.3501,-5.3501,-5.3501,-4.116,-4.3054,-4.4322,-4.2916,-3.9489,-3.4731,-2.7829,0.0,0.0,-1.3585,-1.2535,-1.2829,-1.3742,0.0,0.0,0.0,0.0,0.0,0.0,0.0,0.0,0.0,0.0,0.0,0.0,0.0,0.0,0.0,0.0,0.0,-3.043,-3.0742,-3.1883,-3.3968,-3.4858,-3.6271,-3.836,-3.9245,-3.9697,-3.9697,-3.9697,-3.9697,-3.9697,-3.9697,-3.9697,-3.9697,-3.9697,0.0,0.0,-3.814,-3.8661,-3.8,-3.9916,-4.2584,-4.5238,-4.4324,-4.4501,-4.5289,-4.5289,-4.5035,-4.4766,-4.517,-4.5035,-4.4661,-4.4392,-4.4695,-4.5052,-4.4788,-4.5665,-4.6691,-4.6691,-4.7043,-4.7309,-4.7309,-4.7309,-4.7309,-4.7309,-4.7309,-4.7309,-4.7309,-4.7309,-4.7309,-4.7309,-4.7309,-4.7516,-4.8136,-4.9415,-5.059,-5.1243,-5.2623,-5.3501,-5.3501,-5.3501,-5.3501,-5.3501,-5.3501,-5.3501,-5.3501,-5.3501,-5.3501,-5.3501,-5.3501,-5.3501,-5.3501,-5.3501,-5.3501,-5.3501,-5.3501,-5.3501,-5.3501,-5.3501,-5.3501,-3.7891,-4.0227,-4.1937,-4.0433,-3.6362,-3.1071,0.0,0.0,0.0,-1.2347,-1.1763,-1.239,-1.3591,-1.382,-1.4496,-1.674,0.0,-1.6832,0.0,0.0,0.0,0.0,0.0,0.0,0.0,0.0,0.0,0.0,0.0,0.0,-3.0817,-3.1297,-3.2207,-3.3744,-3.5167,-3.6703,-3.8137,-3.9141,-3.9697,-3.9697,-3.9697,-3.9346,-3.8743,-3.9233,-3.9094,-3.8504,-3.917,0.0,0.0,-3.7726,-3.841,-3.7933,-3.9958,-4.2553,-4.5214,-4.4556,-4.4601,-4.5035,-4.5229,-4.487,-4.4421,-4.508,-4.4855,-4.4317,-4.4317,-4.4398,-4.4589,-4.437,-4.5223,-4.6295,-4.6295,-4.6837,-4.7309,-4.7309,-4.7309,-4.7309,-4.7309,-4.7309,-4.7309,-4.7309,-4.7309,-4.7354,-4.7707,-4.7737,-4.8121,-4.9088,-5.0168,-5.1123,-5.1832,-5.2809,-5.3501,-5.3501,-5.3501,-5.3501,-5.3501,-5.3501,-5.3501,-5.3501,-5.3501,-5.3501,-5.3501,-5.3501,-5.3501,-5.3501,-5.3501,-5.3501,-5.3501,-5.3501,-5.3501,-5.3501,-5.3501,-5.3501,-3.5929,-3.8053,-3.8972,-3.626,-3.2493,-2.8025,0.0,0.0,0.0,-1.1657,-1.1495,-1.226,-1.3065,-1.3653,-1.458,-1.6336,-1.6828,0.0,0.0,0.0,0.0,0.0,0.0,0.0,0.0,0.0,0.0,0.0,0.0,0.0,-3.2242,-3.2826,-3.3744,-3.5189,-3.6703,-3.8243,-3.9697,-3.9697,-3.9697,-3.9697,-3.9697,-3.8555,-3.6496,-3.8128,-3.7676,0.0,0.0,0.0,0.0,-3.7726,-3.8658,-3.856,-4.0138,-4.2553,-4.5214,-4.4556,-4.4317,-4.4421,-4.5065,-4.487,-4.4421,-4.508,-4.4855,-4.4317,-4.4317,-4.4766,-4.5177,-4.4504,-4.5274,-4.6295,-4.6295,-4.6837,-4.7309,-4.7309,-4.7309,-4.7309,-4.7309,-4.7309,-4.7309,-4.7309,-4.7309,-4.7575,-4.8596,-4.8789,-4.9189,-5.0192,-5.1221,-5.1917,-5.1917,-5.2809,-5.3501,-5.3501,-5.3501,-5.3501,-5.3501,-5.3501,-5.3501,-5.3501,-5.3501,-5.3501,-5.3501,-5.3501,-5.3501,-5.3501,-5.3501,-5.3501,-5.3501,-5.3501,-5.3501,-5.3501,-5.3501,-5.3501,-2.8627,-3.031,-3.118,-2.9718,-2.6411,-2.2526,-1.9058,0.0,0.0,-1.1024,-1.0834,-1.1327,-1.1964,-1.22,-1.3104,-1.5548,-1.5615,0.0,0.0,0.0,0.0,0.0,0.0,0.0,0.0,0.0,0.0,0.0,0.0,0.0,-3.3726,-3.5335,-3.6368,-3.6811,-3.7252,-3.8243,-3.9697,-3.932,-3.9132,-3.9132,-3.873,-3.7387,-3.5328,-3.7349,-3.7073,0.0,0.0,0.0,0.0,-3.7784,-3.8402,-3.7947,-4.0364,-4.2368,-4.3928,-4.3718,-4.3643,-4.3733,-4.4392,-4.4197,-4.3748,-4.4407,-4.4182,-4.3643,-4.3643,-4.3778,-4.3943,-4.4248,-4.4589,-4.5035,-4.5472,-4.609,-4.6647,-4.6647,-4.6942,-4.7309,-4.7309,-4.7309,-4.7309,-4.7309,-4.7309,-4.7369,-4.7722,-4.8308,-4.9183,-5.0221,-5.1297,-5.2169,-5.2927,-5.3281,-5.3501,-5.3501,-5.3501,-5.3501,-5.3501,-5.3501,-5.3501,-5.3501,-5.3501,-5.3501,-5.3501,-5.3501,-5.3501,-5.3501,-5.3501,-5.3501,-5.3501,-5.3501,-5.3501,-5.3501,-5.3501,-5.3501,0.0,-2.4878,-2.5617,-2.5086,-2.2076,0.0,0.0,0.0,0.0,0.0,-1.0825,-1.1382,-1.1833,-1.2311,-1.3127,-1.4466,-1.5339,0.0,0.0,0.0,0.0,0.0,0.0,0.0,0.0,0.0,0.0,0.0,0.0,0.0,-3.4213,-3.5958,-3.7092,-3.7636,-3.8141,-3.8693,-3.9383,-3.9044,-3.8755,-3.8542,-3.8178,-3.6847,-3.4788,-3.6784,-3.6496,0.0,0.0,0.0,0.0,-3.7471,-3.8259,-3.8547,-4.028,-4.1947,-4.3329,-4.3329,-4.3329,-4.3389,-4.3808,-4.3673,-4.3404,-4.3808,-4.3658,-4.3329,-4.3329,-4.3329,-4.3389,-4.3788,-4.4127,-4.4489,-4.5161,-4.5813,-4.6331,-4.6644,-4.7043,-4.7309,-4.7309,-4.7309,-4.7309,-4.7309,-4.7309,-4.7456,-4.7767,-4.84,-4.9313,-5.0741,-5.148,-5.227,-5.3332,-5.3501,-5.3501,-5.3501,-5.3501,-5.3501,-5.3501,-5.3501,-5.3501,-5.3501,-5.3501,-5.3501,-5.3501,-5.3501,-5.3501,-5.3501,-5.3501,-5.3501,-5.3501,-5.3501,-5.3501,-5.3501,-5.3501,-5.3501,0.0,0.0,0.0,0.0,0.0,0.0,0.0,0.0,0.0,0.0,0.0,-1.2154,-1.2407,-1.3562,-1.4228,-1.3443,-1.5727,0.0,0.0,0.0,0.0,0.0,0.0,0.0,0.0,0.0,0.0,0.0,0.0,0.0,-3.3997,-3.5292,-3.6541,-3.8002,-3.9032,-3.9333,-3.8806,-3.8768,-3.8429,-3.7776,-3.7852,-3.6671,-3.4487,-3.6307,-3.5918,0.0,0.0,0.0,0.0,-3.7102,-3.8345,-3.9899,-4.0073,-4.1449,-4.3329,-4.3329,-4.3299,-4.3269,-4.3329,-4.3269,-4.3195,-4.3195,-4.3225,-4.3269,-4.3269,-4.3299,-4.3329,-4.3329,-4.3758,-4.4357,-4.4974,-4.5685,-4.6321,-4.6976,-4.7148,-4.7264,-4.7294,-4.7309,-4.7309,-4.7309,-4.7309,-4.7575,-4.8551,-4.8819,-4.9559,-5.1508,-5.1915,-5.2388,-5.3332,-5.3501,-5.3501,-5.3501,-5.3501,-5.3501,-5.3501,-5.3501,-5.3501,-5.3501,-5.3501,-5.3501,-5.3501,-5.3501,-5.3501,-5.3501,-5.3501,-5.3501,-5.3501,-5.3501,-5.3501,-5.3501,-5.3501,-5.3501,-1.6049,0.0,-1.6442,-1.5949,-1.4587,0.0,0.0,0.0,0.0,0.0,0.0,-1.2257,-1.278,-1.3009,-1.3455,-1.4395,-1.5774,-1.7006,0.0,0.0,0.0,0.0,0.0,0.0,0.0,0.0,0.0,0.0,0.0,-3.3925,-3.6819,-3.7282,-3.7593,-3.8002,-3.8266,-3.8341,-3.8216,-3.7789,-3.6872,-3.5504,-3.6345,-3.4939,-3.17,-3.5039,-3.5353,0.0,0.0,0.0,-3.6546,-3.8461,-3.9496,-4.0073,-4.1782,-4.282,-4.3329,-4.3329,-4.3015,-4.2671,-4.3165,-4.2671,-4.1848,-4.1848,-4.2177,-4.2581,-4.2581,-4.294,-4.3329,-4.3329,-4.3404,-4.3573,-4.3743,-4.4281,-4.4943,-4.5577,-4.612,-4.6676,-4.7148,-4.7309,-4.7309,-4.7309,-4.7309,-4.7354,-4.7575,-4.8997,-5.0205,-5.0673,-5.2089,-5.323,-5.3484,-5.3501,-5.3501,-5.3501,-5.3501,-5.3501,-5.3501,-5.3501,-5.3501,-5.3501,-5.3501,-5.3501,-5.3501,-5.3501,-5.3501,-5.3501,-5.3501,-5.3501,-5.3501,-5.3501,-5.3501,-5.3501,-5.3501,-5.3501,-1.4963,-1.4699,-1.4556,-1.4876,-1.3556,-1.2211,0.0,0.0,0.0,0.0,0.0,0.0,-1.326,-1.3265,0.0,0.0,-1.6019,0.0,0.0,0.0,0.0,0.0,0.0,0.0,0.0,0.0,0.0,0.0,0.0,-3.3784,-3.6223,-3.6945,-3.7249,-3.7249,-3.7249,-3.7374,-3.7626,-3.7337,-3.6232,-3.4361,-3.5717,-3.4876,-3.2215,-3.5064,-3.5579,0.0,0.0,0.0,-3.6883,-3.7377,-3.8792,-4.0831,-4.2029,-4.282,-4.3329,-4.3329,-4.3105,-4.2865,-4.321,-4.2865,-4.2282,-4.2282,-4.2521,-4.2806,-4.2806,-4.3045,-4.3329,-4.3329,-4.3329,-4.3374,-4.3713,-4.4035,-4.4531,-4.5529,-4.6032,-4.6486,-4.7133,-4.7309,-4.7309,-4.7309,-4.7309,-4.7309,-4.7309,-4.8196,-4.9266,-5.0279,-5.1388,-5.2421,-5.3349,-5.3501,-5.3501,-5.3501,-5.3501,-5.3501,-5.3501,-5.3501,-5.3501,-5.3501,-5.3501,-5.3501,-5.3501,-5.3501,-5.3501,-5.3501,-5.3501,-5.3501,-5.3501,-5.3501,-5.3501,-5.3501,-5.3501,-5.3501,-1.5566,-1.5077,-1.4952,-1.5803,-1.407,-1.2345,0.0,0.0,0.0,0.0,0.0,0.0,0.0,0.0,0.0,0.0,0.0,0.0,0.0,0.0,0.0,0.0,0.0,0.0,0.0,0.0,0.0,0.0,0.0,-3.3254,-3.4678,-3.5763,-3.6358,-3.6358,-3.6358,-3.6584,-3.7048,-3.7061,-3.5994,-3.3922,-3.5567,-3.5491,-3.3947,-3.5529,-3.5981,-3.5466,0.0,0.0,-3.7087,-3.5942,-3.7813,-4.1299,-4.1478,-4.2232,-4.3165,-4.3075,-4.303,-4.3,-4.2806,-4.2865,-4.3015,-4.291,-4.303,-4.318,-4.318,-4.3254,-4.3329,-4.3329,-4.3329,-4.3404,-4.3988,-4.4157,-4.4497,-4.5718,-4.6049,-4.631,-4.7043,-4.7264,-4.7309,-4.7309,-4.7309,-4.7309,-4.7309,-4.7471,-4.8193,-5.0105,-5.0554,-5.1346,-5.3247,-5.3501,-5.3501,-5.3501,-5.3501,-5.3501,-5.3501,-5.3501,-5.3501,-5.3501,-5.3501,-5.3501,-5.3501,-5.3501,-5.3501,-5.3501,-5.3501,-5.3501,-5.3501,-5.3501,-5.3501,-5.3501,-5.3501,-5.3501,-1.7412,-1.746,-1.7114,-1.522,-1.3766,-1.2961,0.0,0.0,0.0,0.0,0.0,0.0,0.0,0.0,0.0,0.0,0.0,0.0,0.0,0.0,0.0,0.0,0.0,0.0,0.0,0.0,0.0,0.0,0.0,-3.4678,-3.6061,-3.6263,-3.6358,-3.6358,-3.6358,-3.6408,-3.6483,-3.6483,-3.5617,-3.3922,-3.5567,-3.5491,-3.3935,-3.5127,-3.5629,-3.5504,0.0,-3.6027,-3.6584,-3.8226,-3.9244,-4.0003,-4.1008,-4.1844,-4.2447,-4.1893,-4.1683,-4.1519,-4.0397,-4.0741,-4.1594,-4.1025,-4.1609,-4.2506,-4.2506,-4.2895,-4.3329,-4.3329,-4.3329,-4.3344,-4.3404,-4.3419,-4.3618,-4.4388,-4.5019,-4.5651,-4.6295,-4.6897,-4.7309,-4.7309,-4.7309,-4.7309,-4.7309,-4.7989,-4.9032,-5.0204,-5.109,-5.2135,-5.3315,-5.3501,-5.3501,-5.3501,-5.3501,-5.3501,-5.3501,-5.3501,-5.3501,-5.3501,-5.3501,-5.3501,-5.3501,-5.3501,-5.3501,-5.3501,-5.3501,-5.3501,-5.3501,-5.3501,-5.3501,-5.3501,-5.3501,-5.3501,-1.7532,-1.784,-1.8039,-1.7323,-1.5978,0.0,0.0,0.0,0.0,0.0,0.0,0.0,0.0,0.0,0.0,0.0,0.0,0.0,0.0,0.0,0.0,0.0,0.0,0.0,0.0,0.0,0.0,0.0,0.0,0.0,-3.5825,-3.5918,-3.5918,-3.5918,-3.5918,-3.578,-3.5479,-3.5479,-3.4788,-3.347,-3.4826,-3.46,-3.3031,-3.5034,-3.5775,-3.5515,0.0,-3.6251,-3.7645,-3.7767,-3.8873,-4.0621,-4.1203,-4.1564,-4.1788,-4.1489,-4.1609,-4.1773,-4.0816,-4.1115,-4.1863,-4.1549,-4.2102,-4.2895,-4.2895,-4.309,-4.3329,-4.3329,-4.3329,-4.3329,-4.3329,-4.3329,-4.3434,-4.4142,-4.4533,-4.501,-4.6114,-4.6515,-4.6882,-4.7264,-4.7309,-4.7309,-4.7309,-4.8136,-4.9189,-5.0192,-5.1237,-5.227,-5.3332,-5.3501,-5.3501,-5.3501,-5.3501,-5.3501,-5.3501,-5.3501,-5.3501,-5.3501,-5.3501,-5.3501,-5.3501,-5.3501,-5.3501,-5.3501,-5.3501,-5.3501,-5.3501,-5.3501,-5.3501,-5.3501,-5.3501,-5.3501,-1.7648,-1.8039,-1.8554,-1.921,0.0,0.0,0.0,0.0,0.0,0.0,0.0,0.0,0.0,0.0,0.0,0.0,0.0,0.0,0.0,0.0,0.0,0.0,0.0,0.0,0.0,0.0,0.0,0.0,0.0,0.0,-3.5261,-3.5353,-3.5353,-3.5353,-3.5353,-3.5152,-3.4726,-3.46,-3.4173,-3.347,-3.4324,-3.4048,-3.283,-3.5055,-3.5871,-3.5526,-3.5379,-3.6594,-3.851,-3.7434,-3.8531,-4.092,-4.092,-4.092,-4.0935,-4.11,-4.1369,-4.1594,-4.11,-4.1354,-4.1938,-4.2073,-4.2566,-4.3135,-4.3284,-4.3329,-4.3329,-4.3329,-4.3329,-4.3329,-4.3329,-4.3329,-4.3404,-4.3942,-4.4172,-4.4655,-4.5789,-4.6215,-4.6486,-4.7148,-4.7309,-4.7309,-4.7309,-4.8136,-4.9133,-5.0242,-5.1263,-5.227,-5.3332,-5.3501,-5.3501,-5.3501,-5.3501,-5.3501,-5.3501,-5.3501,-5.3501,-5.3501,-5.3501,-5.3501,-5.3501,-5.3501,-5.3501,-5.3501,-5.3501,-5.3501,-5.3501,-5.3501,-5.3501,-5.3501,-5.3501,-5.3501,-1.86,-1.893,-1.9021,-1.9347,0.0,0.0,0.0,0.0,0.0,0.0,0.0,0.0,0.0,0.0,0.0,0.0,0.0,0.0,0.0,0.0,0.0,0.0,0.0,0.0,0.0,0.0,0.0,0.0,0.0,0.0,-3.4813,-3.4776,-3.4776,-3.4776,-3.4776,-3.4763,-3.4726,-3.4211,-3.4173,-3.4613,-3.4675,-3.4663,-3.4525,-3.5198,-3.5574,-3.5579,-3.6971,-3.7695,-3.7962,-3.8782,-3.9307,-3.9559,-3.9559,-3.9559,-3.9634,-4.0247,-4.0113,-3.9634,-3.9574,-3.9993,-4.0651,-4.125,-4.1893,-4.2551,-4.315,-4.3329,-4.3329,-4.3329,-4.3329,-4.3329,-4.3329,-4.3329,-4.3344,-4.3374,-4.3818,-4.4463,-4.5217,-4.5837,-4.6486,-4.7148,-4.7309,-4.7309,-4.7309,-4.8136,-4.913,-5.0265,-5.1295,-5.227,-5.3332,-5.3501,-5.3501,-5.3501,-5.3501,-5.3501,-5.3501,-5.3501,-5.3501,-5.3501,-5.3501,-5.3501,-5.3501,-5.3501,-5.3501,-5.3501,-5.3501,-5.3501,-5.3501,-5.3501,-5.3501,-5.3501,-5.3501,-5.3501,-1.8303,-1.8978,-1.9745,-2.0902,0.0,0.0,0.0,0.0,0.0,0.0,0.0,0.0,0.0,0.0,0.0,0.0,0.0,0.0,0.0,0.0,0.0,0.0,0.0,0.0,0.0,0.0,0.0,0.0,0.0,0.0,-3.4236,-3.4211,-3.4211,-3.4211,-3.4211,-3.4048,-3.3709,-3.3131,-3.2955,-3.3169,-3.4174,-3.449,-3.414,-3.5639,-3.6122,-3.5864,-3.7476,-3.8148,-3.8265,-3.9086,-3.9424,-3.9424,-3.9424,-3.9664,-4.0008,-3.9843,-3.9888,-3.9963,-3.9559,-3.9843,-4.0502,-4.1175,-4.1818,-4.2476,-4.3135,-4.3329,-4.3329,-4.3329,-4.3329,-4.3329,-4.3329,-4.3329,-4.3329,-4.3329,-4.3528,-4.3818,-4.4543,-4.5221,-4.587,-4.6515,-4.7043,-4.7516,-4.8136,-4.9072,-5.0102,-5.1168,-5.2219,-5.3028,-5.3467,-5.3501,-5.3501,-5.3501,-5.3501,-5.3501,-5.3501,-5.3501,-5.3501,-5.3501,-5.3501,-5.3501,-5.3501,-5.3501,-5.3501,-5.3501,-5.3501,-5.3501,-5.3501,-5.3501,-5.3501,-5.3501,-5.3501,-5.3501,-1.8604,-1.927,-2.0293,0.0,0.0,0.0,0.0,0.0,0.0,0.0,0.0,0.0,0.0,0.0,0.0,0.0,0.0,0.0,0.0,0.0,0.0,0.0,0.0,0.0,0.0,0.0,0.0,0.0,0.0,0.0,0.0,-3.3633,-3.3633,-3.3633,-3.3633,-3.337,-3.2805,-3.2416,-3.2281,-3.2421,-3.3911,-3.4206,-3.3516,-3.5569,-3.6258,-3.5985,-3.7656,-3.8272,-3.8153,-3.905,-3.9424,-3.9424,-3.9424,-3.9694,-4.0038,-3.9589,-3.9709,-4.0023,-3.9574,-3.9709,-4.0232,-4.11,-4.1683,-4.2207,-4.3075,-4.3329,-4.3329,-4.3329,-4.3329,-4.3329,-4.3329,-4.3329,-4.3329,-4.3329,-4.3434,-4.3788,-4.4497,-4.5169,-4.5853,-4.6498,-4.7264,-4.7974,-4.8641,-4.9947,-5.1083,-5.1829,-5.2792,-5.3501,-5.3501,-5.3501,-5.3501,-5.3501,-5.3501,-5.3501,-5.3501,-5.3501,-5.3501,-5.3501,-5.3501,-5.3501,-5.3501,-5.3501,-5.3501,-5.3501,-5.3501,-5.3501,-5.3501,-5.3501,-5.3501,-5.3501,-5.3501,-5.3501,-1.9777,-1.9929,0.0,0.0,0.0,0.0,0.0,0.0,0.0,0.0,0.0,0.0,0.0,0.0,0.0,0.0,0.0,0.0,0.0,0.0,0.0,0.0,0.0,0.0,0.0,0.0,0.0,0.0,0.0,0.0,0.0,-3.3068,-3.3056,-3.3056,-3.3056,-3.278,-3.2215,-3.2202,-3.2383,-3.2817,-3.3859,-3.3859,-3.2895,-3.4952,-3.587,-3.5971,-3.7641,-3.8003,-3.7494,-3.8856,-3.9394,-3.9394,-3.9394,-3.9394,-3.9394,-3.9409,-3.9409,-3.9409,-3.9424,-3.9424,-3.9634,-4.095,-4.1369,-4.1609,-4.2925,-4.3314,-4.3314,-4.3329,-4.3329,-4.3329,-4.3329,-4.3329,-4.3329,-4.3329,-4.3788,-4.4512,-4.516,-4.581,-4.6463,-4.7182,-4.8121,-4.8789,-4.8773,-5.0542,-5.19,-5.1917,-5.2792,-5.3501,-5.3501,-5.3501,-5.3501,-5.3501,-5.3501,-5.3501,-5.3501,-5.3501,-5.3501,-5.3501,-5.3501,-5.3501,-5.3501,-5.3501,-5.3501,-5.3501,-5.3501,-5.3501,-5.3501,-5.3501,-5.3501,-5.3501,-5.3501,-5.3501,-2.2401,-2.2201,0.0,0.0,0.0,0.0,0.0,0.0,0.0,0.0,0.0,0.0,0.0,0.0,0.0,0.0,0.0,0.0,0.0,0.0,0.0,0.0,0.0,0.0,0.0,0.0,0.0,0.0,0.0,0.0,0.0,-3.2102,-3.1888,-3.1888,-3.1888,-3.1813,-3.1637,-3.1273,-3.1439,-3.2211,-3.2826,-3.3512,-3.4321,-3.5729,-3.6073,-3.5688,-3.6626,-3.6941,-3.6821,-3.7659,-3.8003,-3.8003,-3.8003,-3.8003,-3.8063,-3.8527,-3.8691,-3.8766,-3.9245,-3.9424,-3.9559,-4.0412,-4.0696,-4.0846,-4.1698,-4.1953,-4.2058,-4.2521,-4.2656,-4.2746,-4.321,-4.3329,-4.3329,-4.3329,-4.3419,-4.3743,-4.4408,-4.5124,-4.5784,-4.6498,-4.7264,-4.8225,-4.9646,-5.0406,-5.1363,-5.2792,-5.3281,-5.3501,-5.3501,-5.3501,-5.3501,-5.3501,-5.3501,-5.3501,-5.3501,-5.3501,-5.3501,-5.3501,-5.3501,-5.3501,-5.3501,-5.3501,-5.3501,-5.3501,-5.3501,-5.3501,-5.3501,-5.3501,-5.3501,-5.3501,-5.3501,-5.3501,-2.3502,0.0,0.0,0.0,0.0,0.0,0.0,0.0,0.0,0.0,0.0,0.0,0.0,0.0,0.0,0.0,0.0,0.0,0.0,0.0,0.0,0.0,0.0,0.0,0.0,0.0,0.0,0.0,0.0,0.0,0.0,-3.1574,-3.1386,-3.1386,-3.1386,-3.1286,-3.1085,-3.0771,-3.1151,-3.2267,-3.2485,-3.3522,-3.5142,-3.5807,-3.5878,-3.5534,-3.5923,-3.6387,-3.6866,-3.6985,-3.718,-3.7404,-3.7404,-3.7404,-3.7464,-3.7853,-3.8003,-3.8093,-3.8781,-3.9005,-3.917,-4.0098,-4.0397,-4.0531,-4.119,-4.1384,-4.1519,-4.2177,-4.2357,-4.2506,-4.3165,-4.3329,-4.3329,-4.3329,-4.3528,-4.3808,-4.4211,-4.5002,-4.59,-4.6721,-4.7767,-4.909,-5.0707,-5.1371,-5.2034,-5.3298,-5.3501,-5.3501,-5.3501,-5.3501,-5.3501,-5.3501,-5.3501,-5.3501,-5.3501,-5.3501,-5.3501,-5.3501,-5.3501,-5.3501,-5.3501,-5.3501,-5.3501,-5.3501,-5.3501,-5.3501,-5.3501,-5.3501,-5.3501,-5.3501,-5.3501,-5.3501,0.0,0.0,0.0,0.0,0.0,0.0,0.0,0.0,0.0,0.0,0.0,0.0,0.0,0.0,0.0,0.0,0.0,0.0,0.0,0.0,0.0,0.0,0.0,0.0,0.0,0.0,0.0,0.0,0.0,0.0,0.0,-3.1342,-3.1317,-3.1248,-3.1317,-3.109,-3.0545,-3.0612,-3.1291,-3.2593,-3.2678,-3.3685,-3.5504,-3.5504,-3.5504,-3.5504,-3.5504,-3.6163,-3.7195,-3.6626,-3.6731,-3.724,-3.724,-3.724,-3.724,-3.73,-3.733,-3.7419,-3.8078,-3.8302,-3.8512,-3.9798,-4.0217,-4.0337,-4.0995,-4.1205,-4.1339,-4.1998,-4.2222,-4.2417,-4.3075,-4.3284,-4.3329,-4.3329,-4.3773,-4.4203,-4.4312,-4.5259,-4.6408,-4.7471,-4.8986,-5.0491,-5.1599,-5.2611,-5.3416,-5.3501,-5.3501,-5.3501,-5.3501,-5.3501,-5.3501,-5.3501,-5.3501,-5.3501,-5.3501,-5.3501,-5.3501,-5.3501,-5.3501,-5.3501,-5.3501,-5.3501,-5.3501,-5.3501,-5.3501,-5.3501,-5.3501,-5.3501,-5.3501,-5.3501,-5.3501,-5.3501,0.0,0.0,0.0,0.0,0.0,0.0,0.0,0.0,0.0,0.0,0.0,0.0,0.0,0.0,0.0,0.0,0.0,0.0,0.0,0.0,0.0,0.0,0.0,0.0,0.0,0.0,0.0,0.0,0.0,0.0,-3.0783,-3.1074,-3.0906,-3.0131,-3.0829,-3.0854,-2.9967,-3.0662,-3.1596,0.0,-3.338,-3.4327,-3.5504,-3.5504,-3.5504,-3.5504,-3.5504,-3.5669,-3.5908,-3.5774,-3.5789,-3.5908,-3.5908,-3.5908,-3.5983,-3.6492,-3.6686,-3.6776,-3.7404,-3.7629,-3.7749,-3.8556,-3.8826,-3.896,-3.9634,-3.9843,-3.9978,-4.0636,-4.119,-4.1743,-4.2402,-4.2955,-4.3329,-4.3329,-4.3404,-4.3618,-4.4172,-4.4564,-4.5072,-4.6349,-4.7543,-4.8858,-5.0468,-5.1555,-5.2505,-5.3332,-5.3501,-5.3501,-5.3501,-5.3501,-5.3501,-5.3501,-5.3501,-5.3501,-5.3501,-5.3501,-5.3501,-5.3501,-5.3501,-5.3501,-5.3501,-5.3501,-5.3501,-5.3501,-5.3501,-5.3501,-5.3501,-5.3501,-5.3501,-5.3501,-5.3501,-5.3501,0.0,0.0,0.0,0.0,0.0,0.0,0.0,0.0,0.0,0.0,0.0,0.0,0.0,0.0,0.0,0.0,0.0,0.0,0.0,0.0,0.0,0.0,0.0,0.0,0.0,0.0,0.0,0.0,0.0,-3.0218,-3.0218,-3.0445,-3.0482,-3.0482,-3.097,-3.118,-3.1132,-3.1609,-3.2321,-3.331,-3.3739,-3.4543,-3.5504,-3.5504,-3.5504,-3.5504,-3.5504,-3.5504,-3.5504,-3.5504,-3.5504,-3.5504,-3.5504,-3.5504,-3.5549,-3.5893,-3.6013,-3.6103,-3.6746,-3.6971,-3.712,-3.8078,-3.8392,-3.8527,-3.9215,-3.9424,-3.9559,-4.0217,-4.0876,-4.1534,-4.2192,-4.2851,-4.3329,-4.3329,-4.3329,-4.3389,-4.3758,-4.4112,-4.478,-4.6433,-4.7758,-4.9128,-5.099,-5.2034,-5.2893,-5.345,-5.3501,-5.3501,-5.3501,-5.3501,-5.3501,-5.3501,-5.3501,-5.3501,-5.3501,-5.3501,-5.3501,-5.3501,-5.3501,-5.3501,-5.3501,-5.3501,-5.3501,-5.3501,-5.3501,-5.3501,-5.3501,-5.3501,-5.3501,-5.3501,-5.3501,-5.3501,0.0,0.0,0.0,0.0,0.0,0.0,0.0,0.0,0.0,0.0,0.0,0.0,0.0,0.0,0.0,0.0,0.0,0.0,0.0,0.0,0.0,0.0,0.0,0.0,0.0,0.0,0.0,0.0,0.0,-3.0075,-3.0075,-3.0355,-3.0771,-3.1389,-3.1609,-3.1906,-3.2441,-3.2596,-3.3086,-3.3869,-3.4119,-3.4691,-3.5504,-3.5504,-3.5504,-3.5504,-3.5504,-3.5504,-3.5504,-3.5504,-3.5504,-3.5504,-3.5504,-3.5504,-3.5504,-3.5504,-3.5504,-3.5579,-3.6133,-3.6312,-3.6507,-3.7689,-3.8138,-3.8347,-3.9035,-3.9334,-3.9529,-4.0083,-4.0711,-4.1369,-4.2013,-4.2671,-4.3195,-4.3314,-4.3394,-4.3536,-4.3585,-4.4001,-4.4923,-4.692,-4.8472,-5.0025,-5.1994,-5.2809,-5.3315,-5.3484,-5.3501,-5.3501,-5.3501,-5.3501,-5.3501,-5.3501,-5.3501,-5.3501,-5.3501,-5.3501,-5.3501,-5.3501,-5.3501,-5.3501,-5.3501,-5.3501,-5.3501,-5.3501,-5.3501,-5.3501,-5.3501,-5.3501,-5.3501,-5.3501,-5.3501,-5.3501,0.0,0.0,0.0,0.0,0.0,0.0,0.0,0.0,0.0,0.0,0.0,0.0,0.0,0.0,0.0,0.0,0.0,0.0,0.0,0.0,0.0,0.0,0.0,0.0,0.0,0.0,0.0,0.0,-3.1044,-3.1044,-3.1044,-3.2536,-3.3101,-3.2464,-3.3171,-3.2987,-3.175,-3.2617,-3.3116,-3.3264,-3.4655,-3.5359,-3.5504,-3.5504,-3.5504,-3.5504,-3.5504,-3.5504,-3.5504,-3.5504,-3.5504,-3.5504,-3.5504,-3.5504,-3.5504,-3.5504,-3.5504,-3.5519,-3.5609,-3.5639,-3.5759,-3.6507,-3.7105,-3.7659,-3.8317,-3.8945,-3.9439,-3.9529,-4.0023,-4.0681,-4.1339,-4.1998,-4.2626,-4.321,-4.4004,-4.4615,-4.4564,-4.4695,-4.5223,-4.6893,-4.854,-5.0212,-5.1983,-5.2404,-5.2708,-5.3433,-5.3501,-5.3501,-5.3501,-5.3501,-5.3501,-5.3501,-5.3501,-5.3501,-5.3501,-5.3501,-5.3501,-5.3501,-5.3501,-5.3501,-5.3501,-5.3501,-5.3501,-5.3501,-5.3501,-5.3501,-5.3501,-5.3501,-5.3501,-5.3501,-5.3501,-5.3501,0.0,0.0,0.0,0.0,0.0,0.0,0.0,0.0,0.0,0.0,0.0,0.0,0.0,0.0,0.0,0.0,0.0,0.0,0.0,0.0,0.0,0.0,0.0,0.0,0.0,0.0,0.0,0.0,-3.196,-3.196,-3.196,-3.2416,-3.2734,-3.2899,-3.2897,-3.2846,-3.2703,-3.3118,-3.3324,-3.3338,-3.4029,-3.4382,-3.4382,-3.4382,-3.4801,-3.5504,-3.5504,-3.5504,-3.5504,-3.5504,-3.5504,-3.5504,-3.5504,-3.5504,-3.5504,-3.5504,-3.5504,-3.5504,-3.5504,-3.5504,-3.5609,-3.6267,-3.6911,-3.7539,-3.8197,-3.8871,-3.9424,-3.9424,-3.9888,-4.0694,-4.1888,-4.2692,-4.3499,-4.467,-4.5269,-4.5746,-4.6287,-4.5934,-4.6096,-4.7721,-4.904,-5.0281,-5.1481,-5.1995,-5.242,-5.2739,-5.3196,-5.3501,-5.3501,-5.3501,-5.3501,-5.3501,-5.3501,-5.3501,-5.3501,-5.3501,-5.3501,-5.3501,-5.3501,-5.3501,-5.3501,-5.3501,-5.3501,-5.3501,-5.3501,-5.3501,-5.3501,-5.3501,-5.3501,-5.3501,-5.3946,-5.4106,0.0,0.0,0.0,0.0,0.0,0.0,0.0,0.0,0.0,0.0,0.0,0.0,0.0,0.0,0.0,0.0,0.0,0.0,0.0,0.0,0.0,0.0,0.0,0.0,0.0,0.0,0.0,0.0,-3.2961,-3.2961,-3.2961,-3.2581,-3.2677,-3.3398,-3.2824,-3.2731,-3.3245,-3.3245,-3.3245,-3.3245,-3.341,-3.3499,-3.3499,-3.3499,-3.4038,-3.4996,-3.4996,-3.51,-3.5235,-3.5055,-3.519,-3.5489,-3.531,-3.5355,-3.5504,-3.5504,-3.5504,-3.5504,-3.5504,-3.5504,-3.5609,-3.6267,-3.6911,-3.7539,-3.8197,-3.8998,-3.9666,-3.9481,-4.0019,-4.1016,-4.2422,-4.3319,-4.4206,-4.5801,-4.6384,-4.6747,-4.7456,-4.7276,-4.7243,-4.8517,-4.9317,-5.0062,-5.0816,-5.1393,-5.1891,-5.2247,-5.279,-5.3281,-5.3467,-5.3501,-5.3501,-5.3501,-5.3501,-5.3501,-5.3501,-5.3501,-5.3501,-5.3501,-5.3501,-5.3501,-5.3501,-5.3501,-5.3501,-5.3501,-5.3501,-5.3501,-5.3501,-5.3501,-5.3501,-5.3501,-5.4264,-5.4589,0.0,0.0,0.0,0.0,0.0,0.0,0.0,0.0,0.0,0.0,0.0,0.0,0.0,0.0,0.0,0.0,0.0,0.0,0.0,0.0,0.0,0.0,0.0,0.0,0.0,0.0,0.0,0.0,-3.3945,-3.3945,-3.3945,-3.4206,-3.4394,-3.4409,-3.3767,-3.3139,-3.2572,-3.2557,-3.2557,-3.2572,-3.32,-3.3499,-3.3499,-3.3499,-3.3529,-3.3604,-3.3604,-3.3948,-3.4487,-3.3858,-3.4352,-3.5444,-3.4786,-3.4936,-3.5504,-3.5504,-3.5504,-3.5504,-3.5504,-3.5504,-3.5609,-3.6267,-3.6911,-3.7539,-3.8197,-3.9443,-4.0432,-3.961,-4.0492,-4.1829,-4.2636,-4.3319,-4.4206,-4.5801,-4.6884,-4.7523,-4.7589,-4.8272,-4.8906,-4.8984,-4.9018,-4.9306,-5.0038,-5.016,-5.0713,-5.2097,-5.2334,-5.2638,-5.3399,-5.3501,-5.3501,-5.3501,-5.3501,-5.3501,-5.3501,-5.3501,-5.3501,-5.3501,-5.3501,-5.3501,-5.3501,-5.3501,-5.3501,-5.3501,-5.3501,-5.3501,-5.3501,-5.3501,-5.3501,-5.3501,-5.4264,-5.4589,0.0,0.0,0.0,0.0,0.0,0.0,0.0,0.0,0.0,0.0,0.0,0.0,0.0,0.0,0.0,0.0,0.0,0.0,0.0,0.0,0.0,0.0,0.0,0.0,0.0,0.0,0.0,0.0,0.0,-3.3387,-3.4292,-3.2779,-3.2332,-3.3185,-3.2587,-3.1898,-3.1225,-3.1225,-3.1225,-3.1225,-3.1913,-3.2243,-3.2243,-3.2243,-3.2243,-3.2243,-3.2243,-3.2841,-3.3858,-3.4038,-3.4397,-3.4861,-3.5055,-3.5555,-3.6165,-3.5668,-3.6148,-3.689,-3.6415,-3.6228,-3.6274,-3.6503,-3.6955,-3.7449,-3.7689,-3.9162,-4.05,-3.9681,-4.094,-4.2798,-4.3495,-4.4673,-4.5991,-4.7621,-4.8225,-4.8513,-4.8513,-4.8781,-4.9001,-4.9001,-4.9001,-4.9103,-4.9328,-4.9767,-5.0473,-5.1454,-5.1995,-5.2587,-5.3399,-5.3501,-5.3501,-5.3501,-5.3501,-5.3501,-5.3501,-5.3501,-5.3501,-5.3501,-5.3501,-5.3501,-5.3501,-5.3501,-5.3501,-5.3501,-5.3929,-5.4218,-5.4218,-5.4218,-5.4437,-5.4939,-5.5685,-5.6095,0.0,0.0,0.0,0.0,0.0,0.0,0.0,0.0,0.0,0.0,0.0,0.0,0.0,0.0,0.0,0.0,0.0,0.0,0.0,0.0,0.0,0.0,0.0,0.0,0.0,0.0,0.0,0.0,0.0,0.0,-3.4427,-3.2377,-3.1375,-3.1824,-3.121,-3.0657,-3.0193,-3.0193,-3.0193,-3.0193,-3.0657,-3.0986,-3.118,-3.118,-3.1315,-3.1482,-3.1482,-3.2153,-3.3185,-3.3395,-3.3873,-3.4565,-3.5042,-3.5783,-3.6554,-3.6054,-3.6538,-3.7338,-3.6783,-3.6446,-3.6321,-3.6755,-3.717,-3.7518,-3.8054,-3.9524,-4.1013,-4.0447,-4.2007,-4.401,-4.4496,-4.6011,-4.7688,-4.8742,-4.9001,-4.9001,-4.9001,-4.9001,-4.9069,-4.9323,-4.9171,-4.9086,-4.9323,-4.956,-5.0067,-5.1065,-5.164,-5.2317,-5.3365,-5.3501,-5.3501,-5.3501,-5.3501,-5.3501,-5.3501,-5.3501,-5.3501,-5.3501,-5.3501,-5.3501,-5.3501,-5.3501,-5.3618,-5.3881,-5.4374,-5.4878,-5.5338,-5.5102,-5.5203,-5.5706,-5.6545,-5.7015,0.0,0.0,0.0,0.0,0.0,0.0,0.0,0.0,0.0,0.0,0.0,0.0,0.0,0.0,0.0,0.0,0.0,0.0,0.0,0.0,0.0,0.0,0.0,0.0,0.0,0.0,0.0,0.0,-3.4831,-3.4427,-3.4442,-3.32,-3.1869,-3.0552,-2.9909,-2.9564,-2.9549,-2.9549,-2.9549,-2.9549,-2.9564,-2.9894,-3.0477,-3.0492,-3.0866,-3.1437,-3.1467,-3.1898,-3.2437,-3.1824,-3.2706,-3.4508,-3.4691,-3.5512,-3.6676,-3.6661,-3.6661,-3.6722,-3.6661,-3.6165,-3.5789,-3.7169,-3.7536,-3.7714,-3.92,-4.0795,-4.2062,-4.1997,-4.3652,-4.5415,-4.5573,-4.7266,-4.9001,-4.9001,-4.9001,-4.9001,-4.9001,-4.9001,-4.9221,-4.9915,-4.9492,-4.9221,-4.9932,-4.9475,-4.9492,-5.0963,-5.12,-5.1758,-5.3281,-5.3501,-5.3501,-5.3501,-5.3501,-5.3501,-5.3501,-5.3501,-5.3501,-5.3501,-5.3501,-5.3501,-5.3501,-5.3501,-5.3881,-5.4589,-5.4651,-5.5396,-5.6912,-5.6132,-5.5762,-5.578,-5.6545,-5.7351,-1.7697,0.0,0.0,0.0,0.0,0.0,0.0,0.0,0.0,0.0,0.0,0.0,0.0,0.0,0.0,0.0,0.0,0.0,0.0,0.0,0.0,0.0,0.0,0.0,0.0,0.0,0.0,0.0,-3.3978,-3.326,-3.3739,-3.2527,-3.1405,-3.0537,-2.9909,-2.9355,-2.8876,-2.8876,-2.8876,-2.8876,-2.9355,-2.9669,-2.9849,-3.0298,-3.0612,-3.0806,-3.1315,-3.1644,-3.1824,-3.2123,-3.3184,-3.4722,-3.5161,-3.6532,-3.8213,-3.7674,-3.8189,-3.9032,-3.8453,-3.779,-3.7301,-3.8204,-3.8404,-3.8539,-3.94,-4.1247,-4.2785,-4.2189,-4.3764,-4.5857,-4.6976,-4.8091,-4.9001,-4.9001,-4.9001,-4.9001,-4.9001,-4.9001,-4.9069,-4.9255,-4.9137,-4.9069,-4.9272,-4.9137,-4.9323,-5.0253,-5.0862,-5.1555,-5.252,-5.3145,-5.3501,-5.3501,-5.3501,-5.3501,-5.3501,-5.3501,-5.3501,-5.3501,-5.3501,-5.3501,-5.3501,-5.3994,-5.4374,-5.4589,-5.5702,-5.6438,-5.6912,-5.6668,-5.6825,-5.7364,-5.7594,-5.7839,0.0,0.0,0.0,0.0,0.0,0.0,-1.7981,-2.1276,0.0,0.0,0.0,0.0,0.0,0.0,0.0,0.0,0.0,0.0,0.0,0.0,0.0,0.0,0.0,0.0,0.0,-3.5504,-3.5504,-3.5504,-3.4158,-3.326,-3.3095,-3.1824,-3.0806,-3.0133,-2.9505,-2.8846,-2.8173,-2.8173,-2.8173,-2.8173,-2.8562,-2.8891,-2.919,-2.9834,-3.0253,-3.0537,-3.155,-3.1951,-3.1996,-3.2977,-3.3939,-3.4778,-3.5735,-3.7268,-3.8854,-3.8414,-3.8816,-3.9489,-3.869,-3.8155,-3.7768,-3.8178,-3.867,-3.9287,-4.0002,-4.1689,-4.3246,-4.3108,-4.4547,-4.6498,-4.7986,-4.868,-4.9001,-4.9001,-4.9001,-4.9001,-4.9001,-4.9001,-4.9086,-4.9407,-4.9204,-4.9103,-4.9407,-4.9204,-4.9255,-4.9982,-5.0727,-5.1488,-5.2215,-5.301,-5.3501,-5.3501,-5.3501,-5.3501,-5.3501,-5.3766,-5.3946,-5.3946,-5.4218,-5.4391,-5.4391,-5.4818,-5.522,-5.557,-5.6438,-5.7065,-5.7351,-5.7351,-5.7565,-5.7997,-5.7997,-5.7997,0.0,0.0,0.0,0.0,0.0,0.0,-1.8149,-2.0752,-2.3191,0.0,0.0,0.0,0.0,0.0,0.0,0.0,0.0,0.0,0.0,0.0,0.0,0.0,0.0,0.0,-3.5504,-3.5504,-3.5504,-3.5504,-3.4801,-3.3858,-3.2677,-3.1345,-3.0328,-2.9699,-2.9056,-2.8382,-2.7694,-2.7655,-2.7625,-2.7625,-2.7625,-2.7889,-2.8502,-2.925,-2.9933,-3.0584,-3.1989,-3.2641,-3.2796,-3.4208,-3.4854,-3.5074,-3.6417,-3.781,-3.9016,-3.9016,-3.9016,-3.8924,-3.8359,-3.8023,-3.7888,-3.8044,-3.8982,-4.0128,-4.0975,-4.2329,-4.377,-4.4603,-4.5838,-4.7225,-4.8545,-4.8951,-4.9001,-4.9001,-4.9001,-4.9001,-4.9001,-4.9001,-4.9187,-4.9847,-4.9441,-4.9204,-4.9847,-4.9424,-4.9221,-4.9864,-5.0676,-5.1454,-5.2097,-5.2959,-5.3501,-5.3501,-5.3501,-5.3501,-5.3501,-5.4106,-5.4544,-5.4589,-5.5203,-5.5592,-5.5706,-5.578,-5.6186,-5.6912,-5.6964,-5.7333,-5.7997,-5.7997,-5.7997,-5.7997,-5.7997,-5.7997,0.0,0.0,0.0,0.0,0.0,0.0,-1.6533,-1.7655,-1.9361,0.0,0.0,0.0,0.0,0.0,0.0,0.0,0.0,0.0,0.0,0.0,0.0,0.0,0.0,0.0,-3.5504,-3.5504,-3.5504,-3.5504,-3.4382,-3.3574,-3.332,-3.2048,-3.1016,-3.0342,-2.9714,-2.9071,-2.8412,-2.7844,-2.7625,-2.7625,-2.7625,-2.7685,-2.7814,-2.9026,-2.9985,-3.0634,-3.199,-3.2895,-3.3491,-3.4917,-3.5838,-3.6473,-3.7425,-3.8635,-3.985,-3.985,-3.985,-3.9934,-4.0366,-4.0133,-3.9797,-4.0896,-4.1526,-4.1929,-4.2654,-4.3996,-4.5411,-4.6135,-4.7005,-4.7767,-4.8054,-4.8578,-4.9001,-4.9001,-4.9001,-4.9001,-4.9001,-4.9001,-4.9035,-4.9187,-4.9103,-4.9052,-4.9187,-4.9103,-4.9052,-4.9187,-5.0355,-5.1268,-5.142,-5.2655,-5.3501,-5.3501,-5.3501,-5.3501,-5.3501,-5.3601,-5.3946,-5.4527,-5.4774,-5.5102,-5.5649,-5.6313,-5.6739,-5.6912,-5.7498,-5.7839,-5.7997,-5.7997,-5.7997,-5.7997,-5.7997,-5.7997,0.0,0.0,0.0,-1.7772,0.0,0.0,0.0,-1.7041,-1.8493,0.0,0.0,0.0,0.0,0.0,0.0,0.0,0.0,0.0,0.0,0.0,0.0,0.0,0.0,0.0,-3.4532,-3.4502,-3.4637,-3.4966,-3.4068,-3.3499,-3.3499,-3.2579,-3.1744,-3.1058,-3.0741,-3.0063,-2.9098,-2.8377,-2.791,-2.7625,-2.7625,-2.7625,-2.767,-2.934,-3.0283,-3.0705,-3.3085,-3.4333,-3.4805,-3.6589,-3.7585,-3.7937,-3.8338,-3.916,-4.007,-4.007,-4.0307,-4.0645,-4.0668,-4.0857,-4.1173,-4.1526,-4.2136,-4.2871,-4.3191,-4.4406,-4.594,-4.7039,-4.7631,-4.8003,-4.8359,-4.8731,-4.9001,-4.9001,-4.9001,-4.9001,-4.9001,-4.9001,-4.9001,-4.9001,-4.9001,-4.9001,-4.9001,-4.9001,-4.9001,-4.9001,-4.9949,-5.0659,-5.0659,-5.1978,-5.2909,-5.2909,-5.3264,-5.3501,-5.3501,-5.4171,-5.4774,-5.5161,-5.5893,-5.6456,-5.684,-5.7216,-5.7449,-5.7449,-5.7821,-5.7997,-5.7997,-5.7997,-5.7997,-5.7997,-5.7997,-5.7997,0.0,0.0,0.0,0.0,0.0,-1.776,0.0,0.0,0.0,0.0,0.0,0.0,0.0,0.0,0.0,0.0,0.0,0.0,0.0,0.0,0.0,0.0,0.0,0.0,0.0,-3.2781,-3.3305,-3.4218,-3.3679,-3.3305,-3.3305,-3.289,-3.2338,-3.1796,-3.1715,-3.1213,-3.0188,-2.9467,-2.885,-2.8373,-2.8373,-2.8323,-2.8218,-3.0154,-3.1002,-3.1162,-3.4332,-3.5795,-3.6058,-3.8151,-3.8988,-3.9005,-3.9157,-3.9563,-4.007,-4.007,-4.0561,-4.1169,-4.065,-4.1342,-4.2352,-4.1857,-4.2654,-4.3827,-4.4108,-4.5059,-4.6413,-4.775,-4.8122,-4.8257,-4.8849,-4.9001,-4.9001,-4.9001,-4.9001,-4.9001,-4.9001,-4.9001,-4.9001,-4.9001,-4.9001,-4.9001,-4.9001,-4.9001,-4.9001,-4.9001,-4.9627,-5.0084,-5.0084,-5.1386,-5.23,-5.23,-5.3126,-5.3717,-5.3717,-5.4939,-5.578,-5.5893,-5.7098,-5.7839,-5.7997,-5.7997,-5.7997,-5.7997,-5.7997,-5.7997,-5.7997,-5.7997,-5.7997,-5.7997,-5.7997,-5.7997,0.0,0.0,0.0,0.0,-1.9091,0.0,0.0,0.0,-1.7637,-1.7055,0.0,0.0,0.0,0.0,0.0,0.0,0.0,0.0,0.0,0.0,0.0,0.0,0.0,0.0,0.0,-3.0178,-3.1614,-3.3469,-3.2991,-3.2617,-3.2617,-3.2629,-3.2555,-3.2478,-3.2495,-3.2431,-3.2253,-3.1614,-3.1214,-3.1166,-3.1166,-3.0811,-3.0309,-3.1715,-3.2364,-3.251,-3.4709,-3.6056,-3.678,-3.8379,-3.8988,-3.9056,-3.9698,-4.0003,-4.007,-4.007,-4.0561,-4.1288,-4.1825,-4.2584,-4.3356,-4.3973,-4.4771,-4.5689,-4.7005,-4.7537,-4.7834,-4.8646,-4.8883,-4.89,-4.8984,-4.9001,-4.9001,-4.9001,-4.9001,-4.9001,-4.9001,-4.9001,-4.9001,-4.9001,-4.9001,-4.9001,-4.9001,-4.9001,-4.9001,-4.9001,-4.9627,-5.0084,-5.0084,-5.1386,-5.23,-5.23,-5.3609,-5.4482,-5.4482,-5.5203,-5.6004,-5.6739,-5.6912,-5.7351,-5.7997,-5.7997,-5.7997,-5.7997,-5.7997,-5.7997,-5.7997,-5.7997,-5.7997,-5.7997,-5.7997,-5.7997,0.0,0.0,0.0,0.0,0.0,0.0,-2.0797,0.0,-1.7712,0.0,0.0,0.0,0.0,0.0,0.0,0.0,-1.9809,0.0,0.0,0.0,0.0,0.0,0.0,0.0,0.0,0.0,0.0,0.0,-3.0402,-3.0417,-3.0791,-3.1588,-3.2382,-3.3182,-3.3159,-3.3127,-3.3175,-3.2474,-3.1929,-3.1582,-3.1582,-3.1438,-3.1227,-3.2547,-3.3175,-3.3321,-3.5889,-3.716,-3.755,-3.9022,-3.9631,-3.9648,-3.9952,-4.007,-4.0121,-4.0578,-4.1204,-4.1931,-4.2675,-4.3453,-4.4215,-4.4976,-4.5449,-4.5991,-4.7462,-4.7919,-4.8071,-4.8798,-4.9001,-4.9001,-4.9001,-4.9001,-4.9001,-4.9001,-4.9001,-4.9001,-4.9001,-4.9001,-4.9001,-4.9001,-4.9001,-4.9001,-4.9001,-4.9001,-4.9001,-4.9001,-4.9255,-4.9458,-4.9458,-5.0371,-5.1183,-5.1623,-5.3021,-5.4121,-5.4555,-5.5685,-5.6545,-5.6861,-5.7284,-5.7679,-5.7997,-5.7997,-5.7997,-5.7997,-5.7997,-5.7997,-5.7997,-5.7997,-5.7997,-5.7997,-5.7997,-5.7997,-2.4163,0.0,0.0,0.0,0.0,0.0,0.0,0.0,0.0,0.0,0.0,0.0,0.0,0.0,0.0,0.0,0.0,-2.0288,0.0,0.0,0.0,0.0,0.0,0.0,0.0,0.0,0.0,-2.7455,-2.8008,-2.8546,-2.8988,-3.0652,-3.2149,-3.3243,-3.3648,-3.3801,-3.3895,-3.3736,-3.3449,-3.3012,-3.3012,-3.3046,-3.3048,-3.4013,-3.4466,-3.4636,-3.7127,-3.821,-3.8311,-3.9563,-4.007,-4.0104,-4.0307,-4.0392,-4.046,-4.1001,-4.1796,-4.2675,-4.3217,-4.3927,-4.4739,-4.5703,-4.6007,-4.6278,-4.7767,-4.8206,-4.8325,-4.8849,-4.9001,-4.9001,-4.9001,-4.9001,-4.9001,-4.9001,-4.9001,-4.9001,-4.9001,-4.9001,-4.9001,-4.9001,-4.9001,-4.9001,-4.9001,-4.9001,-4.9001,-4.9001,-4.9001,-4.9001,-4.9001,-4.9644,-5.0304,-5.0845,-5.2649,-5.4015,-5.4555,-5.6188,-5.7184,-5.7184,-5.7726,-5.7997,-5.7997,-5.7997,-5.7997,-5.7997,-5.7997,-5.7997,-5.7997,-5.7997,-5.7997,-5.7997,-5.7997,-5.7997,0.0,0.0,0.0,-2.5076,0.0,0.0,0.0,0.0,-2.0438,0.0,0.0,0.0,0.0,0.0,0.0,-1.9794,0.0,0.0,0.0,0.0,0.0,0.0,0.0,0.0,0.0,0.0,0.0,-2.4746,-2.6527,-2.7603,-2.7581,-3.0107,-3.1894,-3.2506,-3.386,-3.4543,-3.4591,-3.5941,-3.6671,-3.6608,-3.6608,-3.6645,-3.662,-3.6676,-3.6695,-3.6769,-3.832,-3.8954,-3.9005,-3.9766,-4.007,-4.0155,-4.0882,-4.117,-4.117,-4.1187,-4.2134,-4.3386,-4.3403,-4.3927,-4.4823,-4.6278,-4.6752,-4.7039,-4.8528,-4.8968,-4.8968,-4.9001,-4.9001,-4.9001,-4.9001,-4.9001,-4.9001,-4.9001,-4.9001,-4.9001,-4.9001,-4.9001,-4.9001,-4.9001,-4.9001,-4.9001,-4.9001,-4.9001,-4.9001,-4.9001,-4.9001,-4.9001,-4.9001,-4.9644,-5.0101,-5.0118,-5.2805,-5.4555,-5.4573,-5.6695,-5.7932,-5.7932,-5.7997,-5.7997,-5.7997,-5.7997,-5.7997,-5.7997,-5.7997,-5.7997,-5.7997,-5.7997,-5.7997,-5.7997,-5.7997,-5.7997,0.0,0.0,-3.0567,-2.9475,0.0,0.0,0.0,0.0,0.0,0.0,0.0,0.0,0.0,0.0,0.0,-2.0408,-2.0752,0.0,0.0,0.0,0.0,0.0,0.0,0.0,0.0,0.0,0.0,-2.1994,-2.2233,-2.2761,-2.3618,-2.6608,-2.8989,-3.0553,-3.2704,-3.4358,-3.5317,-3.6257,-3.7017,-3.7533,-3.7533,-3.754,-3.7549,-3.7523,-3.754,-3.7582,-3.8552,-3.8988,-3.9056,-3.9783,-4.007,-4.0155,-4.0916,-4.1508,-4.1982,-4.2489,-4.298,-4.3504,-4.4012,-4.4688,-4.5483,-4.6481,-4.7124,-4.7716,-4.8714,-4.9001,-4.9001,-4.9001,-4.9001,-4.9001,-4.9001,-4.9001,-4.9001,-4.9001,-4.9001,-4.9001,-4.9001,-4.9001,-4.9001,-4.9001,-4.9001,-4.9001,-4.9001,-4.9001,-4.9001,-4.9001,-4.9001,-4.9001,-4.9001,-4.9221,-4.9729,-5.0704,-5.2639,-5.4278,-5.5255,-5.6976,-5.7997,-5.7997,-5.7997,-5.7997,-5.7997,-5.7997,-5.7997,-5.7997,-5.7997,-5.7997,-5.7997,-5.7997,-5.7997,-5.7997,-5.7997,-5.7997,-3.3419,-3.3989,0.0,-3.29,-3.187,0.0,-2.962,0.0,-2.4433,0.0,0.0,0.0,0.0,0.0,0.0,0.0,-2.0557,0.0,0.0,-1.9974,0.0,0.0,0.0,0.0,0.0,0.0,-1.9645,-1.928,-1.9765,-2.0414,0.0,0.0,-2.788,-2.9164,-3.251,-3.45,-3.4936,-3.6651,-3.7653,-3.7853,-3.8132,-3.843,-3.8667,-3.8413,-3.843,-3.87,-3.9174,-3.9377,-3.9411,-3.9884,-4.024,-4.0544,-4.1305,-4.2033,-4.276,-4.3234,-4.3589,-4.3944,-4.4705,-4.5297,-4.5821,-4.6549,-4.731,-4.8003,-4.8477,-4.8798,-4.8951,-4.8697,-4.8798,-4.8951,-4.868,-4.8798,-4.9001,-4.9001,-4.9001,-4.9001,-4.9001,-4.9001,-4.9001,-4.9001,-4.9001,-4.9001,-4.9001,-4.9001,-4.9001,-4.9001,-4.9001,-4.9001,-4.9001,-4.9001,-4.946,-5.0645,-5.2403,-5.433,-5.6363,-5.7434,-5.7997,-5.7997,-5.7997,-5.7997,-5.7997,-5.7997,-5.7997,-5.7997,-5.7997,-5.7997,-5.7997,-5.7997,-5.7997,-5.7997,-5.7997,-5.7997]}]]